<?xml version="1.0" encoding="UTF-8" standalone="no" ?>
<gpx xmlns="http://www.topografix.com/GPX/1/1" xmlns:xsi="http://www.w3.org/2001/XMLSchema-instance" xsi:schemaLocation="http://www.topografix.com/GPX/1/1 http://www.topografix.com/GPX/1/1/gpx.xsd" version="1.1" creator="VisuGPX - https://www.visugpx.com">
  <metadata>
    <name>83-Me-Ampus</name>
    <desc><![CDATA[83-Me-Ampus : Dolmen et ND de Spéluque
2021-12-15]]></desc>
  </metadata>
  <trk>
    <name><![CDATA[2021-12-15_Me-Ampus]]></name>
    <extensions>
      <line xmlns="http://www.topografix.com/GPX/gpx_style/0/2">
        <width>4</width>
      </line>
    </extensions>
    <trkseg>
      <trkpt lat="43.60565" lon="6.38264">
        <ele>583.8</ele>
        <time>2021-12-15T13:05:17.000Z</time>
      </trkpt>
      <trkpt lat="43.60565" lon="6.38265">
        <ele>583.7</ele>
        <time>2021-12-15T13:05:18.000Z</time>
      </trkpt>
      <trkpt lat="43.60565" lon="6.38265">
        <ele>583.8</ele>
        <time>2021-12-15T13:05:19.000Z</time>
      </trkpt>
      <trkpt lat="43.60566" lon="6.38266">
        <ele>583.8</ele>
        <time>2021-12-15T13:05:23.000Z</time>
      </trkpt>
      <trkpt lat="43.60568" lon="6.38268">
        <ele>584.2</ele>
        <time>2021-12-15T13:05:29.000Z</time>
      </trkpt>
      <trkpt lat="43.60568" lon="6.38268">
        <ele>584</ele>
        <time>2021-12-15T13:06:08.000Z</time>
      </trkpt>
      <trkpt lat="43.60568" lon="6.38268">
        <ele>584</ele>
        <time>2021-12-15T13:06:08.000Z</time>
      </trkpt>
      <trkpt lat="43.60568" lon="6.38268">
        <ele>584.1</ele>
        <time>2021-12-15T13:06:09.000Z</time>
      </trkpt>
      <trkpt lat="43.60568" lon="6.38268">
        <ele>583.7</ele>
        <time>2021-12-15T13:06:14.000Z</time>
      </trkpt>
      <trkpt lat="43.60578" lon="6.38267">
        <ele>583.2</ele>
        <time>2021-12-15T13:06:27.000Z</time>
      </trkpt>
      <trkpt lat="43.60583" lon="6.38266">
        <ele>583.1</ele>
        <time>2021-12-15T13:06:33.000Z</time>
      </trkpt>
      <trkpt lat="43.60583" lon="6.38266">
        <ele>583.4</ele>
        <time>2021-12-15T13:06:36.000Z</time>
      </trkpt>
      <trkpt lat="43.60582" lon="6.38265">
        <ele>583.1</ele>
        <time>2021-12-15T13:06:42.000Z</time>
      </trkpt>
      <trkpt lat="43.60582" lon="6.38264">
        <ele>583.1</ele>
        <time>2021-12-15T13:06:44.000Z</time>
      </trkpt>
      <trkpt lat="43.60587" lon="6.38265">
        <ele>583.1</ele>
        <time>2021-12-15T13:06:56.000Z</time>
      </trkpt>
      <trkpt lat="43.60588" lon="6.38265">
        <ele>583</ele>
        <time>2021-12-15T13:06:57.000Z</time>
      </trkpt>
      <trkpt lat="43.60588" lon="6.38265">
        <ele>582.9</ele>
        <time>2021-12-15T13:06:58.000Z</time>
      </trkpt>
      <trkpt lat="43.60588" lon="6.38265">
        <ele>583</ele>
        <time>2021-12-15T13:06:59.000Z</time>
      </trkpt>
      <trkpt lat="43.60588" lon="6.38266">
        <ele>583.2</ele>
        <time>2021-12-15T13:07:00.000Z</time>
      </trkpt>
      <trkpt lat="43.60589" lon="6.38265">
        <ele>583.3</ele>
        <time>2021-12-15T13:07:01.000Z</time>
      </trkpt>
      <trkpt lat="43.60589" lon="6.38265">
        <ele>583.1</ele>
        <time>2021-12-15T13:07:03.000Z</time>
      </trkpt>
      <trkpt lat="43.60589" lon="6.38265">
        <ele>583.2</ele>
        <time>2021-12-15T13:07:04.000Z</time>
      </trkpt>
      <trkpt lat="43.60589" lon="6.38265">
        <ele>583.3</ele>
        <time>2021-12-15T13:07:05.000Z</time>
      </trkpt>
      <trkpt lat="43.6059" lon="6.38265">
        <ele>583.4</ele>
        <time>2021-12-15T13:07:15.000Z</time>
      </trkpt>
      <trkpt lat="43.60592" lon="6.38271">
        <ele>583.1</ele>
        <time>2021-12-15T13:07:25.000Z</time>
      </trkpt>
      <trkpt lat="43.60592" lon="6.38271">
        <ele>583.4</ele>
        <time>2021-12-15T13:07:27.000Z</time>
      </trkpt>
      <trkpt lat="43.60592" lon="6.38272">
        <ele>583.6</ele>
        <time>2021-12-15T13:07:29.000Z</time>
      </trkpt>
      <trkpt lat="43.60592" lon="6.38272">
        <ele>583.6</ele>
        <time>2021-12-15T13:07:30.000Z</time>
      </trkpt>
      <trkpt lat="43.60592" lon="6.38272">
        <ele>583.7</ele>
        <time>2021-12-15T13:07:31.000Z</time>
      </trkpt>
      <trkpt lat="43.60592" lon="6.38271">
        <ele>583.6</ele>
        <time>2021-12-15T13:07:33.000Z</time>
      </trkpt>
      <trkpt lat="43.60591" lon="6.38271">
        <ele>583.9</ele>
        <time>2021-12-15T13:07:37.000Z</time>
      </trkpt>
      <trkpt lat="43.60591" lon="6.38271">
        <ele>583.7</ele>
        <time>2021-12-15T13:07:39.000Z</time>
      </trkpt>
      <trkpt lat="43.60588" lon="6.38267">
        <ele>583.4</ele>
        <time>2021-12-15T13:07:49.000Z</time>
      </trkpt>
      <trkpt lat="43.60588" lon="6.38267">
        <ele>583.3</ele>
        <time>2021-12-15T13:07:54.000Z</time>
      </trkpt>
      <trkpt lat="43.60588" lon="6.38267">
        <ele>583.3</ele>
        <time>2021-12-15T13:07:55.000Z</time>
      </trkpt>
      <trkpt lat="43.60589" lon="6.38268">
        <ele>583.7</ele>
        <time>2021-12-15T13:07:58.000Z</time>
      </trkpt>
      <trkpt lat="43.60586" lon="6.38266">
        <ele>583.5</ele>
        <time>2021-12-15T13:08:06.000Z</time>
      </trkpt>
      <trkpt lat="43.60586" lon="6.38265">
        <ele>583.3</ele>
        <time>2021-12-15T13:08:09.000Z</time>
      </trkpt>
      <trkpt lat="43.60584" lon="6.38263">
        <ele>583.2</ele>
        <time>2021-12-15T13:08:13.000Z</time>
      </trkpt>
      <trkpt lat="43.60584" lon="6.38263">
        <ele>583.2</ele>
        <time>2021-12-15T13:08:25.000Z</time>
      </trkpt>
      <trkpt lat="43.60584" lon="6.38263">
        <ele>583.2</ele>
        <time>2021-12-15T13:08:26.000Z</time>
      </trkpt>
      <trkpt lat="43.60584" lon="6.38263">
        <ele>583.2</ele>
        <time>2021-12-15T13:08:29.000Z</time>
      </trkpt>
      <trkpt lat="43.60587" lon="6.38265">
        <ele>583.3</ele>
        <time>2021-12-15T13:08:35.000Z</time>
      </trkpt>
      <trkpt lat="43.60588" lon="6.38265">
        <ele>583.5</ele>
        <time>2021-12-15T13:08:56.000Z</time>
      </trkpt>
      <trkpt lat="43.60588" lon="6.38265">
        <ele>583.4</ele>
        <time>2021-12-15T13:08:57.000Z</time>
      </trkpt>
      <trkpt lat="43.60588" lon="6.38264">
        <ele>583.3</ele>
        <time>2021-12-15T13:08:59.000Z</time>
      </trkpt>
      <trkpt lat="43.60588" lon="6.38264">
        <ele>583.3</ele>
        <time>2021-12-15T13:09:00.000Z</time>
      </trkpt>
      <trkpt lat="43.60588" lon="6.38264">
        <ele>583.3</ele>
        <time>2021-12-15T13:09:08.000Z</time>
      </trkpt>
      <trkpt lat="43.60589" lon="6.38264">
        <ele>583.6</ele>
        <time>2021-12-15T13:09:12.000Z</time>
      </trkpt>
      <trkpt lat="43.60589" lon="6.38264">
        <ele>583.6</ele>
        <time>2021-12-15T13:09:13.000Z</time>
      </trkpt>
      <trkpt lat="43.60589" lon="6.38264">
        <ele>583.6</ele>
        <time>2021-12-15T13:09:14.000Z</time>
      </trkpt>
      <trkpt lat="43.60589" lon="6.38265">
        <ele>583.4</ele>
        <time>2021-12-15T13:09:18.000Z</time>
      </trkpt>
      <trkpt lat="43.60589" lon="6.38265">
        <ele>583.6</ele>
        <time>2021-12-15T13:09:19.000Z</time>
      </trkpt>
      <trkpt lat="43.60589" lon="6.38265">
        <ele>583.3</ele>
        <time>2021-12-15T13:09:25.000Z</time>
      </trkpt>
      <trkpt lat="43.6059" lon="6.38266">
        <ele>583.4</ele>
        <time>2021-12-15T13:09:30.000Z</time>
      </trkpt>
      <trkpt lat="43.6059" lon="6.38266">
        <ele>583.5</ele>
        <time>2021-12-15T13:09:31.000Z</time>
      </trkpt>
      <trkpt lat="43.60591" lon="6.38266">
        <ele>583.3</ele>
        <time>2021-12-15T13:09:33.000Z</time>
      </trkpt>
      <trkpt lat="43.60591" lon="6.38266">
        <ele>583.6</ele>
        <time>2021-12-15T13:09:43.000Z</time>
      </trkpt>
      <trkpt lat="43.6059" lon="6.38279">
        <ele>584.8</ele>
        <time>2021-12-15T13:10:12.000Z</time>
      </trkpt>
      <trkpt lat="43.60599" lon="6.38283">
        <ele>585.8</ele>
        <time>2021-12-15T13:10:25.000Z</time>
      </trkpt>
      <trkpt lat="43.60605" lon="6.38275">
        <ele>586.3</ele>
        <time>2021-12-15T13:10:34.000Z</time>
      </trkpt>
      <trkpt lat="43.60606" lon="6.38275">
        <ele>586.1</ele>
        <time>2021-12-15T13:10:35.000Z</time>
      </trkpt>
      <trkpt lat="43.60613" lon="6.38266">
        <ele>586.4</ele>
        <time>2021-12-15T13:10:45.000Z</time>
      </trkpt>
      <trkpt lat="43.6062" lon="6.38257">
        <ele>586.7</ele>
        <time>2021-12-15T13:10:52.000Z</time>
      </trkpt>
      <trkpt lat="43.60627" lon="6.38246">
        <ele>587.1</ele>
        <time>2021-12-15T13:11:01.000Z</time>
      </trkpt>
      <trkpt lat="43.60636" lon="6.38244">
        <ele>590</ele>
        <time>2021-12-15T13:11:26.000Z</time>
      </trkpt>
      <trkpt lat="43.60646" lon="6.38243">
        <ele>591.1</ele>
        <time>2021-12-15T13:11:35.000Z</time>
      </trkpt>
      <trkpt lat="43.6065" lon="6.38255">
        <ele>592</ele>
        <time>2021-12-15T13:11:44.000Z</time>
      </trkpt>
      <trkpt lat="43.60657" lon="6.38264">
        <ele>592.4</ele>
        <time>2021-12-15T13:11:56.000Z</time>
      </trkpt>
      <trkpt lat="43.60664" lon="6.38274">
        <ele>593.4</ele>
        <time>2021-12-15T13:12:07.000Z</time>
      </trkpt>
      <trkpt lat="43.60671" lon="6.38284">
        <ele>593.9</ele>
        <time>2021-12-15T13:12:13.000Z</time>
      </trkpt>
      <trkpt lat="43.60681" lon="6.38285">
        <ele>594.8</ele>
        <time>2021-12-15T13:12:22.000Z</time>
      </trkpt>
      <trkpt lat="43.60689" lon="6.38291">
        <ele>595.6</ele>
        <time>2021-12-15T13:12:30.000Z</time>
      </trkpt>
      <trkpt lat="43.60694" lon="6.38304">
        <ele>597</ele>
        <time>2021-12-15T13:12:40.000Z</time>
      </trkpt>
      <trkpt lat="43.60687" lon="6.38312">
        <ele>596.9</ele>
        <time>2021-12-15T13:12:52.000Z</time>
      </trkpt>
      <trkpt lat="43.60678" lon="6.38314">
        <ele>597.2</ele>
        <time>2021-12-15T13:13:01.000Z</time>
      </trkpt>
      <trkpt lat="43.60668" lon="6.38319">
        <ele>597.5</ele>
        <time>2021-12-15T13:13:07.000Z</time>
      </trkpt>
      <trkpt lat="43.60659" lon="6.38314">
        <ele>597.9</ele>
        <time>2021-12-15T13:13:12.000Z</time>
      </trkpt>
      <trkpt lat="43.60655" lon="6.38328">
        <ele>599</ele>
        <time>2021-12-15T13:13:26.000Z</time>
      </trkpt>
      <trkpt lat="43.60648" lon="6.38336">
        <ele>599.6</ele>
        <time>2021-12-15T13:13:34.000Z</time>
      </trkpt>
      <trkpt lat="43.60657" lon="6.38338">
        <ele>601.7</ele>
        <time>2021-12-15T13:13:51.000Z</time>
      </trkpt>
      <trkpt lat="43.60658" lon="6.38351">
        <ele>604.2</ele>
        <time>2021-12-15T13:14:03.000Z</time>
      </trkpt>
      <trkpt lat="43.60663" lon="6.38362">
        <ele>608.2</ele>
        <time>2021-12-15T13:14:22.000Z</time>
      </trkpt>
      <trkpt lat="43.60669" lon="6.38368">
        <ele>609.1</ele>
        <time>2021-12-15T13:14:36.000Z</time>
      </trkpt>
      <trkpt lat="43.6067" lon="6.38368">
        <ele>608.6</ele>
        <time>2021-12-15T13:14:42.000Z</time>
      </trkpt>
      <trkpt lat="43.6067" lon="6.38368">
        <ele>608.6</ele>
        <time>2021-12-15T13:14:44.000Z</time>
      </trkpt>
      <trkpt lat="43.6067" lon="6.38368">
        <ele>609.1</ele>
        <time>2021-12-15T13:14:47.000Z</time>
      </trkpt>
      <trkpt lat="43.6067" lon="6.38368">
        <ele>608.9</ele>
        <time>2021-12-15T13:14:48.000Z</time>
      </trkpt>
      <trkpt lat="43.60669" lon="6.38368">
        <ele>608.9</ele>
        <time>2021-12-15T13:14:49.000Z</time>
      </trkpt>
      <trkpt lat="43.60668" lon="6.38367">
        <ele>608.7</ele>
        <time>2021-12-15T13:14:57.000Z</time>
      </trkpt>
      <trkpt lat="43.60669" lon="6.38367">
        <ele>608.6</ele>
        <time>2021-12-15T13:15:03.000Z</time>
      </trkpt>
      <trkpt lat="43.60669" lon="6.38367">
        <ele>608.8</ele>
        <time>2021-12-15T13:15:06.000Z</time>
      </trkpt>
      <trkpt lat="43.60669" lon="6.38367">
        <ele>608.7</ele>
        <time>2021-12-15T13:15:09.000Z</time>
      </trkpt>
      <trkpt lat="43.6067" lon="6.38367">
        <ele>608.7</ele>
        <time>2021-12-15T13:15:11.000Z</time>
      </trkpt>
      <trkpt lat="43.6067" lon="6.38367">
        <ele>608.9</ele>
        <time>2021-12-15T13:15:12.000Z</time>
      </trkpt>
      <trkpt lat="43.6067" lon="6.38367">
        <ele>609.1</ele>
        <time>2021-12-15T13:15:14.000Z</time>
      </trkpt>
      <trkpt lat="43.6067" lon="6.38366">
        <ele>609</ele>
        <time>2021-12-15T13:15:17.000Z</time>
      </trkpt>
      <trkpt lat="43.60671" lon="6.38367">
        <ele>608.2</ele>
        <time>2021-12-15T13:15:21.000Z</time>
      </trkpt>
      <trkpt lat="43.60671" lon="6.38367">
        <ele>608.1</ele>
        <time>2021-12-15T13:15:22.000Z</time>
      </trkpt>
      <trkpt lat="43.60673" lon="6.3838">
        <ele>610.4</ele>
        <time>2021-12-15T13:15:35.000Z</time>
      </trkpt>
      <trkpt lat="43.60671" lon="6.38382">
        <ele>611.1</ele>
        <time>2021-12-15T13:15:51.000Z</time>
      </trkpt>
      <trkpt lat="43.60671" lon="6.38382">
        <ele>611.1</ele>
        <time>2021-12-15T13:15:52.000Z</time>
      </trkpt>
      <trkpt lat="43.60661" lon="6.3838">
        <ele>612</ele>
        <time>2021-12-15T13:16:08.000Z</time>
      </trkpt>
      <trkpt lat="43.60652" lon="6.3838">
        <ele>612.5</ele>
        <time>2021-12-15T13:16:17.000Z</time>
      </trkpt>
      <trkpt lat="43.60643" lon="6.38384">
        <ele>613.2</ele>
        <time>2021-12-15T13:16:26.000Z</time>
      </trkpt>
      <trkpt lat="43.60639" lon="6.3839">
        <ele>613.9</ele>
        <time>2021-12-15T13:16:37.000Z</time>
      </trkpt>
      <trkpt lat="43.6064" lon="6.38391">
        <ele>612.3</ele>
        <time>2021-12-15T13:16:42.000Z</time>
      </trkpt>
      <trkpt lat="43.60648" lon="6.38396">
        <ele>615.6</ele>
        <time>2021-12-15T13:17:00.000Z</time>
      </trkpt>
      <trkpt lat="43.60651" lon="6.38397">
        <ele>616.1</ele>
        <time>2021-12-15T13:17:05.000Z</time>
      </trkpt>
      <trkpt lat="43.60651" lon="6.38396">
        <ele>616.5</ele>
        <time>2021-12-15T13:17:06.000Z</time>
      </trkpt>
      <trkpt lat="43.6066" lon="6.38393">
        <ele>617.1</ele>
        <time>2021-12-15T13:17:21.000Z</time>
      </trkpt>
      <trkpt lat="43.60669" lon="6.38395">
        <ele>617.9</ele>
        <time>2021-12-15T13:17:35.000Z</time>
      </trkpt>
      <trkpt lat="43.60669" lon="6.38398">
        <ele>621.2</ele>
        <time>2021-12-15T13:18:12.000Z</time>
      </trkpt>
      <trkpt lat="43.60669" lon="6.38398">
        <ele>621.4</ele>
        <time>2021-12-15T13:18:14.000Z</time>
      </trkpt>
      <trkpt lat="43.60669" lon="6.38398">
        <ele>621.5</ele>
        <time>2021-12-15T13:18:15.000Z</time>
      </trkpt>
      <trkpt lat="43.60668" lon="6.38398">
        <ele>621.6</ele>
        <time>2021-12-15T13:18:23.000Z</time>
      </trkpt>
      <trkpt lat="43.60669" lon="6.38398">
        <ele>621.5</ele>
        <time>2021-12-15T13:18:25.000Z</time>
      </trkpt>
      <trkpt lat="43.60669" lon="6.38398">
        <ele>621.5</ele>
        <time>2021-12-15T13:18:26.000Z</time>
      </trkpt>
      <trkpt lat="43.60669" lon="6.38398">
        <ele>621.6</ele>
        <time>2021-12-15T13:18:27.000Z</time>
      </trkpt>
      <trkpt lat="43.60669" lon="6.38399">
        <ele>621.6</ele>
        <time>2021-12-15T13:18:29.000Z</time>
      </trkpt>
      <trkpt lat="43.60669" lon="6.38399">
        <ele>621.4</ele>
        <time>2021-12-15T13:18:30.000Z</time>
      </trkpt>
      <trkpt lat="43.60669" lon="6.38399">
        <ele>621.6</ele>
        <time>2021-12-15T13:18:37.000Z</time>
      </trkpt>
      <trkpt lat="43.60669" lon="6.38399">
        <ele>621.6</ele>
        <time>2021-12-15T13:18:38.000Z</time>
      </trkpt>
      <trkpt lat="43.60669" lon="6.38398">
        <ele>621.5</ele>
        <time>2021-12-15T13:18:42.000Z</time>
      </trkpt>
      <trkpt lat="43.60669" lon="6.38399">
        <ele>621.6</ele>
        <time>2021-12-15T13:18:45.000Z</time>
      </trkpt>
      <trkpt lat="43.60669" lon="6.38399">
        <ele>621.8</ele>
        <time>2021-12-15T13:18:50.000Z</time>
      </trkpt>
      <trkpt lat="43.60669" lon="6.38399">
        <ele>621.7</ele>
        <time>2021-12-15T13:18:51.000Z</time>
      </trkpt>
      <trkpt lat="43.60669" lon="6.38399">
        <ele>621.4</ele>
        <time>2021-12-15T13:18:54.000Z</time>
      </trkpt>
      <trkpt lat="43.60669" lon="6.38398">
        <ele>621.4</ele>
        <time>2021-12-15T13:18:56.000Z</time>
      </trkpt>
      <trkpt lat="43.60669" lon="6.38398">
        <ele>621.4</ele>
        <time>2021-12-15T13:19:07.000Z</time>
      </trkpt>
      <trkpt lat="43.60669" lon="6.38399">
        <ele>621.5</ele>
        <time>2021-12-15T13:19:08.000Z</time>
      </trkpt>
      <trkpt lat="43.60669" lon="6.38399">
        <ele>621.5</ele>
        <time>2021-12-15T13:19:09.000Z</time>
      </trkpt>
      <trkpt lat="43.60669" lon="6.38399">
        <ele>621.5</ele>
        <time>2021-12-15T13:19:10.000Z</time>
      </trkpt>
      <trkpt lat="43.60669" lon="6.38399">
        <ele>621.3</ele>
        <time>2021-12-15T13:19:13.000Z</time>
      </trkpt>
      <trkpt lat="43.60669" lon="6.38399">
        <ele>621.4</ele>
        <time>2021-12-15T13:19:14.000Z</time>
      </trkpt>
      <trkpt lat="43.60669" lon="6.38399">
        <ele>621.3</ele>
        <time>2021-12-15T13:19:25.000Z</time>
      </trkpt>
      <trkpt lat="43.6067" lon="6.38398">
        <ele>621.4</ele>
        <time>2021-12-15T13:19:29.000Z</time>
      </trkpt>
      <trkpt lat="43.6067" lon="6.38398">
        <ele>621.7</ele>
        <time>2021-12-15T13:19:39.000Z</time>
      </trkpt>
      <trkpt lat="43.6067" lon="6.38398">
        <ele>621.6</ele>
        <time>2021-12-15T13:19:40.000Z</time>
      </trkpt>
      <trkpt lat="43.6067" lon="6.38398">
        <ele>621.6</ele>
        <time>2021-12-15T13:19:41.000Z</time>
      </trkpt>
      <trkpt lat="43.6066" lon="6.38398">
        <ele>620.3</ele>
        <time>2021-12-15T13:19:58.000Z</time>
      </trkpt>
      <trkpt lat="43.60652" lon="6.38395">
        <ele>619.2</ele>
        <time>2021-12-15T13:20:09.000Z</time>
      </trkpt>
      <trkpt lat="43.60652" lon="6.38394">
        <ele>619.1</ele>
        <time>2021-12-15T13:20:10.000Z</time>
      </trkpt>
      <trkpt lat="43.60652" lon="6.38394">
        <ele>618.2</ele>
        <time>2021-12-15T13:20:15.000Z</time>
      </trkpt>
      <trkpt lat="43.60652" lon="6.38394">
        <ele>618.5</ele>
        <time>2021-12-15T13:20:16.000Z</time>
      </trkpt>
      <trkpt lat="43.60642" lon="6.38395">
        <ele>615.7</ele>
        <time>2021-12-15T13:20:33.000Z</time>
      </trkpt>
      <trkpt lat="43.60641" lon="6.38401">
        <ele>615.2</ele>
        <time>2021-12-15T13:20:42.000Z</time>
      </trkpt>
      <trkpt lat="43.60641" lon="6.38401">
        <ele>615.2</ele>
        <time>2021-12-15T13:20:43.000Z</time>
      </trkpt>
      <trkpt lat="43.60641" lon="6.38407">
        <ele>614</ele>
        <time>2021-12-15T13:21:02.000Z</time>
      </trkpt>
      <trkpt lat="43.60641" lon="6.38407">
        <ele>614</ele>
        <time>2021-12-15T13:21:03.000Z</time>
      </trkpt>
      <trkpt lat="43.60642" lon="6.38408">
        <ele>614</ele>
        <time>2021-12-15T13:21:10.000Z</time>
      </trkpt>
      <trkpt lat="43.60642" lon="6.38409">
        <ele>614</ele>
        <time>2021-12-15T13:21:14.000Z</time>
      </trkpt>
      <trkpt lat="43.60642" lon="6.38409">
        <ele>614</ele>
        <time>2021-12-15T13:21:15.000Z</time>
      </trkpt>
      <trkpt lat="43.60641" lon="6.3841">
        <ele>614.1</ele>
        <time>2021-12-15T13:21:19.000Z</time>
      </trkpt>
      <trkpt lat="43.60641" lon="6.38414">
        <ele>613.9</ele>
        <time>2021-12-15T13:21:30.000Z</time>
      </trkpt>
      <trkpt lat="43.60641" lon="6.38414">
        <ele>614</ele>
        <time>2021-12-15T13:21:34.000Z</time>
      </trkpt>
      <trkpt lat="43.60641" lon="6.38414">
        <ele>613.9</ele>
        <time>2021-12-15T13:21:35.000Z</time>
      </trkpt>
      <trkpt lat="43.60641" lon="6.38414">
        <ele>613.9</ele>
        <time>2021-12-15T13:21:36.000Z</time>
      </trkpt>
      <trkpt lat="43.60641" lon="6.38414">
        <ele>614.2</ele>
        <time>2021-12-15T13:21:39.000Z</time>
      </trkpt>
      <trkpt lat="43.60642" lon="6.38414">
        <ele>614.2</ele>
        <time>2021-12-15T13:21:40.000Z</time>
      </trkpt>
      <trkpt lat="43.60642" lon="6.38415">
        <ele>614.1</ele>
        <time>2021-12-15T13:21:41.000Z</time>
      </trkpt>
      <trkpt lat="43.60642" lon="6.38414">
        <ele>614</ele>
        <time>2021-12-15T13:21:45.000Z</time>
      </trkpt>
      <trkpt lat="43.6064" lon="6.38419">
        <ele>614.2</ele>
        <time>2021-12-15T13:21:54.000Z</time>
      </trkpt>
      <trkpt lat="43.6064" lon="6.38419">
        <ele>614.2</ele>
        <time>2021-12-15T13:21:56.000Z</time>
      </trkpt>
      <trkpt lat="43.60637" lon="6.38407">
        <ele>614.5</ele>
        <time>2021-12-15T13:22:23.000Z</time>
      </trkpt>
      <trkpt lat="43.60638" lon="6.38394">
        <ele>614</ele>
        <time>2021-12-15T13:22:39.000Z</time>
      </trkpt>
      <trkpt lat="43.60646" lon="6.38387">
        <ele>613</ele>
        <time>2021-12-15T13:22:56.000Z</time>
      </trkpt>
      <trkpt lat="43.60656" lon="6.38386">
        <ele>612.2</ele>
        <time>2021-12-15T13:23:09.000Z</time>
      </trkpt>
      <trkpt lat="43.60665" lon="6.3838">
        <ele>611.2</ele>
        <time>2021-12-15T13:23:20.000Z</time>
      </trkpt>
      <trkpt lat="43.60668" lon="6.38369">
        <ele>610.6</ele>
        <time>2021-12-15T13:23:31.000Z</time>
      </trkpt>
      <trkpt lat="43.60668" lon="6.3836">
        <ele>609.1</ele>
        <time>2021-12-15T13:23:46.000Z</time>
      </trkpt>
      <trkpt lat="43.60668" lon="6.3836">
        <ele>609.4</ele>
        <time>2021-12-15T13:23:54.000Z</time>
      </trkpt>
      <trkpt lat="43.60668" lon="6.3836">
        <ele>609.2</ele>
        <time>2021-12-15T13:23:55.000Z</time>
      </trkpt>
      <trkpt lat="43.60668" lon="6.3836">
        <ele>609.4</ele>
        <time>2021-12-15T13:24:02.000Z</time>
      </trkpt>
      <trkpt lat="43.60668" lon="6.3836">
        <ele>609.4</ele>
        <time>2021-12-15T13:24:03.000Z</time>
      </trkpt>
      <trkpt lat="43.60668" lon="6.3836">
        <ele>609.4</ele>
        <time>2021-12-15T13:24:06.000Z</time>
      </trkpt>
      <trkpt lat="43.60668" lon="6.38359">
        <ele>609.3</ele>
        <time>2021-12-15T13:24:08.000Z</time>
      </trkpt>
      <trkpt lat="43.60669" lon="6.38359">
        <ele>609.1</ele>
        <time>2021-12-15T13:24:10.000Z</time>
      </trkpt>
      <trkpt lat="43.60669" lon="6.38359">
        <ele>609.4</ele>
        <time>2021-12-15T13:24:12.000Z</time>
      </trkpt>
      <trkpt lat="43.60669" lon="6.38359">
        <ele>608.9</ele>
        <time>2021-12-15T13:24:21.000Z</time>
      </trkpt>
      <trkpt lat="43.60669" lon="6.38359">
        <ele>608.8</ele>
        <time>2021-12-15T13:24:22.000Z</time>
      </trkpt>
      <trkpt lat="43.60669" lon="6.38359">
        <ele>608.8</ele>
        <time>2021-12-15T13:24:23.000Z</time>
      </trkpt>
      <trkpt lat="43.60669" lon="6.38359">
        <ele>608.8</ele>
        <time>2021-12-15T13:24:24.000Z</time>
      </trkpt>
      <trkpt lat="43.60668" lon="6.38359">
        <ele>608.8</ele>
        <time>2021-12-15T13:24:56.000Z</time>
      </trkpt>
      <trkpt lat="43.60668" lon="6.38359">
        <ele>608.8</ele>
        <time>2021-12-15T13:24:58.000Z</time>
      </trkpt>
      <trkpt lat="43.60668" lon="6.3836">
        <ele>608.5</ele>
        <time>2021-12-15T13:25:05.000Z</time>
      </trkpt>
      <trkpt lat="43.60668" lon="6.3836">
        <ele>608.7</ele>
        <time>2021-12-15T13:25:08.000Z</time>
      </trkpt>
      <trkpt lat="43.60668" lon="6.38361">
        <ele>608.6</ele>
        <time>2021-12-15T13:25:13.000Z</time>
      </trkpt>
      <trkpt lat="43.60668" lon="6.38361">
        <ele>608.6</ele>
        <time>2021-12-15T13:25:14.000Z</time>
      </trkpt>
      <trkpt lat="43.60668" lon="6.38361">
        <ele>608.6</ele>
        <time>2021-12-15T13:25:15.000Z</time>
      </trkpt>
      <trkpt lat="43.60668" lon="6.38361">
        <ele>608.5</ele>
        <time>2021-12-15T13:25:17.000Z</time>
      </trkpt>
      <trkpt lat="43.60668" lon="6.38361">
        <ele>608.7</ele>
        <time>2021-12-15T13:25:22.000Z</time>
      </trkpt>
      <trkpt lat="43.60668" lon="6.38361">
        <ele>608.6</ele>
        <time>2021-12-15T13:25:23.000Z</time>
      </trkpt>
      <trkpt lat="43.60667" lon="6.38361">
        <ele>608.5</ele>
        <time>2021-12-15T13:25:45.000Z</time>
      </trkpt>
      <trkpt lat="43.60667" lon="6.38361">
        <ele>608.6</ele>
        <time>2021-12-15T13:25:46.000Z</time>
      </trkpt>
      <trkpt lat="43.60667" lon="6.38361">
        <ele>608.6</ele>
        <time>2021-12-15T13:25:53.000Z</time>
      </trkpt>
      <trkpt lat="43.60673" lon="6.3835">
        <ele>608.1</ele>
        <time>2021-12-15T13:26:06.000Z</time>
      </trkpt>
      <trkpt lat="43.60683" lon="6.38349">
        <ele>606.9</ele>
        <time>2021-12-15T13:26:14.000Z</time>
      </trkpt>
      <trkpt lat="43.60679" lon="6.38337">
        <ele>603.5</ele>
        <time>2021-12-15T13:26:37.000Z</time>
      </trkpt>
      <trkpt lat="43.6067" lon="6.38336">
        <ele>603</ele>
        <time>2021-12-15T13:26:44.000Z</time>
      </trkpt>
      <trkpt lat="43.60661" lon="6.38332">
        <ele>601.2</ele>
        <time>2021-12-15T13:26:57.000Z</time>
      </trkpt>
      <trkpt lat="43.60653" lon="6.38327">
        <ele>599.9</ele>
        <time>2021-12-15T13:27:06.000Z</time>
      </trkpt>
      <trkpt lat="43.60653" lon="6.38325">
        <ele>599.4</ele>
        <time>2021-12-15T13:27:10.000Z</time>
      </trkpt>
      <trkpt lat="43.60654" lon="6.38324">
        <ele>599.4</ele>
        <time>2021-12-15T13:27:11.000Z</time>
      </trkpt>
      <trkpt lat="43.60663" lon="6.38316">
        <ele>598.6</ele>
        <time>2021-12-15T13:27:16.000Z</time>
      </trkpt>
      <trkpt lat="43.60673" lon="6.38318">
        <ele>598.3</ele>
        <time>2021-12-15T13:27:21.000Z</time>
      </trkpt>
      <trkpt lat="43.60682" lon="6.38318">
        <ele>597.6</ele>
        <time>2021-12-15T13:27:34.000Z</time>
      </trkpt>
      <trkpt lat="43.6069" lon="6.38326">
        <ele>597.6</ele>
        <time>2021-12-15T13:27:44.000Z</time>
      </trkpt>
      <trkpt lat="43.60695" lon="6.38316">
        <ele>597.6</ele>
        <time>2021-12-15T13:28:10.000Z</time>
      </trkpt>
      <trkpt lat="43.60705" lon="6.38319">
        <ele>597.8</ele>
        <time>2021-12-15T13:28:24.000Z</time>
      </trkpt>
      <trkpt lat="43.60708" lon="6.38332">
        <ele>597.5</ele>
        <time>2021-12-15T13:28:31.000Z</time>
      </trkpt>
      <trkpt lat="43.60712" lon="6.38343">
        <ele>596.7</ele>
        <time>2021-12-15T13:28:39.000Z</time>
      </trkpt>
      <trkpt lat="43.60714" lon="6.38355">
        <ele>596.2</ele>
        <time>2021-12-15T13:28:48.000Z</time>
      </trkpt>
      <trkpt lat="43.60722" lon="6.38363">
        <ele>594.2</ele>
        <time>2021-12-15T13:29:00.000Z</time>
      </trkpt>
      <trkpt lat="43.6073" lon="6.38363">
        <ele>593.6</ele>
        <time>2021-12-15T13:29:12.000Z</time>
      </trkpt>
      <trkpt lat="43.6073" lon="6.38362">
        <ele>593.7</ele>
        <time>2021-12-15T13:29:15.000Z</time>
      </trkpt>
      <trkpt lat="43.60731" lon="6.38358">
        <ele>593.5</ele>
        <time>2021-12-15T13:29:25.000Z</time>
      </trkpt>
      <trkpt lat="43.60732" lon="6.38358">
        <ele>593.5</ele>
        <time>2021-12-15T13:29:35.000Z</time>
      </trkpt>
      <trkpt lat="43.60732" lon="6.38357">
        <ele>593.7</ele>
        <time>2021-12-15T13:29:40.000Z</time>
      </trkpt>
      <trkpt lat="43.60732" lon="6.38357">
        <ele>593.7</ele>
        <time>2021-12-15T13:29:41.000Z</time>
      </trkpt>
      <trkpt lat="43.60732" lon="6.38357">
        <ele>593.6</ele>
        <time>2021-12-15T13:29:42.000Z</time>
      </trkpt>
      <trkpt lat="43.60732" lon="6.38356">
        <ele>593.6</ele>
        <time>2021-12-15T13:29:53.000Z</time>
      </trkpt>
      <trkpt lat="43.60732" lon="6.38355">
        <ele>593.6</ele>
        <time>2021-12-15T13:29:56.000Z</time>
      </trkpt>
      <trkpt lat="43.60732" lon="6.38355">
        <ele>593.5</ele>
        <time>2021-12-15T13:29:57.000Z</time>
      </trkpt>
      <trkpt lat="43.60732" lon="6.38355">
        <ele>593.6</ele>
        <time>2021-12-15T13:30:01.000Z</time>
      </trkpt>
      <trkpt lat="43.60732" lon="6.38354">
        <ele>593.4</ele>
        <time>2021-12-15T13:30:05.000Z</time>
      </trkpt>
      <trkpt lat="43.60733" lon="6.38356">
        <ele>593.4</ele>
        <time>2021-12-15T13:30:10.000Z</time>
      </trkpt>
      <trkpt lat="43.60733" lon="6.38356">
        <ele>593.7</ele>
        <time>2021-12-15T13:30:31.000Z</time>
      </trkpt>
      <trkpt lat="43.60742" lon="6.38357">
        <ele>591.8</ele>
        <time>2021-12-15T13:30:52.000Z</time>
      </trkpt>
      <trkpt lat="43.6075" lon="6.38362">
        <ele>590.2</ele>
        <time>2021-12-15T13:31:02.000Z</time>
      </trkpt>
      <trkpt lat="43.60759" lon="6.38363">
        <ele>589</ele>
        <time>2021-12-15T13:31:09.000Z</time>
      </trkpt>
      <trkpt lat="43.60769" lon="6.38362">
        <ele>588</ele>
        <time>2021-12-15T13:31:16.000Z</time>
      </trkpt>
      <trkpt lat="43.60778" lon="6.38363">
        <ele>587.2</ele>
        <time>2021-12-15T13:31:24.000Z</time>
      </trkpt>
      <trkpt lat="43.60782" lon="6.38361">
        <ele>586.1</ele>
        <time>2021-12-15T13:31:30.000Z</time>
      </trkpt>
      <trkpt lat="43.60783" lon="6.38361">
        <ele>586.1</ele>
        <time>2021-12-15T13:31:31.000Z</time>
      </trkpt>
      <trkpt lat="43.60792" lon="6.38358">
        <ele>584.9</ele>
        <time>2021-12-15T13:31:39.000Z</time>
      </trkpt>
      <trkpt lat="43.60802" lon="6.38359">
        <ele>583.8</ele>
        <time>2021-12-15T13:31:49.000Z</time>
      </trkpt>
      <trkpt lat="43.60811" lon="6.38359">
        <ele>582.8</ele>
        <time>2021-12-15T13:31:59.000Z</time>
      </trkpt>
      <trkpt lat="43.6082" lon="6.38359">
        <ele>581.8</ele>
        <time>2021-12-15T13:32:07.000Z</time>
      </trkpt>
      <trkpt lat="43.60829" lon="6.38358">
        <ele>580.6</ele>
        <time>2021-12-15T13:32:16.000Z</time>
      </trkpt>
      <trkpt lat="43.60839" lon="6.38358">
        <ele>580</ele>
        <time>2021-12-15T13:32:24.000Z</time>
      </trkpt>
      <trkpt lat="43.60848" lon="6.38359">
        <ele>579.4</ele>
        <time>2021-12-15T13:32:33.000Z</time>
      </trkpt>
      <trkpt lat="43.60858" lon="6.38358">
        <ele>578.3</ele>
        <time>2021-12-15T13:32:40.000Z</time>
      </trkpt>
      <trkpt lat="43.60867" lon="6.38359">
        <ele>577.9</ele>
        <time>2021-12-15T13:32:48.000Z</time>
      </trkpt>
      <trkpt lat="43.60876" lon="6.38359">
        <ele>576.5</ele>
        <time>2021-12-15T13:32:56.000Z</time>
      </trkpt>
      <trkpt lat="43.60886" lon="6.3836">
        <ele>575.5</ele>
        <time>2021-12-15T13:33:05.000Z</time>
      </trkpt>
      <trkpt lat="43.60896" lon="6.38362">
        <ele>574.1</ele>
        <time>2021-12-15T13:33:15.000Z</time>
      </trkpt>
      <trkpt lat="43.60905" lon="6.38363">
        <ele>573.2</ele>
        <time>2021-12-15T13:33:25.000Z</time>
      </trkpt>
      <trkpt lat="43.60914" lon="6.38365">
        <ele>572.2</ele>
        <time>2021-12-15T13:33:33.000Z</time>
      </trkpt>
      <trkpt lat="43.60924" lon="6.38363">
        <ele>571.5</ele>
        <time>2021-12-15T13:33:42.000Z</time>
      </trkpt>
      <trkpt lat="43.60932" lon="6.38359">
        <ele>570.9</ele>
        <time>2021-12-15T13:33:51.000Z</time>
      </trkpt>
      <trkpt lat="43.60942" lon="6.38357">
        <ele>570.1</ele>
        <time>2021-12-15T13:34:01.000Z</time>
      </trkpt>
      <trkpt lat="43.60951" lon="6.38356">
        <ele>569.5</ele>
        <time>2021-12-15T13:34:11.000Z</time>
      </trkpt>
      <trkpt lat="43.60961" lon="6.38357">
        <ele>568.9</ele>
        <time>2021-12-15T13:34:20.000Z</time>
      </trkpt>
      <trkpt lat="43.60963" lon="6.38358">
        <ele>568.2</ele>
        <time>2021-12-15T13:34:29.000Z</time>
      </trkpt>
      <trkpt lat="43.60963" lon="6.38359">
        <ele>568</ele>
        <time>2021-12-15T13:34:35.000Z</time>
      </trkpt>
      <trkpt lat="43.60963" lon="6.38359">
        <ele>568.1</ele>
        <time>2021-12-15T13:34:37.000Z</time>
      </trkpt>
      <trkpt lat="43.60963" lon="6.38359">
        <ele>568.1</ele>
        <time>2021-12-15T13:34:39.000Z</time>
      </trkpt>
      <trkpt lat="43.60963" lon="6.3836">
        <ele>568</ele>
        <time>2021-12-15T13:34:43.000Z</time>
      </trkpt>
      <trkpt lat="43.60962" lon="6.3836">
        <ele>567.9</ele>
        <time>2021-12-15T13:34:47.000Z</time>
      </trkpt>
      <trkpt lat="43.60962" lon="6.3836">
        <ele>567.9</ele>
        <time>2021-12-15T13:34:49.000Z</time>
      </trkpt>
      <trkpt lat="43.60962" lon="6.3836">
        <ele>568</ele>
        <time>2021-12-15T13:34:50.000Z</time>
      </trkpt>
      <trkpt lat="43.60971" lon="6.38359">
        <ele>567</ele>
        <time>2021-12-15T13:35:02.000Z</time>
      </trkpt>
      <trkpt lat="43.60981" lon="6.38361">
        <ele>566.1</ele>
        <time>2021-12-15T13:35:12.000Z</time>
      </trkpt>
      <trkpt lat="43.60991" lon="6.38362">
        <ele>565.3</ele>
        <time>2021-12-15T13:35:20.000Z</time>
      </trkpt>
      <trkpt lat="43.61" lon="6.38366">
        <ele>564.7</ele>
        <time>2021-12-15T13:35:28.000Z</time>
      </trkpt>
      <trkpt lat="43.61009" lon="6.38365">
        <ele>563.7</ele>
        <time>2021-12-15T13:35:37.000Z</time>
      </trkpt>
      <trkpt lat="43.61018" lon="6.38367">
        <ele>562.5</ele>
        <time>2021-12-15T13:35:45.000Z</time>
      </trkpt>
      <trkpt lat="43.61027" lon="6.38366">
        <ele>561.5</ele>
        <time>2021-12-15T13:35:54.000Z</time>
      </trkpt>
      <trkpt lat="43.61036" lon="6.38362">
        <ele>559.8</ele>
        <time>2021-12-15T13:36:03.000Z</time>
      </trkpt>
      <trkpt lat="43.61044" lon="6.38362">
        <ele>558</ele>
        <time>2021-12-15T13:36:14.000Z</time>
      </trkpt>
      <trkpt lat="43.61045" lon="6.38363">
        <ele>558</ele>
        <time>2021-12-15T13:36:15.000Z</time>
      </trkpt>
      <trkpt lat="43.61045" lon="6.38363">
        <ele>558.1</ele>
        <time>2021-12-15T13:36:17.000Z</time>
      </trkpt>
      <trkpt lat="43.61044" lon="6.38362">
        <ele>558.1</ele>
        <time>2021-12-15T13:36:19.000Z</time>
      </trkpt>
      <trkpt lat="43.61044" lon="6.38362">
        <ele>558.2</ele>
        <time>2021-12-15T13:36:21.000Z</time>
      </trkpt>
      <trkpt lat="43.61044" lon="6.38362">
        <ele>558</ele>
        <time>2021-12-15T13:36:22.000Z</time>
      </trkpt>
      <trkpt lat="43.61044" lon="6.38362">
        <ele>558.1</ele>
        <time>2021-12-15T13:36:24.000Z</time>
      </trkpt>
      <trkpt lat="43.61044" lon="6.38362">
        <ele>558.4</ele>
        <time>2021-12-15T13:36:32.000Z</time>
      </trkpt>
      <trkpt lat="43.61053" lon="6.38357">
        <ele>559.1</ele>
        <time>2021-12-15T13:36:40.000Z</time>
      </trkpt>
      <trkpt lat="43.61061" lon="6.38352">
        <ele>558.2</ele>
        <time>2021-12-15T13:36:47.000Z</time>
      </trkpt>
      <trkpt lat="43.61071" lon="6.38347">
        <ele>557.7</ele>
        <time>2021-12-15T13:36:56.000Z</time>
      </trkpt>
      <trkpt lat="43.61079" lon="6.38341">
        <ele>557.2</ele>
        <time>2021-12-15T13:37:04.000Z</time>
      </trkpt>
      <trkpt lat="43.61088" lon="6.38335">
        <ele>556.7</ele>
        <time>2021-12-15T13:37:11.000Z</time>
      </trkpt>
      <trkpt lat="43.61097" lon="6.38329">
        <ele>556.3</ele>
        <time>2021-12-15T13:37:18.000Z</time>
      </trkpt>
      <trkpt lat="43.61105" lon="6.38323">
        <ele>556.1</ele>
        <time>2021-12-15T13:37:26.000Z</time>
      </trkpt>
      <trkpt lat="43.61114" lon="6.38322">
        <ele>555.7</ele>
        <time>2021-12-15T13:37:35.000Z</time>
      </trkpt>
      <trkpt lat="43.61123" lon="6.38325">
        <ele>555.5</ele>
        <time>2021-12-15T13:37:44.000Z</time>
      </trkpt>
      <trkpt lat="43.61132" lon="6.38328">
        <ele>555.1</ele>
        <time>2021-12-15T13:37:54.000Z</time>
      </trkpt>
      <trkpt lat="43.61142" lon="6.38332">
        <ele>554.5</ele>
        <time>2021-12-15T13:38:03.000Z</time>
      </trkpt>
      <trkpt lat="43.6115" lon="6.38339">
        <ele>554.3</ele>
        <time>2021-12-15T13:38:13.000Z</time>
      </trkpt>
      <trkpt lat="43.61155" lon="6.3835">
        <ele>553.7</ele>
        <time>2021-12-15T13:38:21.000Z</time>
      </trkpt>
      <trkpt lat="43.6116" lon="6.38362">
        <ele>552.9</ele>
        <time>2021-12-15T13:38:30.000Z</time>
      </trkpt>
      <trkpt lat="43.61164" lon="6.38374">
        <ele>552.4</ele>
        <time>2021-12-15T13:38:38.000Z</time>
      </trkpt>
      <trkpt lat="43.61169" lon="6.38386">
        <ele>552</ele>
        <time>2021-12-15T13:38:46.000Z</time>
      </trkpt>
      <trkpt lat="43.61174" lon="6.38398">
        <ele>551.7</ele>
        <time>2021-12-15T13:38:54.000Z</time>
      </trkpt>
      <trkpt lat="43.61178" lon="6.38411">
        <ele>552</ele>
        <time>2021-12-15T13:39:02.000Z</time>
      </trkpt>
      <trkpt lat="43.6118" lon="6.38423">
        <ele>551.9</ele>
        <time>2021-12-15T13:39:10.000Z</time>
      </trkpt>
      <trkpt lat="43.61182" lon="6.38437">
        <ele>551.8</ele>
        <time>2021-12-15T13:39:18.000Z</time>
      </trkpt>
      <trkpt lat="43.61184" lon="6.3845">
        <ele>552.1</ele>
        <time>2021-12-15T13:39:26.000Z</time>
      </trkpt>
      <trkpt lat="43.61186" lon="6.38463">
        <ele>552</ele>
        <time>2021-12-15T13:39:37.000Z</time>
      </trkpt>
      <trkpt lat="43.61188" lon="6.38476">
        <ele>551.6</ele>
        <time>2021-12-15T13:39:45.000Z</time>
      </trkpt>
      <trkpt lat="43.61188" lon="6.3849">
        <ele>551.4</ele>
        <time>2021-12-15T13:39:53.000Z</time>
      </trkpt>
      <trkpt lat="43.61188" lon="6.38503">
        <ele>551.1</ele>
        <time>2021-12-15T13:40:00.000Z</time>
      </trkpt>
      <trkpt lat="43.61191" lon="6.38515">
        <ele>551.2</ele>
        <time>2021-12-15T13:40:10.000Z</time>
      </trkpt>
      <trkpt lat="43.61197" lon="6.38525">
        <ele>552.6</ele>
        <time>2021-12-15T13:40:20.000Z</time>
      </trkpt>
      <trkpt lat="43.61205" lon="6.38533">
        <ele>553.4</ele>
        <time>2021-12-15T13:40:28.000Z</time>
      </trkpt>
      <trkpt lat="43.61214" lon="6.38536">
        <ele>554.2</ele>
        <time>2021-12-15T13:40:37.000Z</time>
      </trkpt>
      <trkpt lat="43.61223" lon="6.3854">
        <ele>555.4</ele>
        <time>2021-12-15T13:40:46.000Z</time>
      </trkpt>
      <trkpt lat="43.61232" lon="6.38543">
        <ele>557.3</ele>
        <time>2021-12-15T13:40:56.000Z</time>
      </trkpt>
      <trkpt lat="43.6124" lon="6.38549">
        <ele>558.7</ele>
        <time>2021-12-15T13:41:06.000Z</time>
      </trkpt>
      <trkpt lat="43.61249" lon="6.38553">
        <ele>560.7</ele>
        <time>2021-12-15T13:41:17.000Z</time>
      </trkpt>
      <trkpt lat="43.61258" lon="6.38554">
        <ele>562.6</ele>
        <time>2021-12-15T13:41:27.000Z</time>
      </trkpt>
      <trkpt lat="43.61266" lon="6.38559">
        <ele>564</ele>
        <time>2021-12-15T13:41:37.000Z</time>
      </trkpt>
      <trkpt lat="43.61275" lon="6.38564">
        <ele>565.5</ele>
        <time>2021-12-15T13:41:47.000Z</time>
      </trkpt>
      <trkpt lat="43.61285" lon="6.38566">
        <ele>567.7</ele>
        <time>2021-12-15T13:41:59.000Z</time>
      </trkpt>
      <trkpt lat="43.61293" lon="6.38572">
        <ele>568.7</ele>
        <time>2021-12-15T13:42:09.000Z</time>
      </trkpt>
      <trkpt lat="43.61303" lon="6.38575">
        <ele>570.3</ele>
        <time>2021-12-15T13:42:18.000Z</time>
      </trkpt>
      <trkpt lat="43.61312" lon="6.38579">
        <ele>571.2</ele>
        <time>2021-12-15T13:42:27.000Z</time>
      </trkpt>
      <trkpt lat="43.61321" lon="6.38584">
        <ele>572.2</ele>
        <time>2021-12-15T13:42:36.000Z</time>
      </trkpt>
      <trkpt lat="43.6133" lon="6.38589">
        <ele>573.3</ele>
        <time>2021-12-15T13:42:46.000Z</time>
      </trkpt>
      <trkpt lat="43.61339" lon="6.38594">
        <ele>573.9</ele>
        <time>2021-12-15T13:42:54.000Z</time>
      </trkpt>
      <trkpt lat="43.61348" lon="6.38597">
        <ele>574.9</ele>
        <time>2021-12-15T13:43:03.000Z</time>
      </trkpt>
      <trkpt lat="43.61357" lon="6.38603">
        <ele>575.8</ele>
        <time>2021-12-15T13:43:12.000Z</time>
      </trkpt>
      <trkpt lat="43.61365" lon="6.38608">
        <ele>576.5</ele>
        <time>2021-12-15T13:43:21.000Z</time>
      </trkpt>
      <trkpt lat="43.61373" lon="6.38615">
        <ele>577.2</ele>
        <time>2021-12-15T13:43:29.000Z</time>
      </trkpt>
      <trkpt lat="43.61382" lon="6.3862">
        <ele>578</ele>
        <time>2021-12-15T13:43:37.000Z</time>
      </trkpt>
      <trkpt lat="43.6139" lon="6.38626">
        <ele>578.7</ele>
        <time>2021-12-15T13:43:46.000Z</time>
      </trkpt>
      <trkpt lat="43.61398" lon="6.38632">
        <ele>579.6</ele>
        <time>2021-12-15T13:43:55.000Z</time>
      </trkpt>
      <trkpt lat="43.61407" lon="6.38636">
        <ele>579.9</ele>
        <time>2021-12-15T13:44:04.000Z</time>
      </trkpt>
      <trkpt lat="43.61416" lon="6.3864">
        <ele>580.8</ele>
        <time>2021-12-15T13:44:12.000Z</time>
      </trkpt>
      <trkpt lat="43.61425" lon="6.38645">
        <ele>581.2</ele>
        <time>2021-12-15T13:44:20.000Z</time>
      </trkpt>
      <trkpt lat="43.61434" lon="6.38647">
        <ele>582.1</ele>
        <time>2021-12-15T13:44:29.000Z</time>
      </trkpt>
      <trkpt lat="43.61444" lon="6.38649">
        <ele>583</ele>
        <time>2021-12-15T13:44:38.000Z</time>
      </trkpt>
      <trkpt lat="43.61453" lon="6.38652">
        <ele>583.9</ele>
        <time>2021-12-15T13:44:47.000Z</time>
      </trkpt>
      <trkpt lat="43.61463" lon="6.38655">
        <ele>584.5</ele>
        <time>2021-12-15T13:44:56.000Z</time>
      </trkpt>
      <trkpt lat="43.61473" lon="6.38657">
        <ele>585.7</ele>
        <time>2021-12-15T13:45:05.000Z</time>
      </trkpt>
      <trkpt lat="43.61483" lon="6.38658">
        <ele>586.5</ele>
        <time>2021-12-15T13:45:14.000Z</time>
      </trkpt>
      <trkpt lat="43.61492" lon="6.38658">
        <ele>587.5</ele>
        <time>2021-12-15T13:45:23.000Z</time>
      </trkpt>
      <trkpt lat="43.61502" lon="6.38659">
        <ele>588.7</ele>
        <time>2021-12-15T13:45:32.000Z</time>
      </trkpt>
      <trkpt lat="43.61511" lon="6.38661">
        <ele>589.9</ele>
        <time>2021-12-15T13:45:41.000Z</time>
      </trkpt>
      <trkpt lat="43.6152" lon="6.38661">
        <ele>591</ele>
        <time>2021-12-15T13:45:51.000Z</time>
      </trkpt>
      <trkpt lat="43.61529" lon="6.38657">
        <ele>592.7</ele>
        <time>2021-12-15T13:46:00.000Z</time>
      </trkpt>
      <trkpt lat="43.61538" lon="6.38656">
        <ele>593.6</ele>
        <time>2021-12-15T13:46:10.000Z</time>
      </trkpt>
      <trkpt lat="43.61548" lon="6.38654">
        <ele>595.3</ele>
        <time>2021-12-15T13:46:20.000Z</time>
      </trkpt>
      <trkpt lat="43.61557" lon="6.38654">
        <ele>597</ele>
        <time>2021-12-15T13:46:31.000Z</time>
      </trkpt>
      <trkpt lat="43.61566" lon="6.38653">
        <ele>598.5</ele>
        <time>2021-12-15T13:46:41.000Z</time>
      </trkpt>
      <trkpt lat="43.61576" lon="6.38652">
        <ele>600.2</ele>
        <time>2021-12-15T13:46:55.000Z</time>
      </trkpt>
      <trkpt lat="43.61576" lon="6.38653">
        <ele>600.9</ele>
        <time>2021-12-15T13:46:58.000Z</time>
      </trkpt>
      <trkpt lat="43.61577" lon="6.38653">
        <ele>601.2</ele>
        <time>2021-12-15T13:46:59.000Z</time>
      </trkpt>
      <trkpt lat="43.61586" lon="6.38656">
        <ele>602.5</ele>
        <time>2021-12-15T13:47:10.000Z</time>
      </trkpt>
      <trkpt lat="43.61595" lon="6.38658">
        <ele>603.7</ele>
        <time>2021-12-15T13:47:21.000Z</time>
      </trkpt>
      <trkpt lat="43.61604" lon="6.3866">
        <ele>605.3</ele>
        <time>2021-12-15T13:47:33.000Z</time>
      </trkpt>
      <trkpt lat="43.61613" lon="6.38664">
        <ele>605.8</ele>
        <time>2021-12-15T13:47:44.000Z</time>
      </trkpt>
      <trkpt lat="43.61622" lon="6.38668">
        <ele>606.6</ele>
        <time>2021-12-15T13:47:54.000Z</time>
      </trkpt>
      <trkpt lat="43.61631" lon="6.38673">
        <ele>607.8</ele>
        <time>2021-12-15T13:48:04.000Z</time>
      </trkpt>
      <trkpt lat="43.61639" lon="6.38681">
        <ele>608.8</ele>
        <time>2021-12-15T13:48:14.000Z</time>
      </trkpt>
      <trkpt lat="43.61646" lon="6.38691">
        <ele>609.9</ele>
        <time>2021-12-15T13:48:23.000Z</time>
      </trkpt>
      <trkpt lat="43.61648" lon="6.38694">
        <ele>610.3</ele>
        <time>2021-12-15T13:48:28.000Z</time>
      </trkpt>
      <trkpt lat="43.61648" lon="6.38694">
        <ele>610.3</ele>
        <time>2021-12-15T13:48:29.000Z</time>
      </trkpt>
      <trkpt lat="43.61655" lon="6.38705">
        <ele>611.2</ele>
        <time>2021-12-15T13:48:38.000Z</time>
      </trkpt>
      <trkpt lat="43.61662" lon="6.38713">
        <ele>611.8</ele>
        <time>2021-12-15T13:48:47.000Z</time>
      </trkpt>
      <trkpt lat="43.61671" lon="6.3872">
        <ele>612.9</ele>
        <time>2021-12-15T13:48:57.000Z</time>
      </trkpt>
      <trkpt lat="43.61679" lon="6.38724">
        <ele>614</ele>
        <time>2021-12-15T13:49:07.000Z</time>
      </trkpt>
      <trkpt lat="43.61689" lon="6.38725">
        <ele>614.6</ele>
        <time>2021-12-15T13:49:16.000Z</time>
      </trkpt>
      <trkpt lat="43.61698" lon="6.38724">
        <ele>616</ele>
        <time>2021-12-15T13:49:25.000Z</time>
      </trkpt>
      <trkpt lat="43.61708" lon="6.38725">
        <ele>617.2</ele>
        <time>2021-12-15T13:49:36.000Z</time>
      </trkpt>
      <trkpt lat="43.61715" lon="6.38733">
        <ele>618.6</ele>
        <time>2021-12-15T13:49:46.000Z</time>
      </trkpt>
      <trkpt lat="43.61717" lon="6.38746">
        <ele>620.6</ele>
        <time>2021-12-15T13:49:59.000Z</time>
      </trkpt>
      <trkpt lat="43.61725" lon="6.38752">
        <ele>622</ele>
        <time>2021-12-15T13:50:12.000Z</time>
      </trkpt>
      <trkpt lat="43.61725" lon="6.38752">
        <ele>622.1</ele>
        <time>2021-12-15T13:50:13.000Z</time>
      </trkpt>
      <trkpt lat="43.61725" lon="6.38752">
        <ele>621.9</ele>
        <time>2021-12-15T13:50:15.000Z</time>
      </trkpt>
      <trkpt lat="43.61725" lon="6.38752">
        <ele>621.8</ele>
        <time>2021-12-15T13:50:16.000Z</time>
      </trkpt>
      <trkpt lat="43.61724" lon="6.38752">
        <ele>621.8</ele>
        <time>2021-12-15T13:50:20.000Z</time>
      </trkpt>
      <trkpt lat="43.61724" lon="6.38752">
        <ele>621.8</ele>
        <time>2021-12-15T13:50:22.000Z</time>
      </trkpt>
      <trkpt lat="43.61724" lon="6.38752">
        <ele>621.8</ele>
        <time>2021-12-15T13:50:24.000Z</time>
      </trkpt>
      <trkpt lat="43.61726" lon="6.38755">
        <ele>621.6</ele>
        <time>2021-12-15T13:50:36.000Z</time>
      </trkpt>
      <trkpt lat="43.61726" lon="6.38755">
        <ele>621.7</ele>
        <time>2021-12-15T13:50:39.000Z</time>
      </trkpt>
      <trkpt lat="43.61726" lon="6.38755">
        <ele>618.8</ele>
        <time>2021-12-15T13:50:40.000Z</time>
      </trkpt>
      <trkpt lat="43.61726" lon="6.38755">
        <ele>613.1</ele>
        <time>2021-12-15T13:50:41.000Z</time>
      </trkpt>
      <trkpt lat="43.61726" lon="6.38755">
        <ele>614.9</ele>
        <time>2021-12-15T13:50:42.000Z</time>
      </trkpt>
      <trkpt lat="43.61726" lon="6.38755">
        <ele>621.9</ele>
        <time>2021-12-15T13:50:44.000Z</time>
      </trkpt>
      <trkpt lat="43.61726" lon="6.38755">
        <ele>621.7</ele>
        <time>2021-12-15T13:50:45.000Z</time>
      </trkpt>
      <trkpt lat="43.61725" lon="6.38755">
        <ele>621.7</ele>
        <time>2021-12-15T13:50:54.000Z</time>
      </trkpt>
      <trkpt lat="43.61725" lon="6.38755">
        <ele>621.4</ele>
        <time>2021-12-15T13:50:57.000Z</time>
      </trkpt>
      <trkpt lat="43.61725" lon="6.38754">
        <ele>621.4</ele>
        <time>2021-12-15T13:51:03.000Z</time>
      </trkpt>
      <trkpt lat="43.61725" lon="6.38754">
        <ele>620.7</ele>
        <time>2021-12-15T13:51:06.000Z</time>
      </trkpt>
      <trkpt lat="43.61725" lon="6.38753">
        <ele>621.4</ele>
        <time>2021-12-15T13:51:08.000Z</time>
      </trkpt>
      <trkpt lat="43.61725" lon="6.38753">
        <ele>621.7</ele>
        <time>2021-12-15T13:51:09.000Z</time>
      </trkpt>
      <trkpt lat="43.61725" lon="6.38754">
        <ele>621.2</ele>
        <time>2021-12-15T13:51:19.000Z</time>
      </trkpt>
      <trkpt lat="43.61725" lon="6.38754">
        <ele>620.9</ele>
        <time>2021-12-15T13:51:21.000Z</time>
      </trkpt>
      <trkpt lat="43.61725" lon="6.38753">
        <ele>620.8</ele>
        <time>2021-12-15T13:51:59.000Z</time>
      </trkpt>
      <trkpt lat="43.61725" lon="6.38752">
        <ele>620.6</ele>
        <time>2021-12-15T13:52:02.000Z</time>
      </trkpt>
      <trkpt lat="43.61725" lon="6.38752">
        <ele>620.6</ele>
        <time>2021-12-15T13:52:03.000Z</time>
      </trkpt>
      <trkpt lat="43.61725" lon="6.38752">
        <ele>620.5</ele>
        <time>2021-12-15T13:52:06.000Z</time>
      </trkpt>
      <trkpt lat="43.61725" lon="6.38752">
        <ele>620.5</ele>
        <time>2021-12-15T13:52:09.000Z</time>
      </trkpt>
      <trkpt lat="43.61725" lon="6.38752">
        <ele>620.3</ele>
        <time>2021-12-15T13:52:10.000Z</time>
      </trkpt>
      <trkpt lat="43.61725" lon="6.38752">
        <ele>620.2</ele>
        <time>2021-12-15T13:52:17.000Z</time>
      </trkpt>
      <trkpt lat="43.61725" lon="6.38752">
        <ele>620.2</ele>
        <time>2021-12-15T13:52:18.000Z</time>
      </trkpt>
      <trkpt lat="43.61725" lon="6.38751">
        <ele>620.2</ele>
        <time>2021-12-15T13:52:25.000Z</time>
      </trkpt>
      <trkpt lat="43.61725" lon="6.38751">
        <ele>620.7</ele>
        <time>2021-12-15T13:52:27.000Z</time>
      </trkpt>
      <trkpt lat="43.61724" lon="6.3875">
        <ele>620.6</ele>
        <time>2021-12-15T13:52:28.000Z</time>
      </trkpt>
      <trkpt lat="43.61723" lon="6.38749">
        <ele>620.5</ele>
        <time>2021-12-15T13:52:32.000Z</time>
      </trkpt>
      <trkpt lat="43.61723" lon="6.38749">
        <ele>620.6</ele>
        <time>2021-12-15T13:52:33.000Z</time>
      </trkpt>
      <trkpt lat="43.61723" lon="6.38749">
        <ele>620.5</ele>
        <time>2021-12-15T13:52:34.000Z</time>
      </trkpt>
      <trkpt lat="43.61723" lon="6.38749">
        <ele>620.5</ele>
        <time>2021-12-15T13:52:39.000Z</time>
      </trkpt>
      <trkpt lat="43.61724" lon="6.38751">
        <ele>620.5</ele>
        <time>2021-12-15T13:52:43.000Z</time>
      </trkpt>
      <trkpt lat="43.61724" lon="6.38751">
        <ele>620.5</ele>
        <time>2021-12-15T13:52:44.000Z</time>
      </trkpt>
      <trkpt lat="43.61724" lon="6.38751">
        <ele>620.3</ele>
        <time>2021-12-15T13:52:52.000Z</time>
      </trkpt>
      <trkpt lat="43.61724" lon="6.38751">
        <ele>620.4</ele>
        <time>2021-12-15T13:52:58.000Z</time>
      </trkpt>
      <trkpt lat="43.61724" lon="6.38751">
        <ele>620.3</ele>
        <time>2021-12-15T13:52:59.000Z</time>
      </trkpt>
      <trkpt lat="43.61724" lon="6.38751">
        <ele>619.9</ele>
        <time>2021-12-15T13:53:09.000Z</time>
      </trkpt>
      <trkpt lat="43.61724" lon="6.3875">
        <ele>619.8</ele>
        <time>2021-12-15T13:53:11.000Z</time>
      </trkpt>
      <trkpt lat="43.61723" lon="6.3875">
        <ele>619.8</ele>
        <time>2021-12-15T13:53:13.000Z</time>
      </trkpt>
      <trkpt lat="43.61724" lon="6.38753">
        <ele>618.4</ele>
        <time>2021-12-15T13:53:19.000Z</time>
      </trkpt>
      <trkpt lat="43.61725" lon="6.38752">
        <ele>619.6</ele>
        <time>2021-12-15T13:53:24.000Z</time>
      </trkpt>
      <trkpt lat="43.61725" lon="6.3874">
        <ele>619.8</ele>
        <time>2021-12-15T13:53:35.000Z</time>
      </trkpt>
      <trkpt lat="43.61728" lon="6.38726">
        <ele>621.9</ele>
        <time>2021-12-15T13:53:48.000Z</time>
      </trkpt>
      <trkpt lat="43.61732" lon="6.38714">
        <ele>624.1</ele>
        <time>2021-12-15T13:54:02.000Z</time>
      </trkpt>
      <trkpt lat="43.61738" lon="6.38703">
        <ele>625.8</ele>
        <time>2021-12-15T13:54:13.000Z</time>
      </trkpt>
      <trkpt lat="43.61741" lon="6.3869">
        <ele>627.6</ele>
        <time>2021-12-15T13:54:27.000Z</time>
      </trkpt>
      <trkpt lat="43.6174" lon="6.38678">
        <ele>629.5</ele>
        <time>2021-12-15T13:54:37.000Z</time>
      </trkpt>
      <trkpt lat="43.61732" lon="6.38671">
        <ele>631.3</ele>
        <time>2021-12-15T13:54:48.000Z</time>
      </trkpt>
      <trkpt lat="43.61722" lon="6.38668">
        <ele>632.7</ele>
        <time>2021-12-15T13:54:57.000Z</time>
      </trkpt>
      <trkpt lat="43.61713" lon="6.38666">
        <ele>633.4</ele>
        <time>2021-12-15T13:55:08.000Z</time>
      </trkpt>
      <trkpt lat="43.61708" lon="6.38665">
        <ele>634.2</ele>
        <time>2021-12-15T13:55:16.000Z</time>
      </trkpt>
      <trkpt lat="43.61707" lon="6.38664">
        <ele>634.6</ele>
        <time>2021-12-15T13:55:17.000Z</time>
      </trkpt>
      <trkpt lat="43.617" lon="6.38655">
        <ele>635.2</ele>
        <time>2021-12-15T13:55:26.000Z</time>
      </trkpt>
      <trkpt lat="43.61696" lon="6.38644">
        <ele>636.6</ele>
        <time>2021-12-15T13:55:42.000Z</time>
      </trkpt>
      <trkpt lat="43.61692" lon="6.38645">
        <ele>636.5</ele>
        <time>2021-12-15T13:55:50.000Z</time>
      </trkpt>
      <trkpt lat="43.61691" lon="6.38645">
        <ele>636.6</ele>
        <time>2021-12-15T13:55:53.000Z</time>
      </trkpt>
      <trkpt lat="43.61683" lon="6.3864">
        <ele>636.1</ele>
        <time>2021-12-15T13:56:08.000Z</time>
      </trkpt>
      <trkpt lat="43.61678" lon="6.38628">
        <ele>637.6</ele>
        <time>2021-12-15T13:56:18.000Z</time>
      </trkpt>
      <trkpt lat="43.61678" lon="6.38615">
        <ele>638.7</ele>
        <time>2021-12-15T13:56:29.000Z</time>
      </trkpt>
      <trkpt lat="43.61672" lon="6.38605">
        <ele>639.5</ele>
        <time>2021-12-15T13:56:38.000Z</time>
      </trkpt>
      <trkpt lat="43.61668" lon="6.38593">
        <ele>639.4</ele>
        <time>2021-12-15T13:56:46.000Z</time>
      </trkpt>
      <trkpt lat="43.61666" lon="6.38581">
        <ele>639.9</ele>
        <time>2021-12-15T13:56:55.000Z</time>
      </trkpt>
      <trkpt lat="43.61662" lon="6.38569">
        <ele>640.7</ele>
        <time>2021-12-15T13:57:05.000Z</time>
      </trkpt>
      <trkpt lat="43.6166" lon="6.38555">
        <ele>641.3</ele>
        <time>2021-12-15T13:57:15.000Z</time>
      </trkpt>
      <trkpt lat="43.61652" lon="6.38547">
        <ele>641.5</ele>
        <time>2021-12-15T13:57:23.000Z</time>
      </trkpt>
      <trkpt lat="43.61649" lon="6.38535">
        <ele>641.3</ele>
        <time>2021-12-15T13:57:30.000Z</time>
      </trkpt>
      <trkpt lat="43.61651" lon="6.38523">
        <ele>641.7</ele>
        <time>2021-12-15T13:57:39.000Z</time>
      </trkpt>
      <trkpt lat="43.61656" lon="6.38512">
        <ele>642.3</ele>
        <time>2021-12-15T13:57:52.000Z</time>
      </trkpt>
      <trkpt lat="43.6166" lon="6.38501">
        <ele>643.5</ele>
        <time>2021-12-15T13:58:03.000Z</time>
      </trkpt>
      <trkpt lat="43.61658" lon="6.38489">
        <ele>644.4</ele>
        <time>2021-12-15T13:58:12.000Z</time>
      </trkpt>
      <trkpt lat="43.61653" lon="6.38476">
        <ele>644.9</ele>
        <time>2021-12-15T13:58:20.000Z</time>
      </trkpt>
      <trkpt lat="43.6165" lon="6.38464">
        <ele>644.3</ele>
        <time>2021-12-15T13:58:29.000Z</time>
      </trkpt>
      <trkpt lat="43.61651" lon="6.38451">
        <ele>644.2</ele>
        <time>2021-12-15T13:58:38.000Z</time>
      </trkpt>
      <trkpt lat="43.61645" lon="6.3844">
        <ele>644.2</ele>
        <time>2021-12-15T13:58:46.000Z</time>
      </trkpt>
      <trkpt lat="43.61643" lon="6.38428">
        <ele>644</ele>
        <time>2021-12-15T13:58:55.000Z</time>
      </trkpt>
      <trkpt lat="43.61637" lon="6.38418">
        <ele>644.3</ele>
        <time>2021-12-15T13:59:03.000Z</time>
      </trkpt>
      <trkpt lat="43.6163" lon="6.38407">
        <ele>644.1</ele>
        <time>2021-12-15T13:59:13.000Z</time>
      </trkpt>
      <trkpt lat="43.61622" lon="6.384">
        <ele>644.2</ele>
        <time>2021-12-15T13:59:18.000Z</time>
      </trkpt>
      <trkpt lat="43.61614" lon="6.38393">
        <ele>643.6</ele>
        <time>2021-12-15T13:59:26.000Z</time>
      </trkpt>
      <trkpt lat="43.61608" lon="6.38382">
        <ele>644</ele>
        <time>2021-12-15T13:59:38.000Z</time>
      </trkpt>
      <trkpt lat="43.61603" lon="6.38371">
        <ele>644.4</ele>
        <time>2021-12-15T13:59:47.000Z</time>
      </trkpt>
      <trkpt lat="43.61599" lon="6.38358">
        <ele>643.7</ele>
        <time>2021-12-15T13:59:57.000Z</time>
      </trkpt>
      <trkpt lat="43.61597" lon="6.38345">
        <ele>643.7</ele>
        <time>2021-12-15T14:00:05.000Z</time>
      </trkpt>
      <trkpt lat="43.61592" lon="6.38334">
        <ele>643.1</ele>
        <time>2021-12-15T14:00:13.000Z</time>
      </trkpt>
      <trkpt lat="43.61585" lon="6.38323">
        <ele>642.7</ele>
        <time>2021-12-15T14:00:20.000Z</time>
      </trkpt>
      <trkpt lat="43.61578" lon="6.38315">
        <ele>642.5</ele>
        <time>2021-12-15T14:00:27.000Z</time>
      </trkpt>
      <trkpt lat="43.61568" lon="6.38314">
        <ele>642.4</ele>
        <time>2021-12-15T14:00:35.000Z</time>
      </trkpt>
      <trkpt lat="43.61558" lon="6.38311">
        <ele>641.9</ele>
        <time>2021-12-15T14:00:42.000Z</time>
      </trkpt>
      <trkpt lat="43.6155" lon="6.38306">
        <ele>641.2</ele>
        <time>2021-12-15T14:00:53.000Z</time>
      </trkpt>
      <trkpt lat="43.61542" lon="6.383">
        <ele>640.6</ele>
        <time>2021-12-15T14:01:01.000Z</time>
      </trkpt>
      <trkpt lat="43.61535" lon="6.38292">
        <ele>639.8</ele>
        <time>2021-12-15T14:01:10.000Z</time>
      </trkpt>
      <trkpt lat="43.61526" lon="6.38284">
        <ele>639.7</ele>
        <time>2021-12-15T14:01:18.000Z</time>
      </trkpt>
      <trkpt lat="43.61518" lon="6.38276">
        <ele>639</ele>
        <time>2021-12-15T14:01:26.000Z</time>
      </trkpt>
      <trkpt lat="43.61509" lon="6.3827">
        <ele>638.5</ele>
        <time>2021-12-15T14:01:33.000Z</time>
      </trkpt>
      <trkpt lat="43.61501" lon="6.38262">
        <ele>638</ele>
        <time>2021-12-15T14:01:41.000Z</time>
      </trkpt>
      <trkpt lat="43.61493" lon="6.38253">
        <ele>637.6</ele>
        <time>2021-12-15T14:01:50.000Z</time>
      </trkpt>
      <trkpt lat="43.61484" lon="6.38244">
        <ele>637.2</ele>
        <time>2021-12-15T14:01:58.000Z</time>
      </trkpt>
      <trkpt lat="43.61475" lon="6.38241">
        <ele>636.8</ele>
        <time>2021-12-15T14:02:07.000Z</time>
      </trkpt>
      <trkpt lat="43.61466" lon="6.3824">
        <ele>636.7</ele>
        <time>2021-12-15T14:02:14.000Z</time>
      </trkpt>
      <trkpt lat="43.61456" lon="6.38241">
        <ele>636.5</ele>
        <time>2021-12-15T14:02:22.000Z</time>
      </trkpt>
      <trkpt lat="43.61447" lon="6.38239">
        <ele>635.9</ele>
        <time>2021-12-15T14:02:29.000Z</time>
      </trkpt>
      <trkpt lat="43.6144" lon="6.38247">
        <ele>635.3</ele>
        <time>2021-12-15T14:02:38.000Z</time>
      </trkpt>
      <trkpt lat="43.61436" lon="6.38259">
        <ele>635.1</ele>
        <time>2021-12-15T14:02:48.000Z</time>
      </trkpt>
      <trkpt lat="43.61427" lon="6.38263">
        <ele>633.8</ele>
        <time>2021-12-15T14:02:56.000Z</time>
      </trkpt>
      <trkpt lat="43.6142" lon="6.38272">
        <ele>632.9</ele>
        <time>2021-12-15T14:03:07.000Z</time>
      </trkpt>
      <trkpt lat="43.61413" lon="6.38281">
        <ele>631.9</ele>
        <time>2021-12-15T14:03:17.000Z</time>
      </trkpt>
      <trkpt lat="43.6141" lon="6.38285">
        <ele>631.1</ele>
        <time>2021-12-15T14:03:25.000Z</time>
      </trkpt>
      <trkpt lat="43.61409" lon="6.38286">
        <ele>632.7</ele>
        <time>2021-12-15T14:03:27.000Z</time>
      </trkpt>
      <trkpt lat="43.61402" lon="6.38295">
        <ele>630.6</ele>
        <time>2021-12-15T14:03:36.000Z</time>
      </trkpt>
      <trkpt lat="43.61406" lon="6.38307">
        <ele>630.5</ele>
        <time>2021-12-15T14:03:48.000Z</time>
      </trkpt>
      <trkpt lat="43.61411" lon="6.38314">
        <ele>631</ele>
        <time>2021-12-15T14:04:07.000Z</time>
      </trkpt>
      <trkpt lat="43.61411" lon="6.38314">
        <ele>630.5</ele>
        <time>2021-12-15T14:04:12.000Z</time>
      </trkpt>
      <trkpt lat="43.61411" lon="6.38313">
        <ele>630.3</ele>
        <time>2021-12-15T14:04:19.000Z</time>
      </trkpt>
      <trkpt lat="43.61412" lon="6.38313">
        <ele>629.5</ele>
        <time>2021-12-15T14:04:23.000Z</time>
      </trkpt>
      <trkpt lat="43.61411" lon="6.38311">
        <ele>630</ele>
        <time>2021-12-15T14:04:31.000Z</time>
      </trkpt>
      <trkpt lat="43.6141" lon="6.38311">
        <ele>629.9</ele>
        <time>2021-12-15T14:04:32.000Z</time>
      </trkpt>
      <trkpt lat="43.6141" lon="6.38311">
        <ele>629.7</ele>
        <time>2021-12-15T14:04:33.000Z</time>
      </trkpt>
      <trkpt lat="43.6141" lon="6.38311">
        <ele>629.8</ele>
        <time>2021-12-15T14:04:36.000Z</time>
      </trkpt>
      <trkpt lat="43.61404" lon="6.38312">
        <ele>629.5</ele>
        <time>2021-12-15T14:04:49.000Z</time>
      </trkpt>
      <trkpt lat="43.61404" lon="6.38313">
        <ele>628.4</ele>
        <time>2021-12-15T14:05:00.000Z</time>
      </trkpt>
      <trkpt lat="43.61409" lon="6.38315">
        <ele>629.8</ele>
        <time>2021-12-15T14:05:11.000Z</time>
      </trkpt>
      <trkpt lat="43.61409" lon="6.38315">
        <ele>629.7</ele>
        <time>2021-12-15T14:05:12.000Z</time>
      </trkpt>
      <trkpt lat="43.6141" lon="6.38313">
        <ele>629.5</ele>
        <time>2021-12-15T14:05:22.000Z</time>
      </trkpt>
      <trkpt lat="43.6141" lon="6.38312">
        <ele>629.6</ele>
        <time>2021-12-15T14:05:23.000Z</time>
      </trkpt>
      <trkpt lat="43.6141" lon="6.38312">
        <ele>629.7</ele>
        <time>2021-12-15T14:05:24.000Z</time>
      </trkpt>
      <trkpt lat="43.6141" lon="6.38312">
        <ele>629.6</ele>
        <time>2021-12-15T14:05:51.000Z</time>
      </trkpt>
      <trkpt lat="43.6141" lon="6.38312">
        <ele>629.5</ele>
        <time>2021-12-15T14:05:53.000Z</time>
      </trkpt>
      <trkpt lat="43.6141" lon="6.38312">
        <ele>629.9</ele>
        <time>2021-12-15T14:06:11.000Z</time>
      </trkpt>
      <trkpt lat="43.6141" lon="6.38312">
        <ele>629.8</ele>
        <time>2021-12-15T14:06:12.000Z</time>
      </trkpt>
      <trkpt lat="43.6141" lon="6.38312">
        <ele>629.8</ele>
        <time>2021-12-15T14:06:39.000Z</time>
      </trkpt>
      <trkpt lat="43.6141" lon="6.38312">
        <ele>629.8</ele>
        <time>2021-12-15T14:06:40.000Z</time>
      </trkpt>
      <trkpt lat="43.6141" lon="6.38312">
        <ele>629.6</ele>
        <time>2021-12-15T14:06:55.000Z</time>
      </trkpt>
      <trkpt lat="43.6141" lon="6.38312">
        <ele>629.5</ele>
        <time>2021-12-15T14:06:56.000Z</time>
      </trkpt>
      <trkpt lat="43.6141" lon="6.38311">
        <ele>628.5</ele>
        <time>2021-12-15T14:07:27.000Z</time>
      </trkpt>
      <trkpt lat="43.6141" lon="6.38311">
        <ele>628.5</ele>
        <time>2021-12-15T14:07:28.000Z</time>
      </trkpt>
      <trkpt lat="43.6141" lon="6.38312">
        <ele>628.4</ele>
        <time>2021-12-15T14:07:32.000Z</time>
      </trkpt>
      <trkpt lat="43.6141" lon="6.38311">
        <ele>628.3</ele>
        <time>2021-12-15T14:07:33.000Z</time>
      </trkpt>
      <trkpt lat="43.6141" lon="6.38311">
        <ele>628.4</ele>
        <time>2021-12-15T14:07:35.000Z</time>
      </trkpt>
      <trkpt lat="43.6141" lon="6.38311">
        <ele>628.4</ele>
        <time>2021-12-15T14:07:36.000Z</time>
      </trkpt>
      <trkpt lat="43.6141" lon="6.3831">
        <ele>628.3</ele>
        <time>2021-12-15T14:07:37.000Z</time>
      </trkpt>
      <trkpt lat="43.6141" lon="6.3831">
        <ele>628.2</ele>
        <time>2021-12-15T14:07:39.000Z</time>
      </trkpt>
      <trkpt lat="43.6141" lon="6.3831">
        <ele>628.3</ele>
        <time>2021-12-15T14:07:43.000Z</time>
      </trkpt>
      <trkpt lat="43.6141" lon="6.3831">
        <ele>628.2</ele>
        <time>2021-12-15T14:07:44.000Z</time>
      </trkpt>
      <trkpt lat="43.6141" lon="6.3831">
        <ele>628.1</ele>
        <time>2021-12-15T14:07:45.000Z</time>
      </trkpt>
      <trkpt lat="43.6141" lon="6.38311">
        <ele>627.9</ele>
        <time>2021-12-15T14:07:49.000Z</time>
      </trkpt>
      <trkpt lat="43.6141" lon="6.38311">
        <ele>628.1</ele>
        <time>2021-12-15T14:07:54.000Z</time>
      </trkpt>
      <trkpt lat="43.6141" lon="6.3831">
        <ele>627.9</ele>
        <time>2021-12-15T14:07:57.000Z</time>
      </trkpt>
      <trkpt lat="43.61409" lon="6.3831">
        <ele>628</ele>
        <time>2021-12-15T14:08:02.000Z</time>
      </trkpt>
      <trkpt lat="43.61409" lon="6.3831">
        <ele>628</ele>
        <time>2021-12-15T14:08:03.000Z</time>
      </trkpt>
      <trkpt lat="43.61409" lon="6.3831">
        <ele>627.9</ele>
        <time>2021-12-15T14:08:14.000Z</time>
      </trkpt>
      <trkpt lat="43.61409" lon="6.3831">
        <ele>628</ele>
        <time>2021-12-15T14:08:15.000Z</time>
      </trkpt>
      <trkpt lat="43.61409" lon="6.3831">
        <ele>627.6</ele>
        <time>2021-12-15T14:08:38.000Z</time>
      </trkpt>
      <trkpt lat="43.61409" lon="6.3831">
        <ele>627.5</ele>
        <time>2021-12-15T14:08:39.000Z</time>
      </trkpt>
      <trkpt lat="43.61409" lon="6.3831">
        <ele>627.1</ele>
        <time>2021-12-15T14:08:50.000Z</time>
      </trkpt>
      <trkpt lat="43.61409" lon="6.3831">
        <ele>627</ele>
        <time>2021-12-15T14:08:51.000Z</time>
      </trkpt>
      <trkpt lat="43.61409" lon="6.3831">
        <ele>627.2</ele>
        <time>2021-12-15T14:09:09.000Z</time>
      </trkpt>
      <trkpt lat="43.61409" lon="6.3831">
        <ele>627.2</ele>
        <time>2021-12-15T14:09:10.000Z</time>
      </trkpt>
      <trkpt lat="43.61409" lon="6.3831">
        <ele>627.4</ele>
        <time>2021-12-15T14:09:12.000Z</time>
      </trkpt>
      <trkpt lat="43.61409" lon="6.3831">
        <ele>627.3</ele>
        <time>2021-12-15T14:09:13.000Z</time>
      </trkpt>
      <trkpt lat="43.61409" lon="6.3831">
        <ele>626.7</ele>
        <time>2021-12-15T14:09:42.000Z</time>
      </trkpt>
      <trkpt lat="43.61409" lon="6.3831">
        <ele>626.7</ele>
        <time>2021-12-15T14:09:43.000Z</time>
      </trkpt>
      <trkpt lat="43.61409" lon="6.3831">
        <ele>626.5</ele>
        <time>2021-12-15T14:09:50.000Z</time>
      </trkpt>
      <trkpt lat="43.61409" lon="6.3831">
        <ele>626.5</ele>
        <time>2021-12-15T14:09:51.000Z</time>
      </trkpt>
      <trkpt lat="43.61409" lon="6.3831">
        <ele>626.1</ele>
        <time>2021-12-15T14:10:13.000Z</time>
      </trkpt>
      <trkpt lat="43.61411" lon="6.38312">
        <ele>624.7</ele>
        <time>2021-12-15T14:10:22.000Z</time>
      </trkpt>
      <trkpt lat="43.61411" lon="6.38312">
        <ele>626.2</ele>
        <time>2021-12-15T14:10:24.000Z</time>
      </trkpt>
      <trkpt lat="43.61411" lon="6.38311">
        <ele>625.9</ele>
        <time>2021-12-15T14:10:30.000Z</time>
      </trkpt>
      <trkpt lat="43.6141" lon="6.3831">
        <ele>626</ele>
        <time>2021-12-15T14:10:32.000Z</time>
      </trkpt>
      <trkpt lat="43.6141" lon="6.3831">
        <ele>626.2</ele>
        <time>2021-12-15T14:10:34.000Z</time>
      </trkpt>
      <trkpt lat="43.6141" lon="6.3831">
        <ele>625.5</ele>
        <time>2021-12-15T14:10:45.000Z</time>
      </trkpt>
      <trkpt lat="43.6141" lon="6.38309">
        <ele>625.6</ele>
        <time>2021-12-15T14:10:47.000Z</time>
      </trkpt>
      <trkpt lat="43.6141" lon="6.38308">
        <ele>625.7</ele>
        <time>2021-12-15T14:11:01.000Z</time>
      </trkpt>
      <trkpt lat="43.61405" lon="6.38297">
        <ele>625.1</ele>
        <time>2021-12-15T14:11:17.000Z</time>
      </trkpt>
      <trkpt lat="43.61411" lon="6.38286">
        <ele>625.7</ele>
        <time>2021-12-15T14:11:31.000Z</time>
      </trkpt>
      <trkpt lat="43.61418" lon="6.38277">
        <ele>626.4</ele>
        <time>2021-12-15T14:11:41.000Z</time>
      </trkpt>
      <trkpt lat="43.61427" lon="6.38271">
        <ele>627.3</ele>
        <time>2021-12-15T14:11:53.000Z</time>
      </trkpt>
      <trkpt lat="43.61436" lon="6.38267">
        <ele>627.8</ele>
        <time>2021-12-15T14:12:05.000Z</time>
      </trkpt>
      <trkpt lat="43.61437" lon="6.38254">
        <ele>628</ele>
        <time>2021-12-15T14:12:13.000Z</time>
      </trkpt>
      <trkpt lat="43.61443" lon="6.38244">
        <ele>628.3</ele>
        <time>2021-12-15T14:12:21.000Z</time>
      </trkpt>
      <trkpt lat="43.61452" lon="6.38243">
        <ele>629</ele>
        <time>2021-12-15T14:12:34.000Z</time>
      </trkpt>
      <trkpt lat="43.61461" lon="6.38241">
        <ele>628.8</ele>
        <time>2021-12-15T14:12:44.000Z</time>
      </trkpt>
      <trkpt lat="43.61471" lon="6.38241">
        <ele>629.3</ele>
        <time>2021-12-15T14:12:52.000Z</time>
      </trkpt>
      <trkpt lat="43.6148" lon="6.38244">
        <ele>629.1</ele>
        <time>2021-12-15T14:13:00.000Z</time>
      </trkpt>
      <trkpt lat="43.61488" lon="6.38252">
        <ele>629.3</ele>
        <time>2021-12-15T14:13:09.000Z</time>
      </trkpt>
      <trkpt lat="43.61494" lon="6.38262">
        <ele>629.6</ele>
        <time>2021-12-15T14:13:19.000Z</time>
      </trkpt>
      <trkpt lat="43.61502" lon="6.38268">
        <ele>630.2</ele>
        <time>2021-12-15T14:13:30.000Z</time>
      </trkpt>
      <trkpt lat="43.6151" lon="6.38276">
        <ele>630.5</ele>
        <time>2021-12-15T14:13:39.000Z</time>
      </trkpt>
      <trkpt lat="43.61517" lon="6.38283">
        <ele>631.1</ele>
        <time>2021-12-15T14:13:48.000Z</time>
      </trkpt>
      <trkpt lat="43.61527" lon="6.3829">
        <ele>631</ele>
        <time>2021-12-15T14:13:55.000Z</time>
      </trkpt>
      <trkpt lat="43.61535" lon="6.38297">
        <ele>631.9</ele>
        <time>2021-12-15T14:14:03.000Z</time>
      </trkpt>
      <trkpt lat="43.61544" lon="6.38304">
        <ele>632.4</ele>
        <time>2021-12-15T14:14:13.000Z</time>
      </trkpt>
      <trkpt lat="43.61552" lon="6.3831">
        <ele>633.3</ele>
        <time>2021-12-15T14:14:24.000Z</time>
      </trkpt>
      <trkpt lat="43.61561" lon="6.38314">
        <ele>633.7</ele>
        <time>2021-12-15T14:14:33.000Z</time>
      </trkpt>
      <trkpt lat="43.61571" lon="6.38313">
        <ele>634.3</ele>
        <time>2021-12-15T14:14:45.000Z</time>
      </trkpt>
      <trkpt lat="43.61574" lon="6.3831">
        <ele>634.3</ele>
        <time>2021-12-15T14:14:51.000Z</time>
      </trkpt>
      <trkpt lat="43.61575" lon="6.3831">
        <ele>633.9</ele>
        <time>2021-12-15T14:15:10.000Z</time>
      </trkpt>
      <trkpt lat="43.61575" lon="6.3831">
        <ele>633.9</ele>
        <time>2021-12-15T14:15:11.000Z</time>
      </trkpt>
      <trkpt lat="43.61574" lon="6.3831">
        <ele>633.7</ele>
        <time>2021-12-15T14:15:28.000Z</time>
      </trkpt>
      <trkpt lat="43.61573" lon="6.38311">
        <ele>633.5</ele>
        <time>2021-12-15T14:15:35.000Z</time>
      </trkpt>
      <trkpt lat="43.61574" lon="6.38311">
        <ele>632.6</ele>
        <time>2021-12-15T14:15:41.000Z</time>
      </trkpt>
      <trkpt lat="43.61578" lon="6.38298">
        <ele>633.6</ele>
        <time>2021-12-15T14:15:50.000Z</time>
      </trkpt>
      <trkpt lat="43.61575" lon="6.38285">
        <ele>633.2</ele>
        <time>2021-12-15T14:15:59.000Z</time>
      </trkpt>
      <trkpt lat="43.6157" lon="6.38273">
        <ele>633.1</ele>
        <time>2021-12-15T14:16:07.000Z</time>
      </trkpt>
      <trkpt lat="43.61572" lon="6.38261">
        <ele>632.8</ele>
        <time>2021-12-15T14:16:15.000Z</time>
      </trkpt>
      <trkpt lat="43.61573" lon="6.38248">
        <ele>632.9</ele>
        <time>2021-12-15T14:16:22.000Z</time>
      </trkpt>
      <trkpt lat="43.61579" lon="6.38238">
        <ele>633.2</ele>
        <time>2021-12-15T14:16:31.000Z</time>
      </trkpt>
      <trkpt lat="43.6158" lon="6.38224">
        <ele>632.7</ele>
        <time>2021-12-15T14:16:40.000Z</time>
      </trkpt>
      <trkpt lat="43.61574" lon="6.38213">
        <ele>633.1</ele>
        <time>2021-12-15T14:16:49.000Z</time>
      </trkpt>
      <trkpt lat="43.61578" lon="6.382">
        <ele>633.1</ele>
        <time>2021-12-15T14:16:57.000Z</time>
      </trkpt>
      <trkpt lat="43.61582" lon="6.38188">
        <ele>634.2</ele>
        <time>2021-12-15T14:17:08.000Z</time>
      </trkpt>
      <trkpt lat="43.61586" lon="6.38175">
        <ele>633.9</ele>
        <time>2021-12-15T14:17:16.000Z</time>
      </trkpt>
      <trkpt lat="43.61581" lon="6.38163">
        <ele>634.1</ele>
        <time>2021-12-15T14:17:26.000Z</time>
      </trkpt>
      <trkpt lat="43.61575" lon="6.38153">
        <ele>633.7</ele>
        <time>2021-12-15T14:17:33.000Z</time>
      </trkpt>
      <trkpt lat="43.61569" lon="6.38142">
        <ele>632.6</ele>
        <time>2021-12-15T14:17:43.000Z</time>
      </trkpt>
      <trkpt lat="43.61568" lon="6.38129">
        <ele>633.5</ele>
        <time>2021-12-15T14:17:51.000Z</time>
      </trkpt>
      <trkpt lat="43.61568" lon="6.38129">
        <ele>633.4</ele>
        <time>2021-12-15T14:17:53.000Z</time>
      </trkpt>
      <trkpt lat="43.61568" lon="6.38128">
        <ele>633.3</ele>
        <time>2021-12-15T14:17:54.000Z</time>
      </trkpt>
      <trkpt lat="43.61568" lon="6.38127">
        <ele>633.4</ele>
        <time>2021-12-15T14:17:56.000Z</time>
      </trkpt>
      <trkpt lat="43.61568" lon="6.38127">
        <ele>634.3</ele>
        <time>2021-12-15T14:18:04.000Z</time>
      </trkpt>
      <trkpt lat="43.61566" lon="6.38123">
        <ele>632.4</ele>
        <time>2021-12-15T14:18:17.000Z</time>
      </trkpt>
      <trkpt lat="43.61566" lon="6.38123">
        <ele>631.7</ele>
        <time>2021-12-15T14:18:18.000Z</time>
      </trkpt>
      <trkpt lat="43.61565" lon="6.38123">
        <ele>632.5</ele>
        <time>2021-12-15T14:18:23.000Z</time>
      </trkpt>
      <trkpt lat="43.61565" lon="6.38123">
        <ele>631.5</ele>
        <time>2021-12-15T14:18:24.000Z</time>
      </trkpt>
      <trkpt lat="43.61565" lon="6.38123">
        <ele>632.7</ele>
        <time>2021-12-15T14:18:26.000Z</time>
      </trkpt>
      <trkpt lat="43.61564" lon="6.38123">
        <ele>630.3</ele>
        <time>2021-12-15T14:18:29.000Z</time>
      </trkpt>
      <trkpt lat="43.61564" lon="6.38123">
        <ele>631.7</ele>
        <time>2021-12-15T14:18:30.000Z</time>
      </trkpt>
      <trkpt lat="43.61564" lon="6.38123">
        <ele>632.9</ele>
        <time>2021-12-15T14:18:35.000Z</time>
      </trkpt>
      <trkpt lat="43.61564" lon="6.38123">
        <ele>633</ele>
        <time>2021-12-15T14:18:36.000Z</time>
      </trkpt>
      <trkpt lat="43.61564" lon="6.38122">
        <ele>633</ele>
        <time>2021-12-15T14:18:37.000Z</time>
      </trkpt>
      <trkpt lat="43.61565" lon="6.38124">
        <ele>630.1</ele>
        <time>2021-12-15T14:18:43.000Z</time>
      </trkpt>
      <trkpt lat="43.61565" lon="6.38124">
        <ele>633.1</ele>
        <time>2021-12-15T14:18:45.000Z</time>
      </trkpt>
      <trkpt lat="43.61571" lon="6.38115">
        <ele>632.8</ele>
        <time>2021-12-15T14:18:59.000Z</time>
      </trkpt>
      <trkpt lat="43.61573" lon="6.38101">
        <ele>632.8</ele>
        <time>2021-12-15T14:19:09.000Z</time>
      </trkpt>
      <trkpt lat="43.61577" lon="6.38089">
        <ele>633.1</ele>
        <time>2021-12-15T14:19:19.000Z</time>
      </trkpt>
      <trkpt lat="43.61577" lon="6.38075">
        <ele>633.3</ele>
        <time>2021-12-15T14:19:30.000Z</time>
      </trkpt>
      <trkpt lat="43.6158" lon="6.38063">
        <ele>633.9</ele>
        <time>2021-12-15T14:19:38.000Z</time>
      </trkpt>
      <trkpt lat="43.61583" lon="6.3805">
        <ele>633.2</ele>
        <time>2021-12-15T14:19:46.000Z</time>
      </trkpt>
      <trkpt lat="43.6159" lon="6.38041">
        <ele>633.9</ele>
        <time>2021-12-15T14:19:55.000Z</time>
      </trkpt>
      <trkpt lat="43.61597" lon="6.38033">
        <ele>633.6</ele>
        <time>2021-12-15T14:20:06.000Z</time>
      </trkpt>
      <trkpt lat="43.61605" lon="6.38023">
        <ele>633.3</ele>
        <time>2021-12-15T14:20:14.000Z</time>
      </trkpt>
      <trkpt lat="43.6161" lon="6.38011">
        <ele>633.5</ele>
        <time>2021-12-15T14:20:23.000Z</time>
      </trkpt>
      <trkpt lat="43.61614" lon="6.37999">
        <ele>633.6</ele>
        <time>2021-12-15T14:20:33.000Z</time>
      </trkpt>
      <trkpt lat="43.61617" lon="6.37986">
        <ele>633.3</ele>
        <time>2021-12-15T14:20:42.000Z</time>
      </trkpt>
      <trkpt lat="43.61617" lon="6.37973">
        <ele>633</ele>
        <time>2021-12-15T14:20:51.000Z</time>
      </trkpt>
      <trkpt lat="43.61615" lon="6.3796">
        <ele>633.2</ele>
        <time>2021-12-15T14:21:02.000Z</time>
      </trkpt>
      <trkpt lat="43.61615" lon="6.37946">
        <ele>632.6</ele>
        <time>2021-12-15T14:21:09.000Z</time>
      </trkpt>
      <trkpt lat="43.61614" lon="6.37933">
        <ele>632.4</ele>
        <time>2021-12-15T14:21:18.000Z</time>
      </trkpt>
      <trkpt lat="43.61616" lon="6.37932">
        <ele>632</ele>
        <time>2021-12-15T14:21:23.000Z</time>
      </trkpt>
      <trkpt lat="43.61616" lon="6.37932">
        <ele>631.4</ele>
        <time>2021-12-15T14:21:24.000Z</time>
      </trkpt>
      <trkpt lat="43.6162" lon="6.37922">
        <ele>632.6</ele>
        <time>2021-12-15T14:21:43.000Z</time>
      </trkpt>
      <trkpt lat="43.6162" lon="6.37922">
        <ele>632.5</ele>
        <time>2021-12-15T14:21:46.000Z</time>
      </trkpt>
      <trkpt lat="43.61622" lon="6.37915">
        <ele>632.6</ele>
        <time>2021-12-15T14:22:00.000Z</time>
      </trkpt>
      <trkpt lat="43.61622" lon="6.37915">
        <ele>632.1</ele>
        <time>2021-12-15T14:22:04.000Z</time>
      </trkpt>
      <trkpt lat="43.61622" lon="6.37915">
        <ele>632.4</ele>
        <time>2021-12-15T14:22:05.000Z</time>
      </trkpt>
      <trkpt lat="43.61622" lon="6.37915">
        <ele>632.6</ele>
        <time>2021-12-15T14:22:06.000Z</time>
      </trkpt>
      <trkpt lat="43.61619" lon="6.37912">
        <ele>632.9</ele>
        <time>2021-12-15T14:22:10.000Z</time>
      </trkpt>
      <trkpt lat="43.61619" lon="6.37912">
        <ele>632.9</ele>
        <time>2021-12-15T14:22:19.000Z</time>
      </trkpt>
      <trkpt lat="43.61618" lon="6.37912">
        <ele>632.9</ele>
        <time>2021-12-15T14:22:23.000Z</time>
      </trkpt>
      <trkpt lat="43.61618" lon="6.37912">
        <ele>632.7</ele>
        <time>2021-12-15T14:22:28.000Z</time>
      </trkpt>
      <trkpt lat="43.61617" lon="6.37912">
        <ele>632.4</ele>
        <time>2021-12-15T14:22:30.000Z</time>
      </trkpt>
      <trkpt lat="43.61616" lon="6.37912">
        <ele>632.5</ele>
        <time>2021-12-15T14:23:09.000Z</time>
      </trkpt>
      <trkpt lat="43.61616" lon="6.37912">
        <ele>632.5</ele>
        <time>2021-12-15T14:23:10.000Z</time>
      </trkpt>
      <trkpt lat="43.61616" lon="6.37912">
        <ele>632.3</ele>
        <time>2021-12-15T14:23:35.000Z</time>
      </trkpt>
      <trkpt lat="43.61615" lon="6.37912">
        <ele>632.4</ele>
        <time>2021-12-15T14:23:39.000Z</time>
      </trkpt>
      <trkpt lat="43.61615" lon="6.37911">
        <ele>631.3</ele>
        <time>2021-12-15T14:23:42.000Z</time>
      </trkpt>
      <trkpt lat="43.61614" lon="6.37903">
        <ele>632.2</ele>
        <time>2021-12-15T14:23:57.000Z</time>
      </trkpt>
      <trkpt lat="43.61614" lon="6.37902">
        <ele>632</ele>
        <time>2021-12-15T14:24:18.000Z</time>
      </trkpt>
      <trkpt lat="43.61617" lon="6.3789">
        <ele>631.7</ele>
        <time>2021-12-15T14:24:27.000Z</time>
      </trkpt>
      <trkpt lat="43.61618" lon="6.37877">
        <ele>631.4</ele>
        <time>2021-12-15T14:24:36.000Z</time>
      </trkpt>
      <trkpt lat="43.61616" lon="6.37864">
        <ele>631.5</ele>
        <time>2021-12-15T14:24:45.000Z</time>
      </trkpt>
      <trkpt lat="43.61617" lon="6.37851">
        <ele>631.4</ele>
        <time>2021-12-15T14:24:52.000Z</time>
      </trkpt>
      <trkpt lat="43.61618" lon="6.37838">
        <ele>631.4</ele>
        <time>2021-12-15T14:24:59.000Z</time>
      </trkpt>
      <trkpt lat="43.61622" lon="6.37826">
        <ele>631.3</ele>
        <time>2021-12-15T14:25:08.000Z</time>
      </trkpt>
      <trkpt lat="43.61628" lon="6.37815">
        <ele>631.5</ele>
        <time>2021-12-15T14:25:16.000Z</time>
      </trkpt>
      <trkpt lat="43.61632" lon="6.37803">
        <ele>631.3</ele>
        <time>2021-12-15T14:25:25.000Z</time>
      </trkpt>
      <trkpt lat="43.61637" lon="6.37793">
        <ele>631.2</ele>
        <time>2021-12-15T14:25:33.000Z</time>
      </trkpt>
      <trkpt lat="43.61641" lon="6.3778">
        <ele>631.2</ele>
        <time>2021-12-15T14:25:42.000Z</time>
      </trkpt>
      <trkpt lat="43.61642" lon="6.37769">
        <ele>631.1</ele>
        <time>2021-12-15T14:25:54.000Z</time>
      </trkpt>
      <trkpt lat="43.61642" lon="6.37769">
        <ele>631.2</ele>
        <time>2021-12-15T14:26:04.000Z</time>
      </trkpt>
      <trkpt lat="43.61647" lon="6.37758">
        <ele>630.3</ele>
        <time>2021-12-15T14:26:13.000Z</time>
      </trkpt>
      <trkpt lat="43.61651" lon="6.37746">
        <ele>630.9</ele>
        <time>2021-12-15T14:26:21.000Z</time>
      </trkpt>
      <trkpt lat="43.6165" lon="6.37732">
        <ele>630.8</ele>
        <time>2021-12-15T14:26:32.000Z</time>
      </trkpt>
      <trkpt lat="43.61646" lon="6.3772">
        <ele>630.7</ele>
        <time>2021-12-15T14:26:41.000Z</time>
      </trkpt>
      <trkpt lat="43.61646" lon="6.37707">
        <ele>630.7</ele>
        <time>2021-12-15T14:26:49.000Z</time>
      </trkpt>
      <trkpt lat="43.6165" lon="6.37695">
        <ele>630.9</ele>
        <time>2021-12-15T14:26:59.000Z</time>
      </trkpt>
      <trkpt lat="43.61659" lon="6.37692">
        <ele>631.2</ele>
        <time>2021-12-15T14:27:05.000Z</time>
      </trkpt>
      <trkpt lat="43.61668" lon="6.3769">
        <ele>630.9</ele>
        <time>2021-12-15T14:27:22.000Z</time>
      </trkpt>
      <trkpt lat="43.61676" lon="6.37694">
        <ele>631</ele>
        <time>2021-12-15T14:27:37.000Z</time>
      </trkpt>
      <trkpt lat="43.61676" lon="6.37694">
        <ele>631</ele>
        <time>2021-12-15T14:27:38.000Z</time>
      </trkpt>
      <trkpt lat="43.61676" lon="6.37694">
        <ele>630.9</ele>
        <time>2021-12-15T14:27:40.000Z</time>
      </trkpt>
      <trkpt lat="43.61676" lon="6.37694">
        <ele>630.7</ele>
        <time>2021-12-15T14:27:41.000Z</time>
      </trkpt>
      <trkpt lat="43.61677" lon="6.3769">
        <ele>630.3</ele>
        <time>2021-12-15T14:27:47.000Z</time>
      </trkpt>
      <trkpt lat="43.61677" lon="6.3769">
        <ele>630.6</ele>
        <time>2021-12-15T14:27:48.000Z</time>
      </trkpt>
      <trkpt lat="43.61678" lon="6.37687">
        <ele>631.3</ele>
        <time>2021-12-15T14:27:55.000Z</time>
      </trkpt>
      <trkpt lat="43.61678" lon="6.37687">
        <ele>631.1</ele>
        <time>2021-12-15T14:28:04.000Z</time>
      </trkpt>
      <trkpt lat="43.61678" lon="6.37687">
        <ele>631.1</ele>
        <time>2021-12-15T14:28:05.000Z</time>
      </trkpt>
      <trkpt lat="43.61678" lon="6.37687">
        <ele>631.2</ele>
        <time>2021-12-15T14:28:16.000Z</time>
      </trkpt>
      <trkpt lat="43.61678" lon="6.37687">
        <ele>631.2</ele>
        <time>2021-12-15T14:28:17.000Z</time>
      </trkpt>
      <trkpt lat="43.61678" lon="6.37687">
        <ele>631.3</ele>
        <time>2021-12-15T14:28:25.000Z</time>
      </trkpt>
      <trkpt lat="43.61678" lon="6.37687">
        <ele>631.2</ele>
        <time>2021-12-15T14:28:26.000Z</time>
      </trkpt>
      <trkpt lat="43.61679" lon="6.37686">
        <ele>631.3</ele>
        <time>2021-12-15T14:28:44.000Z</time>
      </trkpt>
      <trkpt lat="43.61688" lon="6.37687">
        <ele>630.9</ele>
        <time>2021-12-15T14:28:57.000Z</time>
      </trkpt>
      <trkpt lat="43.6169" lon="6.37688">
        <ele>631</ele>
        <time>2021-12-15T14:29:01.000Z</time>
      </trkpt>
      <trkpt lat="43.6169" lon="6.37688">
        <ele>631.3</ele>
        <time>2021-12-15T14:29:02.000Z</time>
      </trkpt>
      <trkpt lat="43.61699" lon="6.37689">
        <ele>631</ele>
        <time>2021-12-15T14:29:17.000Z</time>
      </trkpt>
      <trkpt lat="43.61707" lon="6.37695">
        <ele>631.1</ele>
        <time>2021-12-15T14:29:28.000Z</time>
      </trkpt>
      <trkpt lat="43.61714" lon="6.37704">
        <ele>631.2</ele>
        <time>2021-12-15T14:29:38.000Z</time>
      </trkpt>
      <trkpt lat="43.61715" lon="6.37706">
        <ele>631.1</ele>
        <time>2021-12-15T14:29:42.000Z</time>
      </trkpt>
      <trkpt lat="43.61715" lon="6.37706">
        <ele>631.8</ele>
        <time>2021-12-15T14:29:43.000Z</time>
      </trkpt>
      <trkpt lat="43.61713" lon="6.37702">
        <ele>631.3</ele>
        <time>2021-12-15T14:29:51.000Z</time>
      </trkpt>
      <trkpt lat="43.61713" lon="6.37702">
        <ele>631.2</ele>
        <time>2021-12-15T14:29:53.000Z</time>
      </trkpt>
      <trkpt lat="43.61707" lon="6.37692">
        <ele>631.1</ele>
        <time>2021-12-15T14:30:12.000Z</time>
      </trkpt>
      <trkpt lat="43.61707" lon="6.37679">
        <ele>630.9</ele>
        <time>2021-12-15T14:30:28.000Z</time>
      </trkpt>
      <trkpt lat="43.61711" lon="6.37668">
        <ele>630.2</ele>
        <time>2021-12-15T14:30:38.000Z</time>
      </trkpt>
      <trkpt lat="43.61718" lon="6.37659">
        <ele>629.7</ele>
        <time>2021-12-15T14:30:48.000Z</time>
      </trkpt>
      <trkpt lat="43.61723" lon="6.3765">
        <ele>628.8</ele>
        <time>2021-12-15T14:31:01.000Z</time>
      </trkpt>
      <trkpt lat="43.61733" lon="6.37648">
        <ele>628.2</ele>
        <time>2021-12-15T14:31:12.000Z</time>
      </trkpt>
      <trkpt lat="43.61738" lon="6.37638">
        <ele>628.1</ele>
        <time>2021-12-15T14:31:22.000Z</time>
      </trkpt>
      <trkpt lat="43.61742" lon="6.37626">
        <ele>627</ele>
        <time>2021-12-15T14:31:33.000Z</time>
      </trkpt>
      <trkpt lat="43.61742" lon="6.37619">
        <ele>626.8</ele>
        <time>2021-12-15T14:31:40.000Z</time>
      </trkpt>
      <trkpt lat="43.61742" lon="6.37618">
        <ele>626.8</ele>
        <time>2021-12-15T14:31:41.000Z</time>
      </trkpt>
      <trkpt lat="43.61744" lon="6.37606">
        <ele>626.1</ele>
        <time>2021-12-15T14:31:52.000Z</time>
      </trkpt>
      <trkpt lat="43.61742" lon="6.37592">
        <ele>625.7</ele>
        <time>2021-12-15T14:32:00.000Z</time>
      </trkpt>
      <trkpt lat="43.61741" lon="6.3758">
        <ele>625.4</ele>
        <time>2021-12-15T14:32:09.000Z</time>
      </trkpt>
      <trkpt lat="43.6174" lon="6.37567">
        <ele>624.8</ele>
        <time>2021-12-15T14:32:20.000Z</time>
      </trkpt>
      <trkpt lat="43.61741" lon="6.37554">
        <ele>624.3</ele>
        <time>2021-12-15T14:32:29.000Z</time>
      </trkpt>
      <trkpt lat="43.61745" lon="6.37551">
        <ele>623</ele>
        <time>2021-12-15T14:32:37.000Z</time>
      </trkpt>
      <trkpt lat="43.61745" lon="6.37551">
        <ele>623.5</ele>
        <time>2021-12-15T14:32:51.000Z</time>
      </trkpt>
      <trkpt lat="43.61745" lon="6.37551">
        <ele>623.4</ele>
        <time>2021-12-15T14:32:52.000Z</time>
      </trkpt>
      <trkpt lat="43.61745" lon="6.37551">
        <ele>623.5</ele>
        <time>2021-12-15T14:32:53.000Z</time>
      </trkpt>
      <trkpt lat="43.61744" lon="6.37552">
        <ele>623.4</ele>
        <time>2021-12-15T14:32:55.000Z</time>
      </trkpt>
      <trkpt lat="43.61744" lon="6.37552">
        <ele>623.3</ele>
        <time>2021-12-15T14:32:58.000Z</time>
      </trkpt>
      <trkpt lat="43.61744" lon="6.37552">
        <ele>623.3</ele>
        <time>2021-12-15T14:32:59.000Z</time>
      </trkpt>
      <trkpt lat="43.61744" lon="6.37552">
        <ele>623.3</ele>
        <time>2021-12-15T14:33:10.000Z</time>
      </trkpt>
      <trkpt lat="43.61744" lon="6.37552">
        <ele>623.4</ele>
        <time>2021-12-15T14:33:11.000Z</time>
      </trkpt>
      <trkpt lat="43.61744" lon="6.37552">
        <ele>623.2</ele>
        <time>2021-12-15T14:33:25.000Z</time>
      </trkpt>
      <trkpt lat="43.61744" lon="6.37552">
        <ele>623.2</ele>
        <time>2021-12-15T14:33:26.000Z</time>
      </trkpt>
      <trkpt lat="43.61744" lon="6.37552">
        <ele>623.1</ele>
        <time>2021-12-15T14:33:29.000Z</time>
      </trkpt>
      <trkpt lat="43.61744" lon="6.37552">
        <ele>623.1</ele>
        <time>2021-12-15T14:33:30.000Z</time>
      </trkpt>
      <trkpt lat="43.61744" lon="6.37553">
        <ele>622.2</ele>
        <time>2021-12-15T14:33:38.000Z</time>
      </trkpt>
      <trkpt lat="43.6175" lon="6.37551">
        <ele>622.5</ele>
        <time>2021-12-15T14:33:47.000Z</time>
      </trkpt>
      <trkpt lat="43.61749" lon="6.37551">
        <ele>622.7</ele>
        <time>2021-12-15T14:33:48.000Z</time>
      </trkpt>
      <trkpt lat="43.61759" lon="6.37546">
        <ele>621.2</ele>
        <time>2021-12-15T14:34:00.000Z</time>
      </trkpt>
      <trkpt lat="43.61769" lon="6.37544">
        <ele>620.6</ele>
        <time>2021-12-15T14:34:06.000Z</time>
      </trkpt>
      <trkpt lat="43.61778" lon="6.37543">
        <ele>620.4</ele>
        <time>2021-12-15T14:34:16.000Z</time>
      </trkpt>
      <trkpt lat="43.61788" lon="6.37546">
        <ele>619.7</ele>
        <time>2021-12-15T14:34:25.000Z</time>
      </trkpt>
      <trkpt lat="43.61796" lon="6.37552">
        <ele>618.4</ele>
        <time>2021-12-15T14:34:39.000Z</time>
      </trkpt>
      <trkpt lat="43.61796" lon="6.37552">
        <ele>618</ele>
        <time>2021-12-15T14:34:40.000Z</time>
      </trkpt>
      <trkpt lat="43.61805" lon="6.37556">
        <ele>616.8</ele>
        <time>2021-12-15T14:34:53.000Z</time>
      </trkpt>
      <trkpt lat="43.61813" lon="6.3756">
        <ele>616.1</ele>
        <time>2021-12-15T14:35:03.000Z</time>
      </trkpt>
      <trkpt lat="43.61822" lon="6.37564">
        <ele>615.3</ele>
        <time>2021-12-15T14:35:12.000Z</time>
      </trkpt>
      <trkpt lat="43.6183" lon="6.37572">
        <ele>615.5</ele>
        <time>2021-12-15T14:35:20.000Z</time>
      </trkpt>
      <trkpt lat="43.61837" lon="6.37581">
        <ele>615.4</ele>
        <time>2021-12-15T14:35:28.000Z</time>
      </trkpt>
      <trkpt lat="43.61842" lon="6.37587">
        <ele>615.2</ele>
        <time>2021-12-15T14:35:36.000Z</time>
      </trkpt>
      <trkpt lat="43.61842" lon="6.37587">
        <ele>615</ele>
        <time>2021-12-15T14:35:37.000Z</time>
      </trkpt>
      <trkpt lat="43.61851" lon="6.37594">
        <ele>614.4</ele>
        <time>2021-12-15T14:35:50.000Z</time>
      </trkpt>
      <trkpt lat="43.61859" lon="6.37599">
        <ele>613.8</ele>
        <time>2021-12-15T14:35:58.000Z</time>
      </trkpt>
      <trkpt lat="43.61867" lon="6.37606">
        <ele>613.9</ele>
        <time>2021-12-15T14:36:07.000Z</time>
      </trkpt>
      <trkpt lat="43.61875" lon="6.37613">
        <ele>613.7</ele>
        <time>2021-12-15T14:36:16.000Z</time>
      </trkpt>
      <trkpt lat="43.61882" lon="6.37623">
        <ele>612.8</ele>
        <time>2021-12-15T14:36:27.000Z</time>
      </trkpt>
      <trkpt lat="43.61891" lon="6.37629">
        <ele>611.7</ele>
        <time>2021-12-15T14:36:36.000Z</time>
      </trkpt>
      <trkpt lat="43.619" lon="6.3763">
        <ele>611</ele>
        <time>2021-12-15T14:36:45.000Z</time>
      </trkpt>
      <trkpt lat="43.61909" lon="6.37633">
        <ele>609.5</ele>
        <time>2021-12-15T14:37:09.000Z</time>
      </trkpt>
      <trkpt lat="43.61916" lon="6.37627">
        <ele>610</ele>
        <time>2021-12-15T14:37:29.000Z</time>
      </trkpt>
      <trkpt lat="43.61916" lon="6.37627">
        <ele>609.7</ele>
        <time>2021-12-15T14:37:42.000Z</time>
      </trkpt>
      <trkpt lat="43.61922" lon="6.37635">
        <ele>609.2</ele>
        <time>2021-12-15T14:37:59.000Z</time>
      </trkpt>
      <trkpt lat="43.61922" lon="6.37635">
        <ele>609.2</ele>
        <time>2021-12-15T14:38:00.000Z</time>
      </trkpt>
      <trkpt lat="43.61931" lon="6.37628">
        <ele>608.2</ele>
        <time>2021-12-15T14:38:09.000Z</time>
      </trkpt>
      <trkpt lat="43.6194" lon="6.37621">
        <ele>608.4</ele>
        <time>2021-12-15T14:38:19.000Z</time>
      </trkpt>
      <trkpt lat="43.61945" lon="6.37615">
        <ele>608.2</ele>
        <time>2021-12-15T14:38:29.000Z</time>
      </trkpt>
      <trkpt lat="43.61945" lon="6.37615">
        <ele>608.1</ele>
        <time>2021-12-15T14:38:36.000Z</time>
      </trkpt>
      <trkpt lat="43.61952" lon="6.37605">
        <ele>607.9</ele>
        <time>2021-12-15T14:38:48.000Z</time>
      </trkpt>
      <trkpt lat="43.61958" lon="6.37595">
        <ele>607.3</ele>
        <time>2021-12-15T14:38:57.000Z</time>
      </trkpt>
      <trkpt lat="43.61964" lon="6.37586">
        <ele>606.5</ele>
        <time>2021-12-15T14:39:07.000Z</time>
      </trkpt>
      <trkpt lat="43.6197" lon="6.37575">
        <ele>604.7</ele>
        <time>2021-12-15T14:39:18.000Z</time>
      </trkpt>
      <trkpt lat="43.61976" lon="6.37565">
        <ele>603.5</ele>
        <time>2021-12-15T14:39:26.000Z</time>
      </trkpt>
      <trkpt lat="43.61979" lon="6.37552">
        <ele>603</ele>
        <time>2021-12-15T14:39:34.000Z</time>
      </trkpt>
      <trkpt lat="43.61981" lon="6.37539">
        <ele>602.7</ele>
        <time>2021-12-15T14:39:43.000Z</time>
      </trkpt>
      <trkpt lat="43.61981" lon="6.37525">
        <ele>601.9</ele>
        <time>2021-12-15T14:39:51.000Z</time>
      </trkpt>
      <trkpt lat="43.61978" lon="6.37514">
        <ele>601</ele>
        <time>2021-12-15T14:39:59.000Z</time>
      </trkpt>
      <trkpt lat="43.61973" lon="6.37503">
        <ele>600.1</ele>
        <time>2021-12-15T14:40:10.000Z</time>
      </trkpt>
      <trkpt lat="43.6197" lon="6.37491">
        <ele>599.7</ele>
        <time>2021-12-15T14:40:22.000Z</time>
      </trkpt>
      <trkpt lat="43.61967" lon="6.37479">
        <ele>599.3</ele>
        <time>2021-12-15T14:40:32.000Z</time>
      </trkpt>
      <trkpt lat="43.61964" lon="6.37476">
        <ele>599.5</ele>
        <time>2021-12-15T14:40:41.000Z</time>
      </trkpt>
      <trkpt lat="43.61965" lon="6.37476">
        <ele>599.4</ele>
        <time>2021-12-15T14:40:42.000Z</time>
      </trkpt>
      <trkpt lat="43.61965" lon="6.37476">
        <ele>599.3</ele>
        <time>2021-12-15T14:40:45.000Z</time>
      </trkpt>
      <trkpt lat="43.61965" lon="6.37476">
        <ele>599.5</ele>
        <time>2021-12-15T14:40:46.000Z</time>
      </trkpt>
      <trkpt lat="43.61965" lon="6.37476">
        <ele>599.5</ele>
        <time>2021-12-15T14:40:47.000Z</time>
      </trkpt>
      <trkpt lat="43.61965" lon="6.37476">
        <ele>599.3</ele>
        <time>2021-12-15T14:40:54.000Z</time>
      </trkpt>
      <trkpt lat="43.61958" lon="6.37467">
        <ele>599.6</ele>
        <time>2021-12-15T14:41:04.000Z</time>
      </trkpt>
      <trkpt lat="43.61956" lon="6.37461">
        <ele>600</ele>
        <time>2021-12-15T14:41:14.000Z</time>
      </trkpt>
      <trkpt lat="43.61956" lon="6.37461">
        <ele>600.4</ele>
        <time>2021-12-15T14:41:15.000Z</time>
      </trkpt>
      <trkpt lat="43.61955" lon="6.37456">
        <ele>600</ele>
        <time>2021-12-15T14:41:20.000Z</time>
      </trkpt>
      <trkpt lat="43.61955" lon="6.37456">
        <ele>600</ele>
        <time>2021-12-15T14:41:25.000Z</time>
      </trkpt>
      <trkpt lat="43.61954" lon="6.37456">
        <ele>600</ele>
        <time>2021-12-15T14:41:28.000Z</time>
      </trkpt>
      <trkpt lat="43.61954" lon="6.37455">
        <ele>600</ele>
        <time>2021-12-15T14:41:35.000Z</time>
      </trkpt>
      <trkpt lat="43.61951" lon="6.37451">
        <ele>599.5</ele>
        <time>2021-12-15T14:41:43.000Z</time>
      </trkpt>
      <trkpt lat="43.6195" lon="6.37451">
        <ele>599.6</ele>
        <time>2021-12-15T14:41:44.000Z</time>
      </trkpt>
      <trkpt lat="43.61952" lon="6.37453">
        <ele>599.8</ele>
        <time>2021-12-15T14:41:53.000Z</time>
      </trkpt>
      <trkpt lat="43.61952" lon="6.37453">
        <ele>599.9</ele>
        <time>2021-12-15T14:41:54.000Z</time>
      </trkpt>
      <trkpt lat="43.61952" lon="6.37453">
        <ele>600</ele>
        <time>2021-12-15T14:41:55.000Z</time>
      </trkpt>
      <trkpt lat="43.61952" lon="6.37454">
        <ele>599.4</ele>
        <time>2021-12-15T14:42:00.000Z</time>
      </trkpt>
      <trkpt lat="43.61953" lon="6.37457">
        <ele>599.8</ele>
        <time>2021-12-15T14:42:05.000Z</time>
      </trkpt>
      <trkpt lat="43.61953" lon="6.37457">
        <ele>599.7</ele>
        <time>2021-12-15T14:42:10.000Z</time>
      </trkpt>
      <trkpt lat="43.61953" lon="6.37458">
        <ele>600.1</ele>
        <time>2021-12-15T14:42:13.000Z</time>
      </trkpt>
      <trkpt lat="43.61953" lon="6.37459">
        <ele>600</ele>
        <time>2021-12-15T14:42:21.000Z</time>
      </trkpt>
      <trkpt lat="43.6196" lon="6.37469">
        <ele>600</ele>
        <time>2021-12-15T14:42:38.000Z</time>
      </trkpt>
      <trkpt lat="43.61962" lon="6.3747">
        <ele>599.6</ele>
        <time>2021-12-15T14:42:45.000Z</time>
      </trkpt>
      <trkpt lat="43.61963" lon="6.3747">
        <ele>599.6</ele>
        <time>2021-12-15T14:42:49.000Z</time>
      </trkpt>
      <trkpt lat="43.61964" lon="6.3747">
        <ele>599.5</ele>
        <time>2021-12-15T14:42:54.000Z</time>
      </trkpt>
      <trkpt lat="43.61964" lon="6.3747">
        <ele>599.4</ele>
        <time>2021-12-15T14:42:55.000Z</time>
      </trkpt>
      <trkpt lat="43.61966" lon="6.37457">
        <ele>599.9</ele>
        <time>2021-12-15T14:43:13.000Z</time>
      </trkpt>
      <trkpt lat="43.61964" lon="6.37451">
        <ele>599.8</ele>
        <time>2021-12-15T14:43:25.000Z</time>
      </trkpt>
      <trkpt lat="43.61964" lon="6.37451">
        <ele>599.7</ele>
        <time>2021-12-15T14:43:27.000Z</time>
      </trkpt>
      <trkpt lat="43.61964" lon="6.37451">
        <ele>599.7</ele>
        <time>2021-12-15T14:43:28.000Z</time>
      </trkpt>
      <trkpt lat="43.61964" lon="6.3745">
        <ele>599.6</ele>
        <time>2021-12-15T14:43:29.000Z</time>
      </trkpt>
      <trkpt lat="43.61964" lon="6.37448">
        <ele>599.5</ele>
        <time>2021-12-15T14:43:35.000Z</time>
      </trkpt>
      <trkpt lat="43.61964" lon="6.37448">
        <ele>599.6</ele>
        <time>2021-12-15T14:43:36.000Z</time>
      </trkpt>
      <trkpt lat="43.61963" lon="6.37447">
        <ele>599.9</ele>
        <time>2021-12-15T14:43:40.000Z</time>
      </trkpt>
      <trkpt lat="43.61963" lon="6.37447">
        <ele>600</ele>
        <time>2021-12-15T14:43:41.000Z</time>
      </trkpt>
      <trkpt lat="43.61963" lon="6.37446">
        <ele>599.6</ele>
        <time>2021-12-15T14:43:45.000Z</time>
      </trkpt>
      <trkpt lat="43.61963" lon="6.37446">
        <ele>599.8</ele>
        <time>2021-12-15T14:43:46.000Z</time>
      </trkpt>
      <trkpt lat="43.61959" lon="6.37435">
        <ele>599.3</ele>
        <time>2021-12-15T14:44:03.000Z</time>
      </trkpt>
      <trkpt lat="43.61959" lon="6.37436">
        <ele>599.3</ele>
        <time>2021-12-15T14:44:08.000Z</time>
      </trkpt>
      <trkpt lat="43.61956" lon="6.37435">
        <ele>598.7</ele>
        <time>2021-12-15T14:44:14.000Z</time>
      </trkpt>
      <trkpt lat="43.61956" lon="6.37434">
        <ele>598.6</ele>
        <time>2021-12-15T14:44:15.000Z</time>
      </trkpt>
      <trkpt lat="43.61956" lon="6.37433">
        <ele>598.7</ele>
        <time>2021-12-15T14:44:18.000Z</time>
      </trkpt>
      <trkpt lat="43.61956" lon="6.37432">
        <ele>598.5</ele>
        <time>2021-12-15T14:44:20.000Z</time>
      </trkpt>
      <trkpt lat="43.61956" lon="6.37429">
        <ele>598.6</ele>
        <time>2021-12-15T14:44:25.000Z</time>
      </trkpt>
      <trkpt lat="43.61956" lon="6.37429">
        <ele>598.6</ele>
        <time>2021-12-15T14:44:35.000Z</time>
      </trkpt>
      <trkpt lat="43.61955" lon="6.37427">
        <ele>598.7</ele>
        <time>2021-12-15T14:44:39.000Z</time>
      </trkpt>
      <trkpt lat="43.61954" lon="6.37427">
        <ele>598.9</ele>
        <time>2021-12-15T14:44:40.000Z</time>
      </trkpt>
      <trkpt lat="43.61952" lon="6.37415">
        <ele>598.9</ele>
        <time>2021-12-15T14:44:54.000Z</time>
      </trkpt>
      <trkpt lat="43.6195" lon="6.37406">
        <ele>598.8</ele>
        <time>2021-12-15T14:45:08.000Z</time>
      </trkpt>
      <trkpt lat="43.6195" lon="6.37406">
        <ele>599</ele>
        <time>2021-12-15T14:45:14.000Z</time>
      </trkpt>
      <trkpt lat="43.6195" lon="6.37398">
        <ele>597.3</ele>
        <time>2021-12-15T14:45:25.000Z</time>
      </trkpt>
      <trkpt lat="43.61949" lon="6.37398">
        <ele>597</ele>
        <time>2021-12-15T14:45:33.000Z</time>
      </trkpt>
      <trkpt lat="43.61948" lon="6.37399">
        <ele>597.6</ele>
        <time>2021-12-15T14:45:39.000Z</time>
      </trkpt>
      <trkpt lat="43.61948" lon="6.37399">
        <ele>597.8</ele>
        <time>2021-12-15T14:45:40.000Z</time>
      </trkpt>
      <trkpt lat="43.61949" lon="6.374">
        <ele>597.4</ele>
        <time>2021-12-15T14:45:45.000Z</time>
      </trkpt>
      <trkpt lat="43.61949" lon="6.374">
        <ele>597.4</ele>
        <time>2021-12-15T14:45:46.000Z</time>
      </trkpt>
      <trkpt lat="43.6195" lon="6.37402">
        <ele>597.6</ele>
        <time>2021-12-15T14:45:55.000Z</time>
      </trkpt>
      <trkpt lat="43.61951" lon="6.37402">
        <ele>598.2</ele>
        <time>2021-12-15T14:45:58.000Z</time>
      </trkpt>
      <trkpt lat="43.61951" lon="6.37402">
        <ele>598.3</ele>
        <time>2021-12-15T14:45:59.000Z</time>
      </trkpt>
      <trkpt lat="43.6195" lon="6.37402">
        <ele>598.2</ele>
        <time>2021-12-15T14:46:00.000Z</time>
      </trkpt>
      <trkpt lat="43.61949" lon="6.37404">
        <ele>597.9</ele>
        <time>2021-12-15T14:46:10.000Z</time>
      </trkpt>
      <trkpt lat="43.61949" lon="6.37404">
        <ele>597.9</ele>
        <time>2021-12-15T14:46:11.000Z</time>
      </trkpt>
      <trkpt lat="43.61949" lon="6.37404">
        <ele>598</ele>
        <time>2021-12-15T14:46:12.000Z</time>
      </trkpt>
      <trkpt lat="43.61949" lon="6.37404">
        <ele>598.1</ele>
        <time>2021-12-15T14:46:13.000Z</time>
      </trkpt>
      <trkpt lat="43.61949" lon="6.37403">
        <ele>598</ele>
        <time>2021-12-15T14:46:15.000Z</time>
      </trkpt>
      <trkpt lat="43.61949" lon="6.37403">
        <ele>598.5</ele>
        <time>2021-12-15T14:46:21.000Z</time>
      </trkpt>
      <trkpt lat="43.61949" lon="6.37403">
        <ele>597.2</ele>
        <time>2021-12-15T14:46:27.000Z</time>
      </trkpt>
      <trkpt lat="43.61949" lon="6.37403">
        <ele>597.6</ele>
        <time>2021-12-15T14:46:29.000Z</time>
      </trkpt>
      <trkpt lat="43.6195" lon="6.37402">
        <ele>598.2</ele>
        <time>2021-12-15T14:46:31.000Z</time>
      </trkpt>
      <trkpt lat="43.6195" lon="6.37402">
        <ele>598</ele>
        <time>2021-12-15T14:46:35.000Z</time>
      </trkpt>
      <trkpt lat="43.61947" lon="6.37402">
        <ele>597.4</ele>
        <time>2021-12-15T14:46:44.000Z</time>
      </trkpt>
      <trkpt lat="43.61947" lon="6.37402">
        <ele>597.5</ele>
        <time>2021-12-15T14:46:45.000Z</time>
      </trkpt>
      <trkpt lat="43.61947" lon="6.37402">
        <ele>597.3</ele>
        <time>2021-12-15T14:46:46.000Z</time>
      </trkpt>
      <trkpt lat="43.61947" lon="6.37402">
        <ele>596.8</ele>
        <time>2021-12-15T14:46:47.000Z</time>
      </trkpt>
      <trkpt lat="43.61947" lon="6.37399">
        <ele>596.6</ele>
        <time>2021-12-15T14:46:56.000Z</time>
      </trkpt>
      <trkpt lat="43.61947" lon="6.374">
        <ele>596.5</ele>
        <time>2021-12-15T14:46:57.000Z</time>
      </trkpt>
      <trkpt lat="43.6195" lon="6.374">
        <ele>597</ele>
        <time>2021-12-15T14:47:02.000Z</time>
      </trkpt>
      <trkpt lat="43.6195" lon="6.37401">
        <ele>597.2</ele>
        <time>2021-12-15T14:47:09.000Z</time>
      </trkpt>
      <trkpt lat="43.61945" lon="6.37401">
        <ele>592.7</ele>
        <time>2021-12-15T14:47:22.000Z</time>
      </trkpt>
      <trkpt lat="43.61945" lon="6.37402">
        <ele>592.4</ele>
        <time>2021-12-15T14:47:23.000Z</time>
      </trkpt>
      <trkpt lat="43.61945" lon="6.37404">
        <ele>596.5</ele>
        <time>2021-12-15T14:47:27.000Z</time>
      </trkpt>
      <trkpt lat="43.61945" lon="6.37405">
        <ele>595.9</ele>
        <time>2021-12-15T14:47:28.000Z</time>
      </trkpt>
      <trkpt lat="43.6195" lon="6.3741">
        <ele>597.4</ele>
        <time>2021-12-15T14:47:40.000Z</time>
      </trkpt>
      <trkpt lat="43.6195" lon="6.3741">
        <ele>597.2</ele>
        <time>2021-12-15T14:47:43.000Z</time>
      </trkpt>
      <trkpt lat="43.61951" lon="6.37409">
        <ele>597.3</ele>
        <time>2021-12-15T14:47:47.000Z</time>
      </trkpt>
      <trkpt lat="43.61951" lon="6.37409">
        <ele>597.2</ele>
        <time>2021-12-15T14:47:49.000Z</time>
      </trkpt>
      <trkpt lat="43.61952" lon="6.37407">
        <ele>597.1</ele>
        <time>2021-12-15T14:47:56.000Z</time>
      </trkpt>
      <trkpt lat="43.61952" lon="6.37407">
        <ele>596.5</ele>
        <time>2021-12-15T14:47:59.000Z</time>
      </trkpt>
      <trkpt lat="43.61946" lon="6.374">
        <ele>595.7</ele>
        <time>2021-12-15T14:48:13.000Z</time>
      </trkpt>
      <trkpt lat="43.61946" lon="6.374">
        <ele>595.5</ele>
        <time>2021-12-15T14:48:14.000Z</time>
      </trkpt>
      <trkpt lat="43.61946" lon="6.374">
        <ele>595.5</ele>
        <time>2021-12-15T14:48:15.000Z</time>
      </trkpt>
      <trkpt lat="43.61946" lon="6.37399">
        <ele>595.6</ele>
        <time>2021-12-15T14:48:21.000Z</time>
      </trkpt>
      <trkpt lat="43.61946" lon="6.37399">
        <ele>595.7</ele>
        <time>2021-12-15T14:48:22.000Z</time>
      </trkpt>
      <trkpt lat="43.61946" lon="6.37399">
        <ele>595.7</ele>
        <time>2021-12-15T14:48:24.000Z</time>
      </trkpt>
      <trkpt lat="43.61946" lon="6.37399">
        <ele>595.6</ele>
        <time>2021-12-15T14:48:25.000Z</time>
      </trkpt>
      <trkpt lat="43.61946" lon="6.37399">
        <ele>595.5</ele>
        <time>2021-12-15T14:48:29.000Z</time>
      </trkpt>
      <trkpt lat="43.61946" lon="6.37398">
        <ele>596</ele>
        <time>2021-12-15T14:48:31.000Z</time>
      </trkpt>
      <trkpt lat="43.61946" lon="6.37399">
        <ele>597.1</ele>
        <time>2021-12-15T14:48:34.000Z</time>
      </trkpt>
      <trkpt lat="43.61946" lon="6.37399">
        <ele>597.3</ele>
        <time>2021-12-15T14:48:35.000Z</time>
      </trkpt>
      <trkpt lat="43.61946" lon="6.37399">
        <ele>596.1</ele>
        <time>2021-12-15T14:48:48.000Z</time>
      </trkpt>
      <trkpt lat="43.61946" lon="6.37399">
        <ele>596.2</ele>
        <time>2021-12-15T14:48:49.000Z</time>
      </trkpt>
      <trkpt lat="43.61946" lon="6.37399">
        <ele>596.2</ele>
        <time>2021-12-15T14:49:07.000Z</time>
      </trkpt>
      <trkpt lat="43.61946" lon="6.37399">
        <ele>596.2</ele>
        <time>2021-12-15T14:49:09.000Z</time>
      </trkpt>
      <trkpt lat="43.61946" lon="6.37399">
        <ele>596.5</ele>
        <time>2021-12-15T14:49:25.000Z</time>
      </trkpt>
      <trkpt lat="43.61946" lon="6.37399">
        <ele>596.4</ele>
        <time>2021-12-15T14:49:26.000Z</time>
      </trkpt>
      <trkpt lat="43.61946" lon="6.37399">
        <ele>596.1</ele>
        <time>2021-12-15T14:49:28.000Z</time>
      </trkpt>
      <trkpt lat="43.61946" lon="6.37399">
        <ele>596.3</ele>
        <time>2021-12-15T14:49:30.000Z</time>
      </trkpt>
      <trkpt lat="43.61946" lon="6.374">
        <ele>596.3</ele>
        <time>2021-12-15T14:49:32.000Z</time>
      </trkpt>
      <trkpt lat="43.61946" lon="6.374">
        <ele>596.3</ele>
        <time>2021-12-15T14:49:34.000Z</time>
      </trkpt>
      <trkpt lat="43.61946" lon="6.374">
        <ele>596.5</ele>
        <time>2021-12-15T14:50:09.000Z</time>
      </trkpt>
      <trkpt lat="43.61946" lon="6.374">
        <ele>596.6</ele>
        <time>2021-12-15T14:50:10.000Z</time>
      </trkpt>
      <trkpt lat="43.61946" lon="6.37399">
        <ele>596.2</ele>
        <time>2021-12-15T14:50:40.000Z</time>
      </trkpt>
      <trkpt lat="43.61946" lon="6.37399">
        <ele>596.1</ele>
        <time>2021-12-15T14:50:41.000Z</time>
      </trkpt>
      <trkpt lat="43.61946" lon="6.37399">
        <ele>595.9</ele>
        <time>2021-12-15T14:50:42.000Z</time>
      </trkpt>
      <trkpt lat="43.61946" lon="6.374">
        <ele>596</ele>
        <time>2021-12-15T14:50:47.000Z</time>
      </trkpt>
      <trkpt lat="43.61946" lon="6.374">
        <ele>595.8</ele>
        <time>2021-12-15T14:50:55.000Z</time>
      </trkpt>
      <trkpt lat="43.61946" lon="6.374">
        <ele>596.1</ele>
        <time>2021-12-15T14:50:56.000Z</time>
      </trkpt>
      <trkpt lat="43.61946" lon="6.374">
        <ele>596.3</ele>
        <time>2021-12-15T14:50:57.000Z</time>
      </trkpt>
      <trkpt lat="43.61946" lon="6.374">
        <ele>595.7</ele>
        <time>2021-12-15T14:51:01.000Z</time>
      </trkpt>
      <trkpt lat="43.61947" lon="6.37399">
        <ele>595.3</ele>
        <time>2021-12-15T14:51:02.000Z</time>
      </trkpt>
      <trkpt lat="43.61944" lon="6.37405">
        <ele>595</ele>
        <time>2021-12-15T14:51:18.000Z</time>
      </trkpt>
      <trkpt lat="43.61944" lon="6.37405">
        <ele>595.2</ele>
        <time>2021-12-15T14:51:20.000Z</time>
      </trkpt>
      <trkpt lat="43.61944" lon="6.37405">
        <ele>595.2</ele>
        <time>2021-12-15T14:51:23.000Z</time>
      </trkpt>
      <trkpt lat="43.61944" lon="6.37405">
        <ele>595</ele>
        <time>2021-12-15T14:51:27.000Z</time>
      </trkpt>
      <trkpt lat="43.61944" lon="6.37405">
        <ele>595</ele>
        <time>2021-12-15T14:51:28.000Z</time>
      </trkpt>
      <trkpt lat="43.61944" lon="6.37405">
        <ele>595.1</ele>
        <time>2021-12-15T14:51:29.000Z</time>
      </trkpt>
      <trkpt lat="43.61947" lon="6.37393">
        <ele>594.2</ele>
        <time>2021-12-15T14:51:51.000Z</time>
      </trkpt>
      <trkpt lat="43.6195" lon="6.37383">
        <ele>594.8</ele>
        <time>2021-12-15T14:52:12.000Z</time>
      </trkpt>
      <trkpt lat="43.6195" lon="6.37383">
        <ele>594.7</ele>
        <time>2021-12-15T14:52:17.000Z</time>
      </trkpt>
      <trkpt lat="43.6195" lon="6.37373">
        <ele>594.4</ele>
        <time>2021-12-15T14:52:31.000Z</time>
      </trkpt>
      <trkpt lat="43.6195" lon="6.37372">
        <ele>594.4</ele>
        <time>2021-12-15T14:52:33.000Z</time>
      </trkpt>
      <trkpt lat="43.61946" lon="6.37361">
        <ele>594.3</ele>
        <time>2021-12-15T14:52:45.000Z</time>
      </trkpt>
      <trkpt lat="43.61943" lon="6.37349">
        <ele>593.9</ele>
        <time>2021-12-15T14:52:54.000Z</time>
      </trkpt>
      <trkpt lat="43.61943" lon="6.37341">
        <ele>593.5</ele>
        <time>2021-12-15T14:53:08.000Z</time>
      </trkpt>
      <trkpt lat="43.61943" lon="6.37341">
        <ele>593.8</ele>
        <time>2021-12-15T14:53:09.000Z</time>
      </trkpt>
      <trkpt lat="43.61942" lon="6.3734">
        <ele>593.7</ele>
        <time>2021-12-15T14:53:13.000Z</time>
      </trkpt>
      <trkpt lat="43.61942" lon="6.37341">
        <ele>593.7</ele>
        <time>2021-12-15T14:53:20.000Z</time>
      </trkpt>
      <trkpt lat="43.61942" lon="6.3734">
        <ele>593.3</ele>
        <time>2021-12-15T14:53:27.000Z</time>
      </trkpt>
      <trkpt lat="43.61941" lon="6.3734">
        <ele>593.5</ele>
        <time>2021-12-15T14:53:31.000Z</time>
      </trkpt>
      <trkpt lat="43.61941" lon="6.3734">
        <ele>593.7</ele>
        <time>2021-12-15T14:53:32.000Z</time>
      </trkpt>
      <trkpt lat="43.61941" lon="6.37339">
        <ele>593.4</ele>
        <time>2021-12-15T14:53:38.000Z</time>
      </trkpt>
      <trkpt lat="43.61941" lon="6.37339">
        <ele>593.4</ele>
        <time>2021-12-15T14:53:39.000Z</time>
      </trkpt>
      <trkpt lat="43.61941" lon="6.37339">
        <ele>593.5</ele>
        <time>2021-12-15T14:53:40.000Z</time>
      </trkpt>
      <trkpt lat="43.61939" lon="6.37326">
        <ele>593.2</ele>
        <time>2021-12-15T14:54:04.000Z</time>
      </trkpt>
      <trkpt lat="43.61936" lon="6.37315">
        <ele>593.7</ele>
        <time>2021-12-15T14:54:20.000Z</time>
      </trkpt>
      <trkpt lat="43.61936" lon="6.37314">
        <ele>593.5</ele>
        <time>2021-12-15T14:54:30.000Z</time>
      </trkpt>
      <trkpt lat="43.61936" lon="6.37314">
        <ele>593.6</ele>
        <time>2021-12-15T14:54:31.000Z</time>
      </trkpt>
      <trkpt lat="43.61936" lon="6.37314">
        <ele>593.8</ele>
        <time>2021-12-15T14:54:32.000Z</time>
      </trkpt>
      <trkpt lat="43.61936" lon="6.37311">
        <ele>593.6</ele>
        <time>2021-12-15T14:54:36.000Z</time>
      </trkpt>
      <trkpt lat="43.61936" lon="6.37311">
        <ele>593.5</ele>
        <time>2021-12-15T14:54:37.000Z</time>
      </trkpt>
      <trkpt lat="43.61936" lon="6.3731">
        <ele>593.3</ele>
        <time>2021-12-15T14:54:41.000Z</time>
      </trkpt>
      <trkpt lat="43.61937" lon="6.37309">
        <ele>593.2</ele>
        <time>2021-12-15T14:54:44.000Z</time>
      </trkpt>
      <trkpt lat="43.61937" lon="6.37313">
        <ele>593</ele>
        <time>2021-12-15T14:54:48.000Z</time>
      </trkpt>
      <trkpt lat="43.61937" lon="6.37314">
        <ele>593.2</ele>
        <time>2021-12-15T14:54:49.000Z</time>
      </trkpt>
      <trkpt lat="43.61937" lon="6.37314">
        <ele>593.2</ele>
        <time>2021-12-15T14:54:52.000Z</time>
      </trkpt>
      <trkpt lat="43.61937" lon="6.37314">
        <ele>593.2</ele>
        <time>2021-12-15T14:54:53.000Z</time>
      </trkpt>
      <trkpt lat="43.61937" lon="6.37314">
        <ele>593</ele>
        <time>2021-12-15T14:54:55.000Z</time>
      </trkpt>
      <trkpt lat="43.61937" lon="6.37315">
        <ele>593</ele>
        <time>2021-12-15T14:54:58.000Z</time>
      </trkpt>
      <trkpt lat="43.61937" lon="6.37315">
        <ele>593</ele>
        <time>2021-12-15T14:54:59.000Z</time>
      </trkpt>
      <trkpt lat="43.61937" lon="6.37315">
        <ele>592.9</ele>
        <time>2021-12-15T14:55:01.000Z</time>
      </trkpt>
      <trkpt lat="43.61938" lon="6.3731">
        <ele>592.9</ele>
        <time>2021-12-15T14:55:09.000Z</time>
      </trkpt>
      <trkpt lat="43.61939" lon="6.3731">
        <ele>592.9</ele>
        <time>2021-12-15T14:55:14.000Z</time>
      </trkpt>
      <trkpt lat="43.61939" lon="6.3731">
        <ele>592.9</ele>
        <time>2021-12-15T14:55:15.000Z</time>
      </trkpt>
      <trkpt lat="43.61939" lon="6.37309">
        <ele>592.9</ele>
        <time>2021-12-15T14:55:17.000Z</time>
      </trkpt>
      <trkpt lat="43.61939" lon="6.37309">
        <ele>592.9</ele>
        <time>2021-12-15T14:55:19.000Z</time>
      </trkpt>
      <trkpt lat="43.61939" lon="6.37308">
        <ele>592.9</ele>
        <time>2021-12-15T14:55:21.000Z</time>
      </trkpt>
      <trkpt lat="43.61939" lon="6.37308">
        <ele>592.9</ele>
        <time>2021-12-15T14:55:23.000Z</time>
      </trkpt>
      <trkpt lat="43.6194" lon="6.37308">
        <ele>593</ele>
        <time>2021-12-15T14:55:25.000Z</time>
      </trkpt>
      <trkpt lat="43.6194" lon="6.37307">
        <ele>592.9</ele>
        <time>2021-12-15T14:55:28.000Z</time>
      </trkpt>
      <trkpt lat="43.6194" lon="6.37307">
        <ele>593</ele>
        <time>2021-12-15T14:55:29.000Z</time>
      </trkpt>
      <trkpt lat="43.6194" lon="6.37307">
        <ele>593.1</ele>
        <time>2021-12-15T14:55:31.000Z</time>
      </trkpt>
      <trkpt lat="43.61941" lon="6.37307">
        <ele>593</ele>
        <time>2021-12-15T14:55:35.000Z</time>
      </trkpt>
      <trkpt lat="43.61941" lon="6.37305">
        <ele>593.1</ele>
        <time>2021-12-15T14:55:39.000Z</time>
      </trkpt>
      <trkpt lat="43.61942" lon="6.37304">
        <ele>593.1</ele>
        <time>2021-12-15T14:55:43.000Z</time>
      </trkpt>
      <trkpt lat="43.61948" lon="6.37294">
        <ele>593.2</ele>
        <time>2021-12-15T14:56:03.000Z</time>
      </trkpt>
      <trkpt lat="43.61947" lon="6.3729">
        <ele>593</ele>
        <time>2021-12-15T14:56:10.000Z</time>
      </trkpt>
      <trkpt lat="43.61947" lon="6.3729">
        <ele>593</ele>
        <time>2021-12-15T14:56:11.000Z</time>
      </trkpt>
      <trkpt lat="43.61947" lon="6.3729">
        <ele>593</ele>
        <time>2021-12-15T14:56:12.000Z</time>
      </trkpt>
      <trkpt lat="43.61947" lon="6.3729">
        <ele>592.8</ele>
        <time>2021-12-15T14:56:17.000Z</time>
      </trkpt>
      <trkpt lat="43.61947" lon="6.3729">
        <ele>592.8</ele>
        <time>2021-12-15T14:56:20.000Z</time>
      </trkpt>
      <trkpt lat="43.61947" lon="6.3729">
        <ele>593.1</ele>
        <time>2021-12-15T14:56:21.000Z</time>
      </trkpt>
      <trkpt lat="43.61947" lon="6.3729">
        <ele>593.3</ele>
        <time>2021-12-15T14:56:23.000Z</time>
      </trkpt>
      <trkpt lat="43.61947" lon="6.3729">
        <ele>593.2</ele>
        <time>2021-12-15T14:56:24.000Z</time>
      </trkpt>
      <trkpt lat="43.61947" lon="6.3729">
        <ele>593.2</ele>
        <time>2021-12-15T14:56:26.000Z</time>
      </trkpt>
      <trkpt lat="43.61948" lon="6.3729">
        <ele>592.9</ele>
        <time>2021-12-15T14:56:31.000Z</time>
      </trkpt>
      <trkpt lat="43.61954" lon="6.37281">
        <ele>593.9</ele>
        <time>2021-12-15T14:56:50.000Z</time>
      </trkpt>
      <trkpt lat="43.61959" lon="6.3727">
        <ele>594.4</ele>
        <time>2021-12-15T14:57:05.000Z</time>
      </trkpt>
      <trkpt lat="43.61959" lon="6.3727">
        <ele>594.5</ele>
        <time>2021-12-15T14:57:06.000Z</time>
      </trkpt>
      <trkpt lat="43.61959" lon="6.37269">
        <ele>594.8</ele>
        <time>2021-12-15T14:57:08.000Z</time>
      </trkpt>
      <trkpt lat="43.6196" lon="6.37269">
        <ele>594.5</ele>
        <time>2021-12-15T14:57:10.000Z</time>
      </trkpt>
      <trkpt lat="43.61959" lon="6.37268">
        <ele>594.4</ele>
        <time>2021-12-15T14:57:12.000Z</time>
      </trkpt>
      <trkpt lat="43.61959" lon="6.37268">
        <ele>594.5</ele>
        <time>2021-12-15T14:57:13.000Z</time>
      </trkpt>
      <trkpt lat="43.6196" lon="6.37268">
        <ele>594.1</ele>
        <time>2021-12-15T14:57:15.000Z</time>
      </trkpt>
      <trkpt lat="43.6196" lon="6.37269">
        <ele>593.7</ele>
        <time>2021-12-15T14:57:18.000Z</time>
      </trkpt>
      <trkpt lat="43.6196" lon="6.37269">
        <ele>593.9</ele>
        <time>2021-12-15T14:57:19.000Z</time>
      </trkpt>
      <trkpt lat="43.61961" lon="6.37265">
        <ele>593.5</ele>
        <time>2021-12-15T14:57:29.000Z</time>
      </trkpt>
      <trkpt lat="43.61961" lon="6.37265">
        <ele>593.5</ele>
        <time>2021-12-15T14:57:30.000Z</time>
      </trkpt>
      <trkpt lat="43.61967" lon="6.37256">
        <ele>593.8</ele>
        <time>2021-12-15T14:57:47.000Z</time>
      </trkpt>
      <trkpt lat="43.61974" lon="6.3725">
        <ele>594.1</ele>
        <time>2021-12-15T14:58:03.000Z</time>
      </trkpt>
      <trkpt lat="43.61974" lon="6.37249">
        <ele>594.2</ele>
        <time>2021-12-15T14:58:04.000Z</time>
      </trkpt>
      <trkpt lat="43.61981" lon="6.3724">
        <ele>593.8</ele>
        <time>2021-12-15T14:58:18.000Z</time>
      </trkpt>
      <trkpt lat="43.61984" lon="6.37237">
        <ele>593.5</ele>
        <time>2021-12-15T14:58:30.000Z</time>
      </trkpt>
      <trkpt lat="43.61984" lon="6.37236">
        <ele>593.9</ele>
        <time>2021-12-15T14:58:32.000Z</time>
      </trkpt>
      <trkpt lat="43.61984" lon="6.37236">
        <ele>594.2</ele>
        <time>2021-12-15T14:58:34.000Z</time>
      </trkpt>
      <trkpt lat="43.61984" lon="6.37236">
        <ele>594</ele>
        <time>2021-12-15T14:58:36.000Z</time>
      </trkpt>
      <trkpt lat="43.61986" lon="6.37234">
        <ele>593.8</ele>
        <time>2021-12-15T14:58:43.000Z</time>
      </trkpt>
      <trkpt lat="43.61987" lon="6.37233">
        <ele>594</ele>
        <time>2021-12-15T14:58:44.000Z</time>
      </trkpt>
      <trkpt lat="43.61989" lon="6.37231">
        <ele>594.2</ele>
        <time>2021-12-15T14:58:51.000Z</time>
      </trkpt>
      <trkpt lat="43.61989" lon="6.37231">
        <ele>594.2</ele>
        <time>2021-12-15T14:58:58.000Z</time>
      </trkpt>
      <trkpt lat="43.61989" lon="6.37231">
        <ele>594.1</ele>
        <time>2021-12-15T14:58:59.000Z</time>
      </trkpt>
      <trkpt lat="43.61989" lon="6.37231">
        <ele>594</ele>
        <time>2021-12-15T14:59:00.000Z</time>
      </trkpt>
      <trkpt lat="43.61989" lon="6.37231">
        <ele>594</ele>
        <time>2021-12-15T14:59:01.000Z</time>
      </trkpt>
      <trkpt lat="43.61989" lon="6.3723">
        <ele>593.4</ele>
        <time>2021-12-15T14:59:18.000Z</time>
      </trkpt>
      <trkpt lat="43.61989" lon="6.3723">
        <ele>594.2</ele>
        <time>2021-12-15T14:59:20.000Z</time>
      </trkpt>
      <trkpt lat="43.61989" lon="6.3723">
        <ele>594.1</ele>
        <time>2021-12-15T14:59:22.000Z</time>
      </trkpt>
      <trkpt lat="43.61989" lon="6.3723">
        <ele>594.2</ele>
        <time>2021-12-15T14:59:23.000Z</time>
      </trkpt>
      <trkpt lat="43.61989" lon="6.37231">
        <ele>594.3</ele>
        <time>2021-12-15T14:59:25.000Z</time>
      </trkpt>
      <trkpt lat="43.61989" lon="6.37231">
        <ele>594.2</ele>
        <time>2021-12-15T14:59:26.000Z</time>
      </trkpt>
      <trkpt lat="43.61989" lon="6.37231">
        <ele>594</ele>
        <time>2021-12-15T14:59:32.000Z</time>
      </trkpt>
      <trkpt lat="43.61989" lon="6.37231">
        <ele>594.4</ele>
        <time>2021-12-15T14:59:33.000Z</time>
      </trkpt>
      <trkpt lat="43.61989" lon="6.3723">
        <ele>594.3</ele>
        <time>2021-12-15T14:59:34.000Z</time>
      </trkpt>
      <trkpt lat="43.61989" lon="6.3723">
        <ele>594</ele>
        <time>2021-12-15T14:59:36.000Z</time>
      </trkpt>
      <trkpt lat="43.61989" lon="6.3723">
        <ele>593.8</ele>
        <time>2021-12-15T14:59:38.000Z</time>
      </trkpt>
      <trkpt lat="43.61989" lon="6.3723">
        <ele>593.7</ele>
        <time>2021-12-15T14:59:39.000Z</time>
      </trkpt>
      <trkpt lat="43.61989" lon="6.3723">
        <ele>594.2</ele>
        <time>2021-12-15T14:59:44.000Z</time>
      </trkpt>
      <trkpt lat="43.6199" lon="6.37228">
        <ele>594.1</ele>
        <time>2021-12-15T14:59:48.000Z</time>
      </trkpt>
      <trkpt lat="43.6199" lon="6.37228">
        <ele>593.9</ele>
        <time>2021-12-15T14:59:51.000Z</time>
      </trkpt>
      <trkpt lat="43.6199" lon="6.37228">
        <ele>593.5</ele>
        <time>2021-12-15T14:59:53.000Z</time>
      </trkpt>
      <trkpt lat="43.6199" lon="6.37228">
        <ele>593.4</ele>
        <time>2021-12-15T14:59:54.000Z</time>
      </trkpt>
      <trkpt lat="43.6199" lon="6.37228">
        <ele>593.5</ele>
        <time>2021-12-15T14:59:55.000Z</time>
      </trkpt>
      <trkpt lat="43.6199" lon="6.37228">
        <ele>593.2</ele>
        <time>2021-12-15T14:59:59.000Z</time>
      </trkpt>
      <trkpt lat="43.6199" lon="6.37228">
        <ele>593.4</ele>
        <time>2021-12-15T15:00:00.000Z</time>
      </trkpt>
      <trkpt lat="43.6199" lon="6.37228">
        <ele>592.9</ele>
        <time>2021-12-15T15:00:05.000Z</time>
      </trkpt>
      <trkpt lat="43.6199" lon="6.37227">
        <ele>593.5</ele>
        <time>2021-12-15T15:00:07.000Z</time>
      </trkpt>
      <trkpt lat="43.6199" lon="6.37228">
        <ele>593.2</ele>
        <time>2021-12-15T15:00:10.000Z</time>
      </trkpt>
      <trkpt lat="43.6199" lon="6.37228">
        <ele>593.1</ele>
        <time>2021-12-15T15:00:12.000Z</time>
      </trkpt>
      <trkpt lat="43.6199" lon="6.37228">
        <ele>593</ele>
        <time>2021-12-15T15:00:13.000Z</time>
      </trkpt>
      <trkpt lat="43.6199" lon="6.37229">
        <ele>593</ele>
        <time>2021-12-15T15:00:15.000Z</time>
      </trkpt>
      <trkpt lat="43.6199" lon="6.37229">
        <ele>593</ele>
        <time>2021-12-15T15:00:17.000Z</time>
      </trkpt>
      <trkpt lat="43.6199" lon="6.37228">
        <ele>593</ele>
        <time>2021-12-15T15:00:19.000Z</time>
      </trkpt>
      <trkpt lat="43.6199" lon="6.37228">
        <ele>593.1</ele>
        <time>2021-12-15T15:00:20.000Z</time>
      </trkpt>
      <trkpt lat="43.6199" lon="6.37228">
        <ele>593.4</ele>
        <time>2021-12-15T15:00:21.000Z</time>
      </trkpt>
      <trkpt lat="43.6199" lon="6.37227">
        <ele>593.2</ele>
        <time>2021-12-15T15:00:22.000Z</time>
      </trkpt>
      <trkpt lat="43.6199" lon="6.37227">
        <ele>593.3</ele>
        <time>2021-12-15T15:00:25.000Z</time>
      </trkpt>
      <trkpt lat="43.6199" lon="6.37227">
        <ele>593.4</ele>
        <time>2021-12-15T15:00:27.000Z</time>
      </trkpt>
      <trkpt lat="43.61991" lon="6.37226">
        <ele>592.9</ele>
        <time>2021-12-15T15:00:31.000Z</time>
      </trkpt>
      <trkpt lat="43.61991" lon="6.37225">
        <ele>593.4</ele>
        <time>2021-12-15T15:00:34.000Z</time>
      </trkpt>
      <trkpt lat="43.61991" lon="6.37225">
        <ele>593.5</ele>
        <time>2021-12-15T15:00:35.000Z</time>
      </trkpt>
      <trkpt lat="43.61991" lon="6.37225">
        <ele>593.2</ele>
        <time>2021-12-15T15:00:40.000Z</time>
      </trkpt>
      <trkpt lat="43.61991" lon="6.37225">
        <ele>592.8</ele>
        <time>2021-12-15T15:00:41.000Z</time>
      </trkpt>
      <trkpt lat="43.61991" lon="6.37224">
        <ele>592.8</ele>
        <time>2021-12-15T15:00:42.000Z</time>
      </trkpt>
      <trkpt lat="43.61993" lon="6.37212">
        <ele>594.1</ele>
        <time>2021-12-15T15:00:56.000Z</time>
      </trkpt>
      <trkpt lat="43.61993" lon="6.37212">
        <ele>594.5</ele>
        <time>2021-12-15T15:01:00.000Z</time>
      </trkpt>
      <trkpt lat="43.61992" lon="6.37212">
        <ele>594.5</ele>
        <time>2021-12-15T15:01:01.000Z</time>
      </trkpt>
      <trkpt lat="43.61992" lon="6.37212">
        <ele>594.6</ele>
        <time>2021-12-15T15:01:03.000Z</time>
      </trkpt>
      <trkpt lat="43.61992" lon="6.37212">
        <ele>594.5</ele>
        <time>2021-12-15T15:01:09.000Z</time>
      </trkpt>
      <trkpt lat="43.61992" lon="6.37212">
        <ele>594.4</ele>
        <time>2021-12-15T15:01:10.000Z</time>
      </trkpt>
      <trkpt lat="43.61992" lon="6.37211">
        <ele>594.3</ele>
        <time>2021-12-15T15:01:11.000Z</time>
      </trkpt>
      <trkpt lat="43.61985" lon="6.37205">
        <ele>595.2</ele>
        <time>2021-12-15T15:01:22.000Z</time>
      </trkpt>
      <trkpt lat="43.61985" lon="6.37205">
        <ele>595.1</ele>
        <time>2021-12-15T15:01:24.000Z</time>
      </trkpt>
      <trkpt lat="43.61985" lon="6.37205">
        <ele>595</ele>
        <time>2021-12-15T15:01:25.000Z</time>
      </trkpt>
      <trkpt lat="43.61985" lon="6.37204">
        <ele>595.4</ele>
        <time>2021-12-15T15:01:28.000Z</time>
      </trkpt>
      <trkpt lat="43.61985" lon="6.37204">
        <ele>595.4</ele>
        <time>2021-12-15T15:01:29.000Z</time>
      </trkpt>
      <trkpt lat="43.61985" lon="6.37204">
        <ele>595.3</ele>
        <time>2021-12-15T15:01:41.000Z</time>
      </trkpt>
      <trkpt lat="43.61985" lon="6.37204">
        <ele>595.1</ele>
        <time>2021-12-15T15:01:43.000Z</time>
      </trkpt>
      <trkpt lat="43.61986" lon="6.37204">
        <ele>595.2</ele>
        <time>2021-12-15T15:01:48.000Z</time>
      </trkpt>
      <trkpt lat="43.61986" lon="6.37204">
        <ele>595.2</ele>
        <time>2021-12-15T15:01:49.000Z</time>
      </trkpt>
      <trkpt lat="43.61986" lon="6.37204">
        <ele>595.1</ele>
        <time>2021-12-15T15:02:17.000Z</time>
      </trkpt>
      <trkpt lat="43.61986" lon="6.37204">
        <ele>595.1</ele>
        <time>2021-12-15T15:02:18.000Z</time>
      </trkpt>
      <trkpt lat="43.61986" lon="6.37203">
        <ele>595.1</ele>
        <time>2021-12-15T15:02:46.000Z</time>
      </trkpt>
      <trkpt lat="43.61986" lon="6.37203">
        <ele>595</ele>
        <time>2021-12-15T15:02:47.000Z</time>
      </trkpt>
      <trkpt lat="43.61986" lon="6.37203">
        <ele>594.9</ele>
        <time>2021-12-15T15:03:10.000Z</time>
      </trkpt>
      <trkpt lat="43.61986" lon="6.37203">
        <ele>594.9</ele>
        <time>2021-12-15T15:03:12.000Z</time>
      </trkpt>
      <trkpt lat="43.61986" lon="6.37203">
        <ele>594.8</ele>
        <time>2021-12-15T15:04:08.000Z</time>
      </trkpt>
      <trkpt lat="43.61986" lon="6.37203">
        <ele>594.8</ele>
        <time>2021-12-15T15:04:09.000Z</time>
      </trkpt>
      <trkpt lat="43.61986" lon="6.37204">
        <ele>594.6</ele>
        <time>2021-12-15T15:04:31.000Z</time>
      </trkpt>
      <trkpt lat="43.61986" lon="6.37203">
        <ele>594.6</ele>
        <time>2021-12-15T15:04:32.000Z</time>
      </trkpt>
      <trkpt lat="43.61986" lon="6.37203">
        <ele>594.5</ele>
        <time>2021-12-15T15:04:45.000Z</time>
      </trkpt>
      <trkpt lat="43.61986" lon="6.37203">
        <ele>594.5</ele>
        <time>2021-12-15T15:04:46.000Z</time>
      </trkpt>
      <trkpt lat="43.61986" lon="6.37203">
        <ele>594.5</ele>
        <time>2021-12-15T15:04:47.000Z</time>
      </trkpt>
      <trkpt lat="43.61984" lon="6.3719">
        <ele>595.2</ele>
        <time>2021-12-15T15:05:00.000Z</time>
      </trkpt>
      <trkpt lat="43.61983" lon="6.37177">
        <ele>596</ele>
        <time>2021-12-15T15:05:15.000Z</time>
      </trkpt>
      <trkpt lat="43.61979" lon="6.37165">
        <ele>596.2</ele>
        <time>2021-12-15T15:05:28.000Z</time>
      </trkpt>
      <trkpt lat="43.61979" lon="6.37164">
        <ele>596.3</ele>
        <time>2021-12-15T15:05:30.000Z</time>
      </trkpt>
      <trkpt lat="43.61979" lon="6.37164">
        <ele>596.5</ele>
        <time>2021-12-15T15:05:32.000Z</time>
      </trkpt>
      <trkpt lat="43.61979" lon="6.37162">
        <ele>596.8</ele>
        <time>2021-12-15T15:05:35.000Z</time>
      </trkpt>
      <trkpt lat="43.61979" lon="6.37162">
        <ele>596.5</ele>
        <time>2021-12-15T15:05:43.000Z</time>
      </trkpt>
      <trkpt lat="43.61979" lon="6.37162">
        <ele>596.4</ele>
        <time>2021-12-15T15:05:44.000Z</time>
      </trkpt>
      <trkpt lat="43.61979" lon="6.37161">
        <ele>596.4</ele>
        <time>2021-12-15T15:05:45.000Z</time>
      </trkpt>
      <trkpt lat="43.61975" lon="6.3715">
        <ele>596.8</ele>
        <time>2021-12-15T15:05:58.000Z</time>
      </trkpt>
      <trkpt lat="43.61966" lon="6.37155">
        <ele>597.1</ele>
        <time>2021-12-15T15:06:13.000Z</time>
      </trkpt>
      <trkpt lat="43.61957" lon="6.37153">
        <ele>598.8</ele>
        <time>2021-12-15T15:06:26.000Z</time>
      </trkpt>
      <trkpt lat="43.61948" lon="6.37151">
        <ele>602</ele>
        <time>2021-12-15T15:06:47.000Z</time>
      </trkpt>
      <trkpt lat="43.6194" lon="6.37155">
        <ele>603.9</ele>
        <time>2021-12-15T15:07:02.000Z</time>
      </trkpt>
      <trkpt lat="43.61933" lon="6.3715">
        <ele>605.7</ele>
        <time>2021-12-15T15:07:18.000Z</time>
      </trkpt>
      <trkpt lat="43.61933" lon="6.37149">
        <ele>605.2</ele>
        <time>2021-12-15T15:07:20.000Z</time>
      </trkpt>
      <trkpt lat="43.61929" lon="6.37138">
        <ele>606.4</ele>
        <time>2021-12-15T15:07:32.000Z</time>
      </trkpt>
      <trkpt lat="43.6192" lon="6.37133">
        <ele>607.4</ele>
        <time>2021-12-15T15:07:42.000Z</time>
      </trkpt>
      <trkpt lat="43.61911" lon="6.3713">
        <ele>607.7</ele>
        <time>2021-12-15T15:07:53.000Z</time>
      </trkpt>
      <trkpt lat="43.61911" lon="6.3713">
        <ele>608</ele>
        <time>2021-12-15T15:07:55.000Z</time>
      </trkpt>
      <trkpt lat="43.61911" lon="6.37129">
        <ele>608.5</ele>
        <time>2021-12-15T15:07:57.000Z</time>
      </trkpt>
      <trkpt lat="43.61901" lon="6.3713">
        <ele>608.8</ele>
        <time>2021-12-15T15:08:08.000Z</time>
      </trkpt>
      <trkpt lat="43.61892" lon="6.37123">
        <ele>609.4</ele>
        <time>2021-12-15T15:08:19.000Z</time>
      </trkpt>
      <trkpt lat="43.61894" lon="6.37113">
        <ele>609.9</ele>
        <time>2021-12-15T15:08:29.000Z</time>
      </trkpt>
      <trkpt lat="43.61893" lon="6.37113">
        <ele>610.1</ele>
        <time>2021-12-15T15:08:31.000Z</time>
      </trkpt>
      <trkpt lat="43.61893" lon="6.37113">
        <ele>609.7</ele>
        <time>2021-12-15T15:08:35.000Z</time>
      </trkpt>
      <trkpt lat="43.61893" lon="6.37113">
        <ele>609.7</ele>
        <time>2021-12-15T15:08:36.000Z</time>
      </trkpt>
      <trkpt lat="43.61893" lon="6.37113">
        <ele>609.8</ele>
        <time>2021-12-15T15:08:37.000Z</time>
      </trkpt>
      <trkpt lat="43.61893" lon="6.37114">
        <ele>609.7</ele>
        <time>2021-12-15T15:08:38.000Z</time>
      </trkpt>
      <trkpt lat="43.61893" lon="6.37114">
        <ele>609.8</ele>
        <time>2021-12-15T15:08:39.000Z</time>
      </trkpt>
      <trkpt lat="43.61893" lon="6.37114">
        <ele>609.9</ele>
        <time>2021-12-15T15:08:43.000Z</time>
      </trkpt>
      <trkpt lat="43.61892" lon="6.37114">
        <ele>610.1</ele>
        <time>2021-12-15T15:08:46.000Z</time>
      </trkpt>
      <trkpt lat="43.61892" lon="6.37114">
        <ele>609.9</ele>
        <time>2021-12-15T15:08:47.000Z</time>
      </trkpt>
      <trkpt lat="43.61892" lon="6.37114">
        <ele>609.9</ele>
        <time>2021-12-15T15:08:48.000Z</time>
      </trkpt>
      <trkpt lat="43.61892" lon="6.37114">
        <ele>609.8</ele>
        <time>2021-12-15T15:08:55.000Z</time>
      </trkpt>
      <trkpt lat="43.61892" lon="6.37114">
        <ele>610</ele>
        <time>2021-12-15T15:08:56.000Z</time>
      </trkpt>
      <trkpt lat="43.61892" lon="6.37114">
        <ele>609.9</ele>
        <time>2021-12-15T15:09:03.000Z</time>
      </trkpt>
      <trkpt lat="43.61892" lon="6.37114">
        <ele>610</ele>
        <time>2021-12-15T15:09:04.000Z</time>
      </trkpt>
      <trkpt lat="43.61893" lon="6.37114">
        <ele>610</ele>
        <time>2021-12-15T15:09:26.000Z</time>
      </trkpt>
      <trkpt lat="43.61893" lon="6.37114">
        <ele>610</ele>
        <time>2021-12-15T15:09:27.000Z</time>
      </trkpt>
      <trkpt lat="43.61893" lon="6.37115">
        <ele>610.1</ele>
        <time>2021-12-15T15:09:35.000Z</time>
      </trkpt>
      <trkpt lat="43.61893" lon="6.37115">
        <ele>609.9</ele>
        <time>2021-12-15T15:09:37.000Z</time>
      </trkpt>
      <trkpt lat="43.61893" lon="6.37115">
        <ele>610</ele>
        <time>2021-12-15T15:09:41.000Z</time>
      </trkpt>
      <trkpt lat="43.61893" lon="6.37115">
        <ele>609.9</ele>
        <time>2021-12-15T15:09:42.000Z</time>
      </trkpt>
      <trkpt lat="43.61893" lon="6.37115">
        <ele>609.9</ele>
        <time>2021-12-15T15:09:46.000Z</time>
      </trkpt>
      <trkpt lat="43.61893" lon="6.37115">
        <ele>609.9</ele>
        <time>2021-12-15T15:09:48.000Z</time>
      </trkpt>
      <trkpt lat="43.61893" lon="6.37115">
        <ele>610</ele>
        <time>2021-12-15T15:09:49.000Z</time>
      </trkpt>
      <trkpt lat="43.61893" lon="6.37115">
        <ele>610.1</ele>
        <time>2021-12-15T15:09:51.000Z</time>
      </trkpt>
      <trkpt lat="43.61894" lon="6.37115">
        <ele>609.7</ele>
        <time>2021-12-15T15:09:55.000Z</time>
      </trkpt>
      <trkpt lat="43.61894" lon="6.37115">
        <ele>609.9</ele>
        <time>2021-12-15T15:09:57.000Z</time>
      </trkpt>
      <trkpt lat="43.61894" lon="6.37115">
        <ele>609.9</ele>
        <time>2021-12-15T15:09:58.000Z</time>
      </trkpt>
      <trkpt lat="43.61894" lon="6.37115">
        <ele>609.8</ele>
        <time>2021-12-15T15:09:59.000Z</time>
      </trkpt>
      <trkpt lat="43.61894" lon="6.37115">
        <ele>609.8</ele>
        <time>2021-12-15T15:10:08.000Z</time>
      </trkpt>
      <trkpt lat="43.61899" lon="6.37105">
        <ele>610.1</ele>
        <time>2021-12-15T15:10:17.000Z</time>
      </trkpt>
      <trkpt lat="43.61901" lon="6.37092">
        <ele>609.8</ele>
        <time>2021-12-15T15:10:25.000Z</time>
      </trkpt>
      <trkpt lat="43.61901" lon="6.37079">
        <ele>610</ele>
        <time>2021-12-15T15:10:33.000Z</time>
      </trkpt>
      <trkpt lat="43.61898" lon="6.37067">
        <ele>610.2</ele>
        <time>2021-12-15T15:10:41.000Z</time>
      </trkpt>
      <trkpt lat="43.61894" lon="6.37055">
        <ele>610.8</ele>
        <time>2021-12-15T15:10:50.000Z</time>
      </trkpt>
      <trkpt lat="43.61892" lon="6.37041">
        <ele>610.3</ele>
        <time>2021-12-15T15:11:00.000Z</time>
      </trkpt>
      <trkpt lat="43.61893" lon="6.37028">
        <ele>611.5</ele>
        <time>2021-12-15T15:11:09.000Z</time>
      </trkpt>
      <trkpt lat="43.61893" lon="6.37015">
        <ele>611.7</ele>
        <time>2021-12-15T15:11:17.000Z</time>
      </trkpt>
      <trkpt lat="43.61894" lon="6.37001">
        <ele>611.7</ele>
        <time>2021-12-15T15:11:27.000Z</time>
      </trkpt>
      <trkpt lat="43.61897" lon="6.36989">
        <ele>611.8</ele>
        <time>2021-12-15T15:11:36.000Z</time>
      </trkpt>
      <trkpt lat="43.61895" lon="6.36976">
        <ele>612.2</ele>
        <time>2021-12-15T15:11:45.000Z</time>
      </trkpt>
      <trkpt lat="43.61888" lon="6.36965">
        <ele>612.7</ele>
        <time>2021-12-15T15:11:54.000Z</time>
      </trkpt>
      <trkpt lat="43.61882" lon="6.36955">
        <ele>613.1</ele>
        <time>2021-12-15T15:12:03.000Z</time>
      </trkpt>
      <trkpt lat="43.61876" lon="6.36946">
        <ele>613.6</ele>
        <time>2021-12-15T15:12:11.000Z</time>
      </trkpt>
      <trkpt lat="43.61875" lon="6.36943">
        <ele>612.7</ele>
        <time>2021-12-15T15:12:15.000Z</time>
      </trkpt>
      <trkpt lat="43.61875" lon="6.36943">
        <ele>614.3</ele>
        <time>2021-12-15T15:12:19.000Z</time>
      </trkpt>
      <trkpt lat="43.61875" lon="6.36943">
        <ele>613.9</ele>
        <time>2021-12-15T15:12:20.000Z</time>
      </trkpt>
      <trkpt lat="43.61875" lon="6.36943">
        <ele>613.6</ele>
        <time>2021-12-15T15:12:21.000Z</time>
      </trkpt>
      <trkpt lat="43.61867" lon="6.36935">
        <ele>614</ele>
        <time>2021-12-15T15:12:30.000Z</time>
      </trkpt>
      <trkpt lat="43.6186" lon="6.36927">
        <ele>614.4</ele>
        <time>2021-12-15T15:12:38.000Z</time>
      </trkpt>
      <trkpt lat="43.61855" lon="6.3692">
        <ele>614.8</ele>
        <time>2021-12-15T15:12:45.000Z</time>
      </trkpt>
      <trkpt lat="43.61855" lon="6.3692">
        <ele>614.7</ele>
        <time>2021-12-15T15:12:47.000Z</time>
      </trkpt>
      <trkpt lat="43.61848" lon="6.36911">
        <ele>615.3</ele>
        <time>2021-12-15T15:12:56.000Z</time>
      </trkpt>
      <trkpt lat="43.6184" lon="6.36903">
        <ele>615.5</ele>
        <time>2021-12-15T15:13:04.000Z</time>
      </trkpt>
      <trkpt lat="43.61835" lon="6.36892">
        <ele>615.9</ele>
        <time>2021-12-15T15:13:12.000Z</time>
      </trkpt>
      <trkpt lat="43.61829" lon="6.36882">
        <ele>616.1</ele>
        <time>2021-12-15T15:13:19.000Z</time>
      </trkpt>
      <trkpt lat="43.61825" lon="6.36869">
        <ele>616.4</ele>
        <time>2021-12-15T15:13:27.000Z</time>
      </trkpt>
      <trkpt lat="43.61822" lon="6.36857">
        <ele>616.5</ele>
        <time>2021-12-15T15:13:34.000Z</time>
      </trkpt>
      <trkpt lat="43.61819" lon="6.36845">
        <ele>616.6</ele>
        <time>2021-12-15T15:13:42.000Z</time>
      </trkpt>
      <trkpt lat="43.61815" lon="6.36832">
        <ele>616.7</ele>
        <time>2021-12-15T15:13:50.000Z</time>
      </trkpt>
      <trkpt lat="43.61811" lon="6.36821">
        <ele>616.9</ele>
        <time>2021-12-15T15:13:58.000Z</time>
      </trkpt>
      <trkpt lat="43.61809" lon="6.36807">
        <ele>617</ele>
        <time>2021-12-15T15:14:06.000Z</time>
      </trkpt>
      <trkpt lat="43.61809" lon="6.36795">
        <ele>616.6</ele>
        <time>2021-12-15T15:14:14.000Z</time>
      </trkpt>
      <trkpt lat="43.61807" lon="6.36782">
        <ele>616.5</ele>
        <time>2021-12-15T15:14:22.000Z</time>
      </trkpt>
      <trkpt lat="43.61808" lon="6.36768">
        <ele>616.8</ele>
        <time>2021-12-15T15:14:31.000Z</time>
      </trkpt>
      <trkpt lat="43.61811" lon="6.36755">
        <ele>617.1</ele>
        <time>2021-12-15T15:14:40.000Z</time>
      </trkpt>
      <trkpt lat="43.61812" lon="6.36742">
        <ele>617.1</ele>
        <time>2021-12-15T15:14:47.000Z</time>
      </trkpt>
      <trkpt lat="43.61818" lon="6.36732">
        <ele>617.5</ele>
        <time>2021-12-15T15:14:58.000Z</time>
      </trkpt>
      <trkpt lat="43.61818" lon="6.36732">
        <ele>617.4</ele>
        <time>2021-12-15T15:15:00.000Z</time>
      </trkpt>
      <trkpt lat="43.61818" lon="6.36732">
        <ele>617.4</ele>
        <time>2021-12-15T15:15:04.000Z</time>
      </trkpt>
      <trkpt lat="43.61818" lon="6.36732">
        <ele>617.4</ele>
        <time>2021-12-15T15:15:05.000Z</time>
      </trkpt>
      <trkpt lat="43.61817" lon="6.36732">
        <ele>617.5</ele>
        <time>2021-12-15T15:15:14.000Z</time>
      </trkpt>
      <trkpt lat="43.61817" lon="6.36732">
        <ele>617.5</ele>
        <time>2021-12-15T15:15:15.000Z</time>
      </trkpt>
      <trkpt lat="43.61817" lon="6.36732">
        <ele>617.5</ele>
        <time>2021-12-15T15:15:22.000Z</time>
      </trkpt>
      <trkpt lat="43.61817" lon="6.36731">
        <ele>617.5</ele>
        <time>2021-12-15T15:15:25.000Z</time>
      </trkpt>
      <trkpt lat="43.61817" lon="6.36731">
        <ele>617.3</ele>
        <time>2021-12-15T15:15:45.000Z</time>
      </trkpt>
      <trkpt lat="43.61826" lon="6.36728">
        <ele>617</ele>
        <time>2021-12-15T15:15:55.000Z</time>
      </trkpt>
      <trkpt lat="43.61835" lon="6.36726">
        <ele>616.6</ele>
        <time>2021-12-15T15:16:04.000Z</time>
      </trkpt>
      <trkpt lat="43.61843" lon="6.3672">
        <ele>616.7</ele>
        <time>2021-12-15T15:16:11.000Z</time>
      </trkpt>
      <trkpt lat="43.61852" lon="6.36715">
        <ele>616.8</ele>
        <time>2021-12-15T15:16:18.000Z</time>
      </trkpt>
      <trkpt lat="43.6186" lon="6.36708">
        <ele>616.3</ele>
        <time>2021-12-15T15:16:25.000Z</time>
      </trkpt>
      <trkpt lat="43.61869" lon="6.36701">
        <ele>616.6</ele>
        <time>2021-12-15T15:16:31.000Z</time>
      </trkpt>
      <trkpt lat="43.61877" lon="6.36694">
        <ele>616</ele>
        <time>2021-12-15T15:16:39.000Z</time>
      </trkpt>
      <trkpt lat="43.61885" lon="6.36688">
        <ele>615.2</ele>
        <time>2021-12-15T15:16:47.000Z</time>
      </trkpt>
      <trkpt lat="43.61894" lon="6.36678">
        <ele>616</ele>
        <time>2021-12-15T15:16:55.000Z</time>
      </trkpt>
      <trkpt lat="43.61903" lon="6.36672">
        <ele>615.7</ele>
        <time>2021-12-15T15:17:02.000Z</time>
      </trkpt>
      <trkpt lat="43.61911" lon="6.36664">
        <ele>615.3</ele>
        <time>2021-12-15T15:17:10.000Z</time>
      </trkpt>
      <trkpt lat="43.61919" lon="6.36657">
        <ele>614.3</ele>
        <time>2021-12-15T15:17:18.000Z</time>
      </trkpt>
      <trkpt lat="43.61928" lon="6.36655">
        <ele>613.8</ele>
        <time>2021-12-15T15:17:30.000Z</time>
      </trkpt>
      <trkpt lat="43.61937" lon="6.36653">
        <ele>613.5</ele>
        <time>2021-12-15T15:17:37.000Z</time>
      </trkpt>
      <trkpt lat="43.61947" lon="6.36649">
        <ele>613.2</ele>
        <time>2021-12-15T15:17:44.000Z</time>
      </trkpt>
      <trkpt lat="43.61956" lon="6.36644">
        <ele>613.1</ele>
        <time>2021-12-15T15:17:53.000Z</time>
      </trkpt>
      <trkpt lat="43.61965" lon="6.36639">
        <ele>613.1</ele>
        <time>2021-12-15T15:18:01.000Z</time>
      </trkpt>
      <trkpt lat="43.61976" lon="6.36637">
        <ele>612.7</ele>
        <time>2021-12-15T15:18:10.000Z</time>
      </trkpt>
      <trkpt lat="43.61984" lon="6.36632">
        <ele>612.9</ele>
        <time>2021-12-15T15:18:15.000Z</time>
      </trkpt>
      <trkpt lat="43.61993" lon="6.36626">
        <ele>612.6</ele>
        <time>2021-12-15T15:18:24.000Z</time>
      </trkpt>
      <trkpt lat="43.62" lon="6.36616">
        <ele>612.6</ele>
        <time>2021-12-15T15:18:35.000Z</time>
      </trkpt>
      <trkpt lat="43.62009" lon="6.36613">
        <ele>611.9</ele>
        <time>2021-12-15T15:18:52.000Z</time>
      </trkpt>
      <trkpt lat="43.62009" lon="6.36612">
        <ele>611.8</ele>
        <time>2021-12-15T15:18:53.000Z</time>
      </trkpt>
      <trkpt lat="43.62009" lon="6.36613">
        <ele>612</ele>
        <time>2021-12-15T15:18:54.000Z</time>
      </trkpt>
      <trkpt lat="43.62013" lon="6.36612">
        <ele>611.8</ele>
        <time>2021-12-15T15:19:01.000Z</time>
      </trkpt>
      <trkpt lat="43.62013" lon="6.36612">
        <ele>611.8</ele>
        <time>2021-12-15T15:19:09.000Z</time>
      </trkpt>
      <trkpt lat="43.62013" lon="6.36612">
        <ele>611.8</ele>
        <time>2021-12-15T15:19:10.000Z</time>
      </trkpt>
      <trkpt lat="43.62013" lon="6.36612">
        <ele>611.5</ele>
        <time>2021-12-15T15:19:20.000Z</time>
      </trkpt>
      <trkpt lat="43.62013" lon="6.36612">
        <ele>611.4</ele>
        <time>2021-12-15T15:19:21.000Z</time>
      </trkpt>
      <trkpt lat="43.62013" lon="6.36611">
        <ele>611.3</ele>
        <time>2021-12-15T15:19:23.000Z</time>
      </trkpt>
      <trkpt lat="43.62012" lon="6.36611">
        <ele>611.6</ele>
        <time>2021-12-15T15:19:25.000Z</time>
      </trkpt>
      <trkpt lat="43.62013" lon="6.36611">
        <ele>611.6</ele>
        <time>2021-12-15T15:19:36.000Z</time>
      </trkpt>
      <trkpt lat="43.62013" lon="6.36611">
        <ele>611.6</ele>
        <time>2021-12-15T15:19:37.000Z</time>
      </trkpt>
      <trkpt lat="43.62012" lon="6.36611">
        <ele>611.5</ele>
        <time>2021-12-15T15:19:39.000Z</time>
      </trkpt>
      <trkpt lat="43.62012" lon="6.36611">
        <ele>611.5</ele>
        <time>2021-12-15T15:19:40.000Z</time>
      </trkpt>
      <trkpt lat="43.62013" lon="6.3661">
        <ele>611.3</ele>
        <time>2021-12-15T15:19:48.000Z</time>
      </trkpt>
      <trkpt lat="43.62013" lon="6.3661">
        <ele>611.4</ele>
        <time>2021-12-15T15:19:49.000Z</time>
      </trkpt>
      <trkpt lat="43.62013" lon="6.3661">
        <ele>611.4</ele>
        <time>2021-12-15T15:20:03.000Z</time>
      </trkpt>
      <trkpt lat="43.62013" lon="6.3661">
        <ele>611.4</ele>
        <time>2021-12-15T15:20:04.000Z</time>
      </trkpt>
      <trkpt lat="43.62013" lon="6.3661">
        <ele>611.6</ele>
        <time>2021-12-15T15:20:18.000Z</time>
      </trkpt>
      <trkpt lat="43.62021" lon="6.36604">
        <ele>611.4</ele>
        <time>2021-12-15T15:20:29.000Z</time>
      </trkpt>
      <trkpt lat="43.62031" lon="6.36599">
        <ele>611</ele>
        <time>2021-12-15T15:20:37.000Z</time>
      </trkpt>
      <trkpt lat="43.6204" lon="6.36594">
        <ele>610.9</ele>
        <time>2021-12-15T15:20:45.000Z</time>
      </trkpt>
      <trkpt lat="43.62042" lon="6.36594">
        <ele>610.7</ele>
        <time>2021-12-15T15:20:48.000Z</time>
      </trkpt>
      <trkpt lat="43.62042" lon="6.36594">
        <ele>610.7</ele>
        <time>2021-12-15T15:20:49.000Z</time>
      </trkpt>
      <trkpt lat="43.62042" lon="6.36594">
        <ele>610.9</ele>
        <time>2021-12-15T15:20:51.000Z</time>
      </trkpt>
      <trkpt lat="43.62042" lon="6.36594">
        <ele>610.9</ele>
        <time>2021-12-15T15:20:52.000Z</time>
      </trkpt>
      <trkpt lat="43.62045" lon="6.36594">
        <ele>610.9</ele>
        <time>2021-12-15T15:21:00.000Z</time>
      </trkpt>
      <trkpt lat="43.62045" lon="6.36594">
        <ele>610.8</ele>
        <time>2021-12-15T15:21:01.000Z</time>
      </trkpt>
      <trkpt lat="43.62054" lon="6.3659">
        <ele>611</ele>
        <time>2021-12-15T15:21:10.000Z</time>
      </trkpt>
      <trkpt lat="43.62063" lon="6.36587">
        <ele>610.9</ele>
        <time>2021-12-15T15:21:18.000Z</time>
      </trkpt>
      <trkpt lat="43.62073" lon="6.36585">
        <ele>610.7</ele>
        <time>2021-12-15T15:21:29.000Z</time>
      </trkpt>
      <trkpt lat="43.62083" lon="6.36583">
        <ele>610.8</ele>
        <time>2021-12-15T15:21:38.000Z</time>
      </trkpt>
      <trkpt lat="43.62092" lon="6.36582">
        <ele>610.3</ele>
        <time>2021-12-15T15:21:48.000Z</time>
      </trkpt>
      <trkpt lat="43.62101" lon="6.36576">
        <ele>610.8</ele>
        <time>2021-12-15T15:21:56.000Z</time>
      </trkpt>
      <trkpt lat="43.6211" lon="6.36571">
        <ele>610.6</ele>
        <time>2021-12-15T15:22:03.000Z</time>
      </trkpt>
      <trkpt lat="43.62119" lon="6.36574">
        <ele>609.2</ele>
        <time>2021-12-15T15:22:17.000Z</time>
      </trkpt>
      <trkpt lat="43.62128" lon="6.36572">
        <ele>608.9</ele>
        <time>2021-12-15T15:22:26.000Z</time>
      </trkpt>
      <trkpt lat="43.62137" lon="6.36569">
        <ele>608.4</ele>
        <time>2021-12-15T15:22:35.000Z</time>
      </trkpt>
      <trkpt lat="43.62146" lon="6.36563">
        <ele>607.6</ele>
        <time>2021-12-15T15:22:44.000Z</time>
      </trkpt>
      <trkpt lat="43.62153" lon="6.36556">
        <ele>606.7</ele>
        <time>2021-12-15T15:22:53.000Z</time>
      </trkpt>
      <trkpt lat="43.6216" lon="6.36546">
        <ele>606.3</ele>
        <time>2021-12-15T15:23:02.000Z</time>
      </trkpt>
      <trkpt lat="43.62168" lon="6.3654">
        <ele>605.5</ele>
        <time>2021-12-15T15:23:13.000Z</time>
      </trkpt>
      <trkpt lat="43.62176" lon="6.36534">
        <ele>605.2</ele>
        <time>2021-12-15T15:23:21.000Z</time>
      </trkpt>
      <trkpt lat="43.62183" lon="6.36524">
        <ele>604.9</ele>
        <time>2021-12-15T15:23:31.000Z</time>
      </trkpt>
      <trkpt lat="43.62189" lon="6.36515">
        <ele>604.9</ele>
        <time>2021-12-15T15:23:42.000Z</time>
      </trkpt>
      <trkpt lat="43.62197" lon="6.36507">
        <ele>604.9</ele>
        <time>2021-12-15T15:23:49.000Z</time>
      </trkpt>
      <trkpt lat="43.62203" lon="6.36498">
        <ele>604.3</ele>
        <time>2021-12-15T15:23:57.000Z</time>
      </trkpt>
      <trkpt lat="43.6221" lon="6.36488">
        <ele>604.3</ele>
        <time>2021-12-15T15:24:06.000Z</time>
      </trkpt>
      <trkpt lat="43.62217" lon="6.36478">
        <ele>604.1</ele>
        <time>2021-12-15T15:24:14.000Z</time>
      </trkpt>
      <trkpt lat="43.62222" lon="6.36467">
        <ele>604.4</ele>
        <time>2021-12-15T15:24:23.000Z</time>
      </trkpt>
      <trkpt lat="43.62231" lon="6.36459">
        <ele>604.3</ele>
        <time>2021-12-15T15:24:33.000Z</time>
      </trkpt>
      <trkpt lat="43.62239" lon="6.36452">
        <ele>604.1</ele>
        <time>2021-12-15T15:24:41.000Z</time>
      </trkpt>
      <trkpt lat="43.62247" lon="6.36446">
        <ele>603.4</ele>
        <time>2021-12-15T15:24:54.000Z</time>
      </trkpt>
      <trkpt lat="43.62255" lon="6.36438">
        <ele>603.9</ele>
        <time>2021-12-15T15:25:04.000Z</time>
      </trkpt>
      <trkpt lat="43.62263" lon="6.3643">
        <ele>603.7</ele>
        <time>2021-12-15T15:25:13.000Z</time>
      </trkpt>
      <trkpt lat="43.62271" lon="6.36422">
        <ele>603.3</ele>
        <time>2021-12-15T15:25:21.000Z</time>
      </trkpt>
      <trkpt lat="43.62279" lon="6.36413">
        <ele>603.4</ele>
        <time>2021-12-15T15:25:29.000Z</time>
      </trkpt>
      <trkpt lat="43.62286" lon="6.36406">
        <ele>603.3</ele>
        <time>2021-12-15T15:25:36.000Z</time>
      </trkpt>
      <trkpt lat="43.62293" lon="6.36398">
        <ele>603</ele>
        <time>2021-12-15T15:25:44.000Z</time>
      </trkpt>
      <trkpt lat="43.623" lon="6.36389">
        <ele>603</ele>
        <time>2021-12-15T15:25:52.000Z</time>
      </trkpt>
      <trkpt lat="43.62308" lon="6.36383">
        <ele>602.8</ele>
        <time>2021-12-15T15:26:01.000Z</time>
      </trkpt>
      <trkpt lat="43.62316" lon="6.36379">
        <ele>602.3</ele>
        <time>2021-12-15T15:26:10.000Z</time>
      </trkpt>
      <trkpt lat="43.62325" lon="6.36377">
        <ele>601.6</ele>
        <time>2021-12-15T15:26:21.000Z</time>
      </trkpt>
      <trkpt lat="43.62335" lon="6.36379">
        <ele>600.7</ele>
        <time>2021-12-15T15:26:30.000Z</time>
      </trkpt>
      <trkpt lat="43.62344" lon="6.3638">
        <ele>601.6</ele>
        <time>2021-12-15T15:26:37.000Z</time>
      </trkpt>
      <trkpt lat="43.62349" lon="6.36379">
        <ele>601.8</ele>
        <time>2021-12-15T15:26:43.000Z</time>
      </trkpt>
      <trkpt lat="43.62348" lon="6.36379">
        <ele>601.8</ele>
        <time>2021-12-15T15:26:44.000Z</time>
      </trkpt>
      <trkpt lat="43.62348" lon="6.36379">
        <ele>601.6</ele>
        <time>2021-12-15T15:26:45.000Z</time>
      </trkpt>
      <trkpt lat="43.62348" lon="6.36379">
        <ele>601.8</ele>
        <time>2021-12-15T15:26:47.000Z</time>
      </trkpt>
      <trkpt lat="43.62352" lon="6.36379">
        <ele>602.2</ele>
        <time>2021-12-15T15:26:56.000Z</time>
      </trkpt>
      <trkpt lat="43.62352" lon="6.36378">
        <ele>602.3</ele>
        <time>2021-12-15T15:27:04.000Z</time>
      </trkpt>
      <trkpt lat="43.62361" lon="6.36378">
        <ele>602.8</ele>
        <time>2021-12-15T15:27:14.000Z</time>
      </trkpt>
      <trkpt lat="43.6237" lon="6.36382">
        <ele>603.1</ele>
        <time>2021-12-15T15:27:21.000Z</time>
      </trkpt>
      <trkpt lat="43.62379" lon="6.36385">
        <ele>603.9</ele>
        <time>2021-12-15T15:27:29.000Z</time>
      </trkpt>
      <trkpt lat="43.62381" lon="6.36397">
        <ele>605.1</ele>
        <time>2021-12-15T15:27:41.000Z</time>
      </trkpt>
      <trkpt lat="43.62379" lon="6.3641">
        <ele>605.4</ele>
        <time>2021-12-15T15:27:50.000Z</time>
      </trkpt>
      <trkpt lat="43.62379" lon="6.36423">
        <ele>605.3</ele>
        <time>2021-12-15T15:28:03.000Z</time>
      </trkpt>
      <trkpt lat="43.62379" lon="6.36437">
        <ele>604.7</ele>
        <time>2021-12-15T15:28:13.000Z</time>
      </trkpt>
      <trkpt lat="43.62379" lon="6.36443">
        <ele>604.4</ele>
        <time>2021-12-15T15:28:19.000Z</time>
      </trkpt>
      <trkpt lat="43.62379" lon="6.36443">
        <ele>604.3</ele>
        <time>2021-12-15T15:28:21.000Z</time>
      </trkpt>
      <trkpt lat="43.62378" lon="6.36443">
        <ele>604.8</ele>
        <time>2021-12-15T15:28:25.000Z</time>
      </trkpt>
      <trkpt lat="43.62377" lon="6.36443">
        <ele>604.6</ele>
        <time>2021-12-15T15:28:26.000Z</time>
      </trkpt>
      <trkpt lat="43.62377" lon="6.36444">
        <ele>604.6</ele>
        <time>2021-12-15T15:28:28.000Z</time>
      </trkpt>
      <trkpt lat="43.62377" lon="6.36444">
        <ele>604.6</ele>
        <time>2021-12-15T15:28:30.000Z</time>
      </trkpt>
      <trkpt lat="43.62379" lon="6.36443">
        <ele>604.7</ele>
        <time>2021-12-15T15:28:37.000Z</time>
      </trkpt>
      <trkpt lat="43.62379" lon="6.36443">
        <ele>604.6</ele>
        <time>2021-12-15T15:28:48.000Z</time>
      </trkpt>
      <trkpt lat="43.62379" lon="6.36443">
        <ele>604.6</ele>
        <time>2021-12-15T15:28:49.000Z</time>
      </trkpt>
      <trkpt lat="43.62379" lon="6.36444">
        <ele>604.7</ele>
        <time>2021-12-15T15:28:59.000Z</time>
      </trkpt>
      <trkpt lat="43.62379" lon="6.36444">
        <ele>604.7</ele>
        <time>2021-12-15T15:29:00.000Z</time>
      </trkpt>
      <trkpt lat="43.62379" lon="6.36444">
        <ele>604.6</ele>
        <time>2021-12-15T15:29:09.000Z</time>
      </trkpt>
      <trkpt lat="43.62379" lon="6.36444">
        <ele>604.6</ele>
        <time>2021-12-15T15:29:10.000Z</time>
      </trkpt>
      <trkpt lat="43.62379" lon="6.36443">
        <ele>604.7</ele>
        <time>2021-12-15T15:29:24.000Z</time>
      </trkpt>
      <trkpt lat="43.62379" lon="6.36443">
        <ele>604.9</ele>
        <time>2021-12-15T15:29:25.000Z</time>
      </trkpt>
      <trkpt lat="43.6238" lon="6.36443">
        <ele>604.8</ele>
        <time>2021-12-15T15:29:26.000Z</time>
      </trkpt>
      <trkpt lat="43.6238" lon="6.36443">
        <ele>604.6</ele>
        <time>2021-12-15T15:29:27.000Z</time>
      </trkpt>
      <trkpt lat="43.6238" lon="6.36442">
        <ele>604.5</ele>
        <time>2021-12-15T15:29:29.000Z</time>
      </trkpt>
      <trkpt lat="43.6238" lon="6.36442">
        <ele>604.6</ele>
        <time>2021-12-15T15:29:30.000Z</time>
      </trkpt>
      <trkpt lat="43.6238" lon="6.36442">
        <ele>604.7</ele>
        <time>2021-12-15T15:29:31.000Z</time>
      </trkpt>
      <trkpt lat="43.6238" lon="6.36442">
        <ele>604.5</ele>
        <time>2021-12-15T15:29:32.000Z</time>
      </trkpt>
      <trkpt lat="43.6238" lon="6.36442">
        <ele>604.4</ele>
        <time>2021-12-15T15:29:34.000Z</time>
      </trkpt>
      <trkpt lat="43.6238" lon="6.36442">
        <ele>604.5</ele>
        <time>2021-12-15T15:29:35.000Z</time>
      </trkpt>
      <trkpt lat="43.6238" lon="6.36442">
        <ele>604.6</ele>
        <time>2021-12-15T15:29:37.000Z</time>
      </trkpt>
      <trkpt lat="43.6238" lon="6.36443">
        <ele>604.7</ele>
        <time>2021-12-15T15:29:39.000Z</time>
      </trkpt>
      <trkpt lat="43.6238" lon="6.36443">
        <ele>604.5</ele>
        <time>2021-12-15T15:29:42.000Z</time>
      </trkpt>
      <trkpt lat="43.6238" lon="6.36443">
        <ele>604.6</ele>
        <time>2021-12-15T15:29:44.000Z</time>
      </trkpt>
      <trkpt lat="43.6238" lon="6.36442">
        <ele>604.4</ele>
        <time>2021-12-15T15:29:48.000Z</time>
      </trkpt>
      <trkpt lat="43.6238" lon="6.36442">
        <ele>604.4</ele>
        <time>2021-12-15T15:29:49.000Z</time>
      </trkpt>
      <trkpt lat="43.6238" lon="6.36442">
        <ele>604.7</ele>
        <time>2021-12-15T15:29:51.000Z</time>
      </trkpt>
      <trkpt lat="43.6238" lon="6.36442">
        <ele>604.6</ele>
        <time>2021-12-15T15:29:53.000Z</time>
      </trkpt>
      <trkpt lat="43.6238" lon="6.36442">
        <ele>604.7</ele>
        <time>2021-12-15T15:30:10.000Z</time>
      </trkpt>
      <trkpt lat="43.6238" lon="6.36442">
        <ele>604.7</ele>
        <time>2021-12-15T15:30:11.000Z</time>
      </trkpt>
      <trkpt lat="43.6238" lon="6.36442">
        <ele>604.7</ele>
        <time>2021-12-15T15:30:37.000Z</time>
      </trkpt>
      <trkpt lat="43.62379" lon="6.36441">
        <ele>604.6</ele>
        <time>2021-12-15T15:30:41.000Z</time>
      </trkpt>
      <trkpt lat="43.62379" lon="6.36441">
        <ele>604.7</ele>
        <time>2021-12-15T15:30:46.000Z</time>
      </trkpt>
      <trkpt lat="43.62379" lon="6.36441">
        <ele>604.8</ele>
        <time>2021-12-15T15:30:47.000Z</time>
      </trkpt>
      <trkpt lat="43.62379" lon="6.36442">
        <ele>604.6</ele>
        <time>2021-12-15T15:30:55.000Z</time>
      </trkpt>
      <trkpt lat="43.6238" lon="6.36452">
        <ele>604.2</ele>
        <time>2021-12-15T15:31:06.000Z</time>
      </trkpt>
      <trkpt lat="43.6238" lon="6.36451">
        <ele>604.1</ele>
        <time>2021-12-15T15:31:07.000Z</time>
      </trkpt>
      <trkpt lat="43.62379" lon="6.36453">
        <ele>604.4</ele>
        <time>2021-12-15T15:31:13.000Z</time>
      </trkpt>
      <trkpt lat="43.62379" lon="6.36453">
        <ele>604.4</ele>
        <time>2021-12-15T15:31:16.000Z</time>
      </trkpt>
      <trkpt lat="43.6238" lon="6.36453">
        <ele>604.5</ele>
        <time>2021-12-15T15:31:19.000Z</time>
      </trkpt>
      <trkpt lat="43.6238" lon="6.36454">
        <ele>604.7</ele>
        <time>2021-12-15T15:31:25.000Z</time>
      </trkpt>
      <trkpt lat="43.6238" lon="6.36454">
        <ele>604.6</ele>
        <time>2021-12-15T15:31:27.000Z</time>
      </trkpt>
      <trkpt lat="43.6238" lon="6.36454">
        <ele>604.6</ele>
        <time>2021-12-15T15:31:28.000Z</time>
      </trkpt>
      <trkpt lat="43.6238" lon="6.36454">
        <ele>604.4</ele>
        <time>2021-12-15T15:31:31.000Z</time>
      </trkpt>
      <trkpt lat="43.6238" lon="6.36454">
        <ele>604.5</ele>
        <time>2021-12-15T15:31:32.000Z</time>
      </trkpt>
      <trkpt lat="43.62381" lon="6.36454">
        <ele>604.4</ele>
        <time>2021-12-15T15:31:34.000Z</time>
      </trkpt>
      <trkpt lat="43.62381" lon="6.36454">
        <ele>604.5</ele>
        <time>2021-12-15T15:31:36.000Z</time>
      </trkpt>
      <trkpt lat="43.62382" lon="6.36454">
        <ele>604.5</ele>
        <time>2021-12-15T15:31:44.000Z</time>
      </trkpt>
      <trkpt lat="43.62382" lon="6.36454">
        <ele>604.5</ele>
        <time>2021-12-15T15:31:46.000Z</time>
      </trkpt>
      <trkpt lat="43.62382" lon="6.36454">
        <ele>604.5</ele>
        <time>2021-12-15T15:31:47.000Z</time>
      </trkpt>
      <trkpt lat="43.62382" lon="6.36454">
        <ele>604.6</ele>
        <time>2021-12-15T15:31:48.000Z</time>
      </trkpt>
      <trkpt lat="43.62382" lon="6.36454">
        <ele>604.7</ele>
        <time>2021-12-15T15:31:49.000Z</time>
      </trkpt>
      <trkpt lat="43.62382" lon="6.36454">
        <ele>604.7</ele>
        <time>2021-12-15T15:32:05.000Z</time>
      </trkpt>
      <trkpt lat="43.62383" lon="6.36454">
        <ele>604.7</ele>
        <time>2021-12-15T15:32:09.000Z</time>
      </trkpt>
      <trkpt lat="43.62383" lon="6.36454">
        <ele>604.6</ele>
        <time>2021-12-15T15:32:10.000Z</time>
      </trkpt>
      <trkpt lat="43.62383" lon="6.36445">
        <ele>604.5</ele>
        <time>2021-12-15T15:32:26.000Z</time>
      </trkpt>
      <trkpt lat="43.62383" lon="6.36445">
        <ele>604.4</ele>
        <time>2021-12-15T15:32:39.000Z</time>
      </trkpt>
      <trkpt lat="43.62384" lon="6.36436">
        <ele>604.7</ele>
        <time>2021-12-15T15:32:55.000Z</time>
      </trkpt>
      <trkpt lat="43.62384" lon="6.36436">
        <ele>604.5</ele>
        <time>2021-12-15T15:32:56.000Z</time>
      </trkpt>
      <trkpt lat="43.62384" lon="6.36437">
        <ele>604.5</ele>
        <time>2021-12-15T15:32:58.000Z</time>
      </trkpt>
      <trkpt lat="43.62384" lon="6.36437">
        <ele>604.6</ele>
        <time>2021-12-15T15:32:59.000Z</time>
      </trkpt>
      <trkpt lat="43.62388" lon="6.36435">
        <ele>604.8</ele>
        <time>2021-12-15T15:33:23.000Z</time>
      </trkpt>
      <trkpt lat="43.62388" lon="6.36435">
        <ele>604.8</ele>
        <time>2021-12-15T15:33:32.000Z</time>
      </trkpt>
      <trkpt lat="43.62388" lon="6.36435">
        <ele>604.9</ele>
        <time>2021-12-15T15:33:33.000Z</time>
      </trkpt>
      <trkpt lat="43.62388" lon="6.36434">
        <ele>604.9</ele>
        <time>2021-12-15T15:33:54.000Z</time>
      </trkpt>
      <trkpt lat="43.62388" lon="6.36434">
        <ele>605.1</ele>
        <time>2021-12-15T15:33:58.000Z</time>
      </trkpt>
      <trkpt lat="43.62388" lon="6.36434">
        <ele>605</ele>
        <time>2021-12-15T15:34:10.000Z</time>
      </trkpt>
      <trkpt lat="43.62382" lon="6.36423">
        <ele>604.8</ele>
        <time>2021-12-15T15:34:18.000Z</time>
      </trkpt>
      <trkpt lat="43.62382" lon="6.3641">
        <ele>604.3</ele>
        <time>2021-12-15T15:34:25.000Z</time>
      </trkpt>
      <trkpt lat="43.62386" lon="6.36397">
        <ele>604.4</ele>
        <time>2021-12-15T15:34:34.000Z</time>
      </trkpt>
      <trkpt lat="43.62388" lon="6.36386">
        <ele>603.7</ele>
        <time>2021-12-15T15:34:45.000Z</time>
      </trkpt>
      <trkpt lat="43.62388" lon="6.36386">
        <ele>603.7</ele>
        <time>2021-12-15T15:34:46.000Z</time>
      </trkpt>
      <trkpt lat="43.62387" lon="6.36384">
        <ele>603.5</ele>
        <time>2021-12-15T15:34:52.000Z</time>
      </trkpt>
      <trkpt lat="43.62387" lon="6.36384">
        <ele>603.5</ele>
        <time>2021-12-15T15:34:53.000Z</time>
      </trkpt>
      <trkpt lat="43.62387" lon="6.36384">
        <ele>603.6</ele>
        <time>2021-12-15T15:34:55.000Z</time>
      </trkpt>
      <trkpt lat="43.62387" lon="6.36384">
        <ele>603.6</ele>
        <time>2021-12-15T15:35:02.000Z</time>
      </trkpt>
      <trkpt lat="43.62387" lon="6.36384">
        <ele>603.6</ele>
        <time>2021-12-15T15:35:03.000Z</time>
      </trkpt>
      <trkpt lat="43.62387" lon="6.36384">
        <ele>603.5</ele>
        <time>2021-12-15T15:35:04.000Z</time>
      </trkpt>
      <trkpt lat="43.62387" lon="6.36384">
        <ele>603.6</ele>
        <time>2021-12-15T15:35:06.000Z</time>
      </trkpt>
      <trkpt lat="43.62387" lon="6.36384">
        <ele>603.5</ele>
        <time>2021-12-15T15:35:08.000Z</time>
      </trkpt>
      <trkpt lat="43.62387" lon="6.36383">
        <ele>603.6</ele>
        <time>2021-12-15T15:35:09.000Z</time>
      </trkpt>
      <trkpt lat="43.62387" lon="6.36384">
        <ele>603.6</ele>
        <time>2021-12-15T15:35:11.000Z</time>
      </trkpt>
      <trkpt lat="43.62387" lon="6.36384">
        <ele>603.5</ele>
        <time>2021-12-15T15:35:12.000Z</time>
      </trkpt>
      <trkpt lat="43.62387" lon="6.36384">
        <ele>603.3</ele>
        <time>2021-12-15T15:35:13.000Z</time>
      </trkpt>
      <trkpt lat="43.62387" lon="6.36384">
        <ele>603.4</ele>
        <time>2021-12-15T15:35:14.000Z</time>
      </trkpt>
      <trkpt lat="43.62387" lon="6.36384">
        <ele>603.4</ele>
        <time>2021-12-15T15:35:24.000Z</time>
      </trkpt>
      <trkpt lat="43.62378" lon="6.36379">
        <ele>602.8</ele>
        <time>2021-12-15T15:35:36.000Z</time>
      </trkpt>
      <trkpt lat="43.62369" lon="6.36376">
        <ele>602.1</ele>
        <time>2021-12-15T15:35:45.000Z</time>
      </trkpt>
      <trkpt lat="43.6236" lon="6.36374">
        <ele>602</ele>
        <time>2021-12-15T15:35:53.000Z</time>
      </trkpt>
      <trkpt lat="43.6235" lon="6.36373">
        <ele>601</ele>
        <time>2021-12-15T15:36:01.000Z</time>
      </trkpt>
      <trkpt lat="43.62341" lon="6.36372">
        <ele>600.1</ele>
        <time>2021-12-15T15:36:11.000Z</time>
      </trkpt>
      <trkpt lat="43.62337" lon="6.36374">
        <ele>600.2</ele>
        <time>2021-12-15T15:36:17.000Z</time>
      </trkpt>
      <trkpt lat="43.62337" lon="6.36374">
        <ele>600.2</ele>
        <time>2021-12-15T15:36:19.000Z</time>
      </trkpt>
      <trkpt lat="43.62327" lon="6.36374">
        <ele>600.5</ele>
        <time>2021-12-15T15:36:30.000Z</time>
      </trkpt>
      <trkpt lat="43.62317" lon="6.36374">
        <ele>601.1</ele>
        <time>2021-12-15T15:36:39.000Z</time>
      </trkpt>
      <trkpt lat="43.62308" lon="6.36379">
        <ele>601.8</ele>
        <time>2021-12-15T15:36:47.000Z</time>
      </trkpt>
      <trkpt lat="43.623" lon="6.36386">
        <ele>601.9</ele>
        <time>2021-12-15T15:36:56.000Z</time>
      </trkpt>
      <trkpt lat="43.62292" lon="6.36393">
        <ele>601.9</ele>
        <time>2021-12-15T15:37:04.000Z</time>
      </trkpt>
      <trkpt lat="43.62284" lon="6.36402">
        <ele>602</ele>
        <time>2021-12-15T15:37:13.000Z</time>
      </trkpt>
      <trkpt lat="43.62277" lon="6.36411">
        <ele>602.4</ele>
        <time>2021-12-15T15:37:22.000Z</time>
      </trkpt>
      <trkpt lat="43.62277" lon="6.36412">
        <ele>602.3</ele>
        <time>2021-12-15T15:37:25.000Z</time>
      </trkpt>
      <trkpt lat="43.62276" lon="6.36413">
        <ele>602.2</ele>
        <time>2021-12-15T15:37:27.000Z</time>
      </trkpt>
      <trkpt lat="43.62268" lon="6.36419">
        <ele>602.2</ele>
        <time>2021-12-15T15:37:34.000Z</time>
      </trkpt>
      <trkpt lat="43.62259" lon="6.36427">
        <ele>602.2</ele>
        <time>2021-12-15T15:37:42.000Z</time>
      </trkpt>
      <trkpt lat="43.62251" lon="6.36434">
        <ele>602.1</ele>
        <time>2021-12-15T15:37:51.000Z</time>
      </trkpt>
      <trkpt lat="43.62244" lon="6.36441">
        <ele>602.6</ele>
        <time>2021-12-15T15:37:58.000Z</time>
      </trkpt>
      <trkpt lat="43.62236" lon="6.36446">
        <ele>603.2</ele>
        <time>2021-12-15T15:38:07.000Z</time>
      </trkpt>
      <trkpt lat="43.62228" lon="6.36456">
        <ele>603.4</ele>
        <time>2021-12-15T15:38:15.000Z</time>
      </trkpt>
      <trkpt lat="43.62221" lon="6.36465">
        <ele>603.3</ele>
        <time>2021-12-15T15:38:24.000Z</time>
      </trkpt>
      <trkpt lat="43.62215" lon="6.36475">
        <ele>602.9</ele>
        <time>2021-12-15T15:38:31.000Z</time>
      </trkpt>
      <trkpt lat="43.62207" lon="6.36483">
        <ele>603.1</ele>
        <time>2021-12-15T15:38:39.000Z</time>
      </trkpt>
      <trkpt lat="43.622" lon="6.36492">
        <ele>603</ele>
        <time>2021-12-15T15:38:47.000Z</time>
      </trkpt>
      <trkpt lat="43.62194" lon="6.36501">
        <ele>603.1</ele>
        <time>2021-12-15T15:38:54.000Z</time>
      </trkpt>
      <trkpt lat="43.62188" lon="6.36511">
        <ele>603.3</ele>
        <time>2021-12-15T15:39:01.000Z</time>
      </trkpt>
      <trkpt lat="43.62181" lon="6.36519">
        <ele>603.4</ele>
        <time>2021-12-15T15:39:10.000Z</time>
      </trkpt>
      <trkpt lat="43.62173" lon="6.36526">
        <ele>603.4</ele>
        <time>2021-12-15T15:39:18.000Z</time>
      </trkpt>
      <trkpt lat="43.62165" lon="6.36533">
        <ele>603.9</ele>
        <time>2021-12-15T15:39:26.000Z</time>
      </trkpt>
      <trkpt lat="43.62157" lon="6.36541">
        <ele>604.4</ele>
        <time>2021-12-15T15:39:35.000Z</time>
      </trkpt>
      <trkpt lat="43.62151" lon="6.3655">
        <ele>604.8</ele>
        <time>2021-12-15T15:39:43.000Z</time>
      </trkpt>
      <trkpt lat="43.62144" lon="6.36559">
        <ele>605.5</ele>
        <time>2021-12-15T15:39:53.000Z</time>
      </trkpt>
      <trkpt lat="43.62135" lon="6.36564">
        <ele>606.5</ele>
        <time>2021-12-15T15:40:02.000Z</time>
      </trkpt>
      <trkpt lat="43.62126" lon="6.36567">
        <ele>607.4</ele>
        <time>2021-12-15T15:40:11.000Z</time>
      </trkpt>
      <trkpt lat="43.62117" lon="6.36564">
        <ele>607.7</ele>
        <time>2021-12-15T15:40:19.000Z</time>
      </trkpt>
      <trkpt lat="43.62108" lon="6.36566">
        <ele>608.1</ele>
        <time>2021-12-15T15:40:28.000Z</time>
      </trkpt>
      <trkpt lat="43.62099" lon="6.3657">
        <ele>608.1</ele>
        <time>2021-12-15T15:40:37.000Z</time>
      </trkpt>
      <trkpt lat="43.6209" lon="6.36572">
        <ele>608.7</ele>
        <time>2021-12-15T15:40:45.000Z</time>
      </trkpt>
      <trkpt lat="43.6208" lon="6.36575">
        <ele>608.8</ele>
        <time>2021-12-15T15:40:54.000Z</time>
      </trkpt>
      <trkpt lat="43.62071" lon="6.36579">
        <ele>608.8</ele>
        <time>2021-12-15T15:41:04.000Z</time>
      </trkpt>
      <trkpt lat="43.62062" lon="6.36584">
        <ele>608.8</ele>
        <time>2021-12-15T15:41:12.000Z</time>
      </trkpt>
      <trkpt lat="43.62052" lon="6.36587">
        <ele>609</ele>
        <time>2021-12-15T15:41:20.000Z</time>
      </trkpt>
      <trkpt lat="43.62043" lon="6.3659">
        <ele>609.1</ele>
        <time>2021-12-15T15:41:27.000Z</time>
      </trkpt>
      <trkpt lat="43.62035" lon="6.36596">
        <ele>609.5</ele>
        <time>2021-12-15T15:41:35.000Z</time>
      </trkpt>
      <trkpt lat="43.62026" lon="6.366">
        <ele>609.4</ele>
        <time>2021-12-15T15:41:42.000Z</time>
      </trkpt>
      <trkpt lat="43.62016" lon="6.36604">
        <ele>609.6</ele>
        <time>2021-12-15T15:41:51.000Z</time>
      </trkpt>
      <trkpt lat="43.62007" lon="6.36607">
        <ele>609.9</ele>
        <time>2021-12-15T15:42:06.000Z</time>
      </trkpt>
      <trkpt lat="43.61998" lon="6.36607">
        <ele>609.5</ele>
        <time>2021-12-15T15:42:23.000Z</time>
      </trkpt>
      <trkpt lat="43.61993" lon="6.36612">
        <ele>610.5</ele>
        <time>2021-12-15T15:42:35.000Z</time>
      </trkpt>
      <trkpt lat="43.61993" lon="6.36613">
        <ele>609.8</ele>
        <time>2021-12-15T15:42:39.000Z</time>
      </trkpt>
      <trkpt lat="43.61988" lon="6.36624">
        <ele>610.6</ele>
        <time>2021-12-15T15:42:52.000Z</time>
      </trkpt>
      <trkpt lat="43.61977" lon="6.36626">
        <ele>610.4</ele>
        <time>2021-12-15T15:43:03.000Z</time>
      </trkpt>
      <trkpt lat="43.61971" lon="6.36635">
        <ele>610.5</ele>
        <time>2021-12-15T15:43:10.000Z</time>
      </trkpt>
      <trkpt lat="43.61962" lon="6.36641">
        <ele>610.7</ele>
        <time>2021-12-15T15:43:19.000Z</time>
      </trkpt>
      <trkpt lat="43.61953" lon="6.36645">
        <ele>610.7</ele>
        <time>2021-12-15T15:43:26.000Z</time>
      </trkpt>
      <trkpt lat="43.61944" lon="6.36649">
        <ele>610.8</ele>
        <time>2021-12-15T15:43:34.000Z</time>
      </trkpt>
      <trkpt lat="43.61935" lon="6.36652">
        <ele>611</ele>
        <time>2021-12-15T15:43:42.000Z</time>
      </trkpt>
      <trkpt lat="43.61926" lon="6.36656">
        <ele>611.4</ele>
        <time>2021-12-15T15:43:49.000Z</time>
      </trkpt>
      <trkpt lat="43.61918" lon="6.36662">
        <ele>611.7</ele>
        <time>2021-12-15T15:44:01.000Z</time>
      </trkpt>
      <trkpt lat="43.61909" lon="6.36666">
        <ele>612.2</ele>
        <time>2021-12-15T15:44:09.000Z</time>
      </trkpt>
      <trkpt lat="43.61902" lon="6.36674">
        <ele>612.3</ele>
        <time>2021-12-15T15:44:17.000Z</time>
      </trkpt>
      <trkpt lat="43.61893" lon="6.36677">
        <ele>612.8</ele>
        <time>2021-12-15T15:44:25.000Z</time>
      </trkpt>
      <trkpt lat="43.61884" lon="6.36683">
        <ele>613.3</ele>
        <time>2021-12-15T15:44:32.000Z</time>
      </trkpt>
      <trkpt lat="43.61876" lon="6.3669">
        <ele>613.5</ele>
        <time>2021-12-15T15:44:40.000Z</time>
      </trkpt>
      <trkpt lat="43.61869" lon="6.36698">
        <ele>613.9</ele>
        <time>2021-12-15T15:44:48.000Z</time>
      </trkpt>
      <trkpt lat="43.6186" lon="6.36705">
        <ele>614.2</ele>
        <time>2021-12-15T15:44:57.000Z</time>
      </trkpt>
      <trkpt lat="43.61852" lon="6.36712">
        <ele>614.3</ele>
        <time>2021-12-15T15:45:06.000Z</time>
      </trkpt>
      <trkpt lat="43.61843" lon="6.36716">
        <ele>614.3</ele>
        <time>2021-12-15T15:45:15.000Z</time>
      </trkpt>
      <trkpt lat="43.61834" lon="6.36724">
        <ele>614.4</ele>
        <time>2021-12-15T15:45:23.000Z</time>
      </trkpt>
      <trkpt lat="43.61827" lon="6.36731">
        <ele>614.8</ele>
        <time>2021-12-15T15:45:30.000Z</time>
      </trkpt>
      <trkpt lat="43.61817" lon="6.36733">
        <ele>614.9</ele>
        <time>2021-12-15T15:45:37.000Z</time>
      </trkpt>
      <trkpt lat="43.61808" lon="6.36735">
        <ele>615.4</ele>
        <time>2021-12-15T15:45:46.000Z</time>
      </trkpt>
      <trkpt lat="43.61806" lon="6.36731">
        <ele>615.2</ele>
        <time>2021-12-15T15:45:59.000Z</time>
      </trkpt>
      <trkpt lat="43.61805" lon="6.36731">
        <ele>615.5</ele>
        <time>2021-12-15T15:46:13.000Z</time>
      </trkpt>
      <trkpt lat="43.61804" lon="6.36729">
        <ele>615</ele>
        <time>2021-12-15T15:46:23.000Z</time>
      </trkpt>
      <trkpt lat="43.61804" lon="6.3673">
        <ele>615.1</ele>
        <time>2021-12-15T15:46:40.000Z</time>
      </trkpt>
      <trkpt lat="43.61795" lon="6.36735">
        <ele>614.6</ele>
        <time>2021-12-15T15:46:54.000Z</time>
      </trkpt>
      <trkpt lat="43.61786" lon="6.36742">
        <ele>614.7</ele>
        <time>2021-12-15T15:47:02.000Z</time>
      </trkpt>
      <trkpt lat="43.61777" lon="6.36747">
        <ele>614.7</ele>
        <time>2021-12-15T15:47:09.000Z</time>
      </trkpt>
      <trkpt lat="43.61768" lon="6.3675">
        <ele>614.7</ele>
        <time>2021-12-15T15:47:16.000Z</time>
      </trkpt>
      <trkpt lat="43.61758" lon="6.36751">
        <ele>614.4</ele>
        <time>2021-12-15T15:47:26.000Z</time>
      </trkpt>
      <trkpt lat="43.61749" lon="6.3675">
        <ele>614.6</ele>
        <time>2021-12-15T15:47:35.000Z</time>
      </trkpt>
      <trkpt lat="43.61739" lon="6.36753">
        <ele>614.5</ele>
        <time>2021-12-15T15:47:44.000Z</time>
      </trkpt>
      <trkpt lat="43.6173" lon="6.36753">
        <ele>614.3</ele>
        <time>2021-12-15T15:47:53.000Z</time>
      </trkpt>
      <trkpt lat="43.6172" lon="6.36751">
        <ele>614</ele>
        <time>2021-12-15T15:48:02.000Z</time>
      </trkpt>
      <trkpt lat="43.6171" lon="6.3675">
        <ele>614.4</ele>
        <time>2021-12-15T15:48:12.000Z</time>
      </trkpt>
      <trkpt lat="43.617" lon="6.3675">
        <ele>614.3</ele>
        <time>2021-12-15T15:48:20.000Z</time>
      </trkpt>
      <trkpt lat="43.6169" lon="6.36751">
        <ele>614.1</ele>
        <time>2021-12-15T15:48:29.000Z</time>
      </trkpt>
      <trkpt lat="43.61681" lon="6.36753">
        <ele>614.4</ele>
        <time>2021-12-15T15:48:37.000Z</time>
      </trkpt>
      <trkpt lat="43.61671" lon="6.36751">
        <ele>614.4</ele>
        <time>2021-12-15T15:48:45.000Z</time>
      </trkpt>
      <trkpt lat="43.61662" lon="6.36751">
        <ele>614.1</ele>
        <time>2021-12-15T15:48:52.000Z</time>
      </trkpt>
      <trkpt lat="43.61653" lon="6.36748">
        <ele>613.9</ele>
        <time>2021-12-15T15:49:00.000Z</time>
      </trkpt>
      <trkpt lat="43.61644" lon="6.36747">
        <ele>613.6</ele>
        <time>2021-12-15T15:49:07.000Z</time>
      </trkpt>
      <trkpt lat="43.61635" lon="6.36749">
        <ele>613.6</ele>
        <time>2021-12-15T15:49:15.000Z</time>
      </trkpt>
      <trkpt lat="43.61625" lon="6.3675">
        <ele>613.3</ele>
        <time>2021-12-15T15:49:24.000Z</time>
      </trkpt>
      <trkpt lat="43.61616" lon="6.36753">
        <ele>613.4</ele>
        <time>2021-12-15T15:49:33.000Z</time>
      </trkpt>
      <trkpt lat="43.61606" lon="6.36753">
        <ele>613.5</ele>
        <time>2021-12-15T15:49:43.000Z</time>
      </trkpt>
      <trkpt lat="43.61597" lon="6.36753">
        <ele>613.1</ele>
        <time>2021-12-15T15:49:51.000Z</time>
      </trkpt>
      <trkpt lat="43.61587" lon="6.3675">
        <ele>613</ele>
        <time>2021-12-15T15:49:59.000Z</time>
      </trkpt>
      <trkpt lat="43.61577" lon="6.36751">
        <ele>612.9</ele>
        <time>2021-12-15T15:50:09.000Z</time>
      </trkpt>
      <trkpt lat="43.61568" lon="6.36752">
        <ele>612.3</ele>
        <time>2021-12-15T15:50:18.000Z</time>
      </trkpt>
      <trkpt lat="43.6156" lon="6.36745">
        <ele>611.7</ele>
        <time>2021-12-15T15:50:29.000Z</time>
      </trkpt>
      <trkpt lat="43.6155" lon="6.36742">
        <ele>611.2</ele>
        <time>2021-12-15T15:50:37.000Z</time>
      </trkpt>
      <trkpt lat="43.61542" lon="6.36737">
        <ele>610.7</ele>
        <time>2021-12-15T15:50:45.000Z</time>
      </trkpt>
      <trkpt lat="43.61533" lon="6.3673">
        <ele>610.5</ele>
        <time>2021-12-15T15:50:54.000Z</time>
      </trkpt>
      <trkpt lat="43.61524" lon="6.36727">
        <ele>610.3</ele>
        <time>2021-12-15T15:51:01.000Z</time>
      </trkpt>
      <trkpt lat="43.61515" lon="6.36724">
        <ele>609.9</ele>
        <time>2021-12-15T15:51:09.000Z</time>
      </trkpt>
      <trkpt lat="43.61506" lon="6.36723">
        <ele>609.2</ele>
        <time>2021-12-15T15:51:18.000Z</time>
      </trkpt>
      <trkpt lat="43.61497" lon="6.36723">
        <ele>608.6</ele>
        <time>2021-12-15T15:51:29.000Z</time>
      </trkpt>
      <trkpt lat="43.61488" lon="6.36718">
        <ele>608.1</ele>
        <time>2021-12-15T15:51:37.000Z</time>
      </trkpt>
      <trkpt lat="43.61479" lon="6.36714">
        <ele>607.4</ele>
        <time>2021-12-15T15:51:46.000Z</time>
      </trkpt>
      <trkpt lat="43.6147" lon="6.36708">
        <ele>606.3</ele>
        <time>2021-12-15T15:51:55.000Z</time>
      </trkpt>
      <trkpt lat="43.61462" lon="6.367">
        <ele>605.4</ele>
        <time>2021-12-15T15:52:05.000Z</time>
      </trkpt>
      <trkpt lat="43.61454" lon="6.36693">
        <ele>604.4</ele>
        <time>2021-12-15T15:52:12.000Z</time>
      </trkpt>
      <trkpt lat="43.61444" lon="6.36696">
        <ele>603.1</ele>
        <time>2021-12-15T15:52:23.000Z</time>
      </trkpt>
      <trkpt lat="43.61435" lon="6.367">
        <ele>601.8</ele>
        <time>2021-12-15T15:52:34.000Z</time>
      </trkpt>
      <trkpt lat="43.61429" lon="6.3671">
        <ele>600.4</ele>
        <time>2021-12-15T15:52:43.000Z</time>
      </trkpt>
      <trkpt lat="43.61424" lon="6.367">
        <ele>598.8</ele>
        <time>2021-12-15T15:52:57.000Z</time>
      </trkpt>
      <trkpt lat="43.61416" lon="6.36692">
        <ele>597.5</ele>
        <time>2021-12-15T15:53:05.000Z</time>
      </trkpt>
      <trkpt lat="43.61409" lon="6.36683">
        <ele>597</ele>
        <time>2021-12-15T15:53:14.000Z</time>
      </trkpt>
      <trkpt lat="43.614" lon="6.3668">
        <ele>596.9</ele>
        <time>2021-12-15T15:53:23.000Z</time>
      </trkpt>
      <trkpt lat="43.61391" lon="6.36685">
        <ele>596.9</ele>
        <time>2021-12-15T15:53:31.000Z</time>
      </trkpt>
      <trkpt lat="43.61381" lon="6.36684">
        <ele>597.2</ele>
        <time>2021-12-15T15:53:39.000Z</time>
      </trkpt>
      <trkpt lat="43.61373" lon="6.36678">
        <ele>597</ele>
        <time>2021-12-15T15:53:48.000Z</time>
      </trkpt>
      <trkpt lat="43.61364" lon="6.36674">
        <ele>595.6</ele>
        <time>2021-12-15T15:53:56.000Z</time>
      </trkpt>
      <trkpt lat="43.61356" lon="6.36667">
        <ele>594.2</ele>
        <time>2021-12-15T15:54:05.000Z</time>
      </trkpt>
      <trkpt lat="43.61349" lon="6.36657">
        <ele>592.6</ele>
        <time>2021-12-15T15:54:14.000Z</time>
      </trkpt>
      <trkpt lat="43.61342" lon="6.36648">
        <ele>590.9</ele>
        <time>2021-12-15T15:54:23.000Z</time>
      </trkpt>
      <trkpt lat="43.61334" lon="6.36641">
        <ele>589.3</ele>
        <time>2021-12-15T15:54:32.000Z</time>
      </trkpt>
      <trkpt lat="43.61327" lon="6.36632">
        <ele>587.9</ele>
        <time>2021-12-15T15:54:44.000Z</time>
      </trkpt>
      <trkpt lat="43.61318" lon="6.36632">
        <ele>586.8</ele>
        <time>2021-12-15T15:54:56.000Z</time>
      </trkpt>
      <trkpt lat="43.61309" lon="6.36635">
        <ele>584.7</ele>
        <time>2021-12-15T15:55:12.000Z</time>
      </trkpt>
      <trkpt lat="43.61309" lon="6.36635">
        <ele>584.1</ele>
        <time>2021-12-15T15:55:15.000Z</time>
      </trkpt>
      <trkpt lat="43.61308" lon="6.36635">
        <ele>584.1</ele>
        <time>2021-12-15T15:55:16.000Z</time>
      </trkpt>
      <trkpt lat="43.61302" lon="6.36645">
        <ele>582.7</ele>
        <time>2021-12-15T15:55:26.000Z</time>
      </trkpt>
      <trkpt lat="43.61301" lon="6.36658">
        <ele>581.1</ele>
        <time>2021-12-15T15:55:37.000Z</time>
      </trkpt>
      <trkpt lat="43.61303" lon="6.3667">
        <ele>580.5</ele>
        <time>2021-12-15T15:55:49.000Z</time>
      </trkpt>
      <trkpt lat="43.61302" lon="6.36683">
        <ele>579.8</ele>
        <time>2021-12-15T15:56:00.000Z</time>
      </trkpt>
      <trkpt lat="43.613" lon="6.36689">
        <ele>579.4</ele>
        <time>2021-12-15T15:56:07.000Z</time>
      </trkpt>
      <trkpt lat="43.613" lon="6.36689">
        <ele>579.1</ele>
        <time>2021-12-15T15:56:08.000Z</time>
      </trkpt>
      <trkpt lat="43.613" lon="6.36689">
        <ele>579.8</ele>
        <time>2021-12-15T15:56:10.000Z</time>
      </trkpt>
      <trkpt lat="43.613" lon="6.36689">
        <ele>580.1</ele>
        <time>2021-12-15T15:56:11.000Z</time>
      </trkpt>
      <trkpt lat="43.613" lon="6.36691">
        <ele>579.9</ele>
        <time>2021-12-15T15:56:17.000Z</time>
      </trkpt>
      <trkpt lat="43.613" lon="6.36691">
        <ele>580.2</ele>
        <time>2021-12-15T15:56:19.000Z</time>
      </trkpt>
      <trkpt lat="43.613" lon="6.36691">
        <ele>580.2</ele>
        <time>2021-12-15T15:56:20.000Z</time>
      </trkpt>
      <trkpt lat="43.613" lon="6.36692">
        <ele>580</ele>
        <time>2021-12-15T15:56:23.000Z</time>
      </trkpt>
      <trkpt lat="43.613" lon="6.3669">
        <ele>579.6</ele>
        <time>2021-12-15T15:56:25.000Z</time>
      </trkpt>
      <trkpt lat="43.613" lon="6.36691">
        <ele>580</ele>
        <time>2021-12-15T15:56:38.000Z</time>
      </trkpt>
      <trkpt lat="43.613" lon="6.3669">
        <ele>579.5</ele>
        <time>2021-12-15T15:56:42.000Z</time>
      </trkpt>
      <trkpt lat="43.613" lon="6.36691">
        <ele>579.7</ele>
        <time>2021-12-15T15:56:43.000Z</time>
      </trkpt>
      <trkpt lat="43.613" lon="6.36691">
        <ele>579.8</ele>
        <time>2021-12-15T15:56:45.000Z</time>
      </trkpt>
      <trkpt lat="43.613" lon="6.36691">
        <ele>579.8</ele>
        <time>2021-12-15T15:56:49.000Z</time>
      </trkpt>
      <trkpt lat="43.613" lon="6.36692">
        <ele>579.5</ele>
        <time>2021-12-15T15:56:52.000Z</time>
      </trkpt>
      <trkpt lat="43.61299" lon="6.36692">
        <ele>579.3</ele>
        <time>2021-12-15T15:56:54.000Z</time>
      </trkpt>
      <trkpt lat="43.61299" lon="6.36692">
        <ele>579.3</ele>
        <time>2021-12-15T15:56:55.000Z</time>
      </trkpt>
      <trkpt lat="43.613" lon="6.36691">
        <ele>579.6</ele>
        <time>2021-12-15T15:56:58.000Z</time>
      </trkpt>
      <trkpt lat="43.613" lon="6.36691">
        <ele>579.6</ele>
        <time>2021-12-15T15:56:59.000Z</time>
      </trkpt>
      <trkpt lat="43.61299" lon="6.36692">
        <ele>579.4</ele>
        <time>2021-12-15T15:57:04.000Z</time>
      </trkpt>
      <trkpt lat="43.6129" lon="6.36693">
        <ele>578.1</ele>
        <time>2021-12-15T15:57:20.000Z</time>
      </trkpt>
      <trkpt lat="43.61283" lon="6.36686">
        <ele>576.2</ele>
        <time>2021-12-15T15:57:32.000Z</time>
      </trkpt>
      <trkpt lat="43.61273" lon="6.36689">
        <ele>575.1</ele>
        <time>2021-12-15T15:57:42.000Z</time>
      </trkpt>
      <trkpt lat="43.61266" lon="6.36698">
        <ele>574.4</ele>
        <time>2021-12-15T15:57:51.000Z</time>
      </trkpt>
      <trkpt lat="43.6126" lon="6.36707">
        <ele>573.9</ele>
        <time>2021-12-15T15:58:01.000Z</time>
      </trkpt>
      <trkpt lat="43.61251" lon="6.36714">
        <ele>572.6</ele>
        <time>2021-12-15T15:58:15.000Z</time>
      </trkpt>
      <trkpt lat="43.61242" lon="6.36715">
        <ele>572</ele>
        <time>2021-12-15T15:58:26.000Z</time>
      </trkpt>
      <trkpt lat="43.61233" lon="6.36718">
        <ele>570.6</ele>
        <time>2021-12-15T15:58:42.000Z</time>
      </trkpt>
      <trkpt lat="43.61224" lon="6.36721">
        <ele>570.2</ele>
        <time>2021-12-15T15:58:51.000Z</time>
      </trkpt>
      <trkpt lat="43.61215" lon="6.36724">
        <ele>569.8</ele>
        <time>2021-12-15T15:58:59.000Z</time>
      </trkpt>
      <trkpt lat="43.61206" lon="6.36727">
        <ele>568.6</ele>
        <time>2021-12-15T15:59:07.000Z</time>
      </trkpt>
      <trkpt lat="43.61197" lon="6.36731">
        <ele>568</ele>
        <time>2021-12-15T15:59:15.000Z</time>
      </trkpt>
      <trkpt lat="43.6119" lon="6.36738">
        <ele>567.4</ele>
        <time>2021-12-15T15:59:22.000Z</time>
      </trkpt>
      <trkpt lat="43.61183" lon="6.36747">
        <ele>567.4</ele>
        <time>2021-12-15T15:59:29.000Z</time>
      </trkpt>
      <trkpt lat="43.61175" lon="6.36754">
        <ele>566.2</ele>
        <time>2021-12-15T15:59:37.000Z</time>
      </trkpt>
      <trkpt lat="43.61171" lon="6.36766">
        <ele>565.8</ele>
        <time>2021-12-15T15:59:45.000Z</time>
      </trkpt>
      <trkpt lat="43.61166" lon="6.36776">
        <ele>565.5</ele>
        <time>2021-12-15T15:59:52.000Z</time>
      </trkpt>
      <trkpt lat="43.61163" lon="6.36789">
        <ele>565.6</ele>
        <time>2021-12-15T16:00:00.000Z</time>
      </trkpt>
      <trkpt lat="43.61159" lon="6.36801">
        <ele>564.9</ele>
        <time>2021-12-15T16:00:07.000Z</time>
      </trkpt>
      <trkpt lat="43.61157" lon="6.36815">
        <ele>564.6</ele>
        <time>2021-12-15T16:00:14.000Z</time>
      </trkpt>
      <trkpt lat="43.61154" lon="6.36828">
        <ele>563.9</ele>
        <time>2021-12-15T16:00:22.000Z</time>
      </trkpt>
      <trkpt lat="43.61153" lon="6.3684">
        <ele>562.5</ele>
        <time>2021-12-15T16:00:32.000Z</time>
      </trkpt>
      <trkpt lat="43.61153" lon="6.36853">
        <ele>561.8</ele>
        <time>2021-12-15T16:00:40.000Z</time>
      </trkpt>
      <trkpt lat="43.61151" lon="6.36866">
        <ele>562</ele>
        <time>2021-12-15T16:00:51.000Z</time>
      </trkpt>
      <trkpt lat="43.6115" lon="6.3688">
        <ele>561.9</ele>
        <time>2021-12-15T16:01:00.000Z</time>
      </trkpt>
      <trkpt lat="43.6115" lon="6.36893">
        <ele>561.9</ele>
        <time>2021-12-15T16:01:08.000Z</time>
      </trkpt>
      <trkpt lat="43.61151" lon="6.36906">
        <ele>561.5</ele>
        <time>2021-12-15T16:01:19.000Z</time>
      </trkpt>
      <trkpt lat="43.61145" lon="6.36916">
        <ele>561.1</ele>
        <time>2021-12-15T16:01:28.000Z</time>
      </trkpt>
      <trkpt lat="43.61139" lon="6.36925">
        <ele>561.3</ele>
        <time>2021-12-15T16:01:36.000Z</time>
      </trkpt>
      <trkpt lat="43.61134" lon="6.36937">
        <ele>561.3</ele>
        <time>2021-12-15T16:01:45.000Z</time>
      </trkpt>
      <trkpt lat="43.61127" lon="6.36946">
        <ele>560.3</ele>
        <time>2021-12-15T16:02:01.000Z</time>
      </trkpt>
      <trkpt lat="43.6112" lon="6.36953">
        <ele>558.7</ele>
        <time>2021-12-15T16:02:20.000Z</time>
      </trkpt>
      <trkpt lat="43.61113" lon="6.36963">
        <ele>558.3</ele>
        <time>2021-12-15T16:02:31.000Z</time>
      </trkpt>
      <trkpt lat="43.61106" lon="6.36971">
        <ele>558.2</ele>
        <time>2021-12-15T16:02:40.000Z</time>
      </trkpt>
      <trkpt lat="43.61099" lon="6.3698">
        <ele>558</ele>
        <time>2021-12-15T16:02:53.000Z</time>
      </trkpt>
      <trkpt lat="43.61092" lon="6.36989">
        <ele>557.6</ele>
        <time>2021-12-15T16:03:05.000Z</time>
      </trkpt>
      <trkpt lat="43.61086" lon="6.36992">
        <ele>557.1</ele>
        <time>2021-12-15T16:03:13.000Z</time>
      </trkpt>
      <trkpt lat="43.61086" lon="6.36992">
        <ele>557.9</ele>
        <time>2021-12-15T16:03:14.000Z</time>
      </trkpt>
      <trkpt lat="43.61083" lon="6.36997">
        <ele>558.9</ele>
        <time>2021-12-15T16:03:29.000Z</time>
      </trkpt>
      <trkpt lat="43.61083" lon="6.36997">
        <ele>558.7</ele>
        <time>2021-12-15T16:03:30.000Z</time>
      </trkpt>
      <trkpt lat="43.61082" lon="6.36997">
        <ele>558.3</ele>
        <time>2021-12-15T16:03:33.000Z</time>
      </trkpt>
      <trkpt lat="43.61082" lon="6.36997">
        <ele>557.1</ele>
        <time>2021-12-15T16:03:34.000Z</time>
      </trkpt>
      <trkpt lat="43.61075" lon="6.37005">
        <ele>558.3</ele>
        <time>2021-12-15T16:03:50.000Z</time>
      </trkpt>
      <trkpt lat="43.61071" lon="6.37009">
        <ele>559</ele>
        <time>2021-12-15T16:03:56.000Z</time>
      </trkpt>
      <trkpt lat="43.61071" lon="6.37009">
        <ele>559.3</ele>
        <time>2021-12-15T16:03:57.000Z</time>
      </trkpt>
      <trkpt lat="43.61071" lon="6.37011">
        <ele>559.7</ele>
        <time>2021-12-15T16:04:04.000Z</time>
      </trkpt>
      <trkpt lat="43.61071" lon="6.37011">
        <ele>559</ele>
        <time>2021-12-15T16:04:07.000Z</time>
      </trkpt>
      <trkpt lat="43.61063" lon="6.3702">
        <ele>561</ele>
        <time>2021-12-15T16:04:19.000Z</time>
      </trkpt>
      <trkpt lat="43.61062" lon="6.37019">
        <ele>561.5</ele>
        <time>2021-12-15T16:04:25.000Z</time>
      </trkpt>
      <trkpt lat="43.61061" lon="6.3702">
        <ele>561.5</ele>
        <time>2021-12-15T16:04:32.000Z</time>
      </trkpt>
      <trkpt lat="43.61053" lon="6.37026">
        <ele>562.4</ele>
        <time>2021-12-15T16:04:49.000Z</time>
      </trkpt>
      <trkpt lat="43.61045" lon="6.37032">
        <ele>565.5</ele>
        <time>2021-12-15T16:05:04.000Z</time>
      </trkpt>
      <trkpt lat="43.61043" lon="6.37037">
        <ele>566.7</ele>
        <time>2021-12-15T16:05:16.000Z</time>
      </trkpt>
      <trkpt lat="43.61042" lon="6.37037">
        <ele>566.6</ele>
        <time>2021-12-15T16:05:17.000Z</time>
      </trkpt>
      <trkpt lat="43.61036" lon="6.37047">
        <ele>569</ele>
        <time>2021-12-15T16:05:35.000Z</time>
      </trkpt>
      <trkpt lat="43.61027" lon="6.3705">
        <ele>571.8</ele>
        <time>2021-12-15T16:05:55.000Z</time>
      </trkpt>
      <trkpt lat="43.61018" lon="6.37048">
        <ele>574.4</ele>
        <time>2021-12-15T16:06:14.000Z</time>
      </trkpt>
      <trkpt lat="43.61014" lon="6.37047">
        <ele>575.5</ele>
        <time>2021-12-15T16:06:23.000Z</time>
      </trkpt>
      <trkpt lat="43.61014" lon="6.37047">
        <ele>575.7</ele>
        <time>2021-12-15T16:06:24.000Z</time>
      </trkpt>
      <trkpt lat="43.61011" lon="6.37047">
        <ele>577.4</ele>
        <time>2021-12-15T16:06:32.000Z</time>
      </trkpt>
      <trkpt lat="43.61011" lon="6.37047">
        <ele>577.3</ele>
        <time>2021-12-15T16:06:33.000Z</time>
      </trkpt>
      <trkpt lat="43.6101" lon="6.37045">
        <ele>577.6</ele>
        <time>2021-12-15T16:06:36.000Z</time>
      </trkpt>
      <trkpt lat="43.6101" lon="6.37045">
        <ele>577.4</ele>
        <time>2021-12-15T16:06:37.000Z</time>
      </trkpt>
      <trkpt lat="43.61007" lon="6.37043">
        <ele>578.6</ele>
        <time>2021-12-15T16:06:47.000Z</time>
      </trkpt>
      <trkpt lat="43.61007" lon="6.37042">
        <ele>578.4</ele>
        <time>2021-12-15T16:06:48.000Z</time>
      </trkpt>
      <trkpt lat="43.61" lon="6.37035">
        <ele>581.2</ele>
        <time>2021-12-15T16:07:05.000Z</time>
      </trkpt>
      <trkpt lat="43.60991" lon="6.37039">
        <ele>586.6</ele>
        <time>2021-12-15T16:07:38.000Z</time>
      </trkpt>
      <trkpt lat="43.60985" lon="6.37049">
        <ele>588.6</ele>
        <time>2021-12-15T16:07:54.000Z</time>
      </trkpt>
      <trkpt lat="43.60984" lon="6.37051">
        <ele>589.9</ele>
        <time>2021-12-15T16:08:01.000Z</time>
      </trkpt>
      <trkpt lat="43.60983" lon="6.37052">
        <ele>590</ele>
        <time>2021-12-15T16:08:02.000Z</time>
      </trkpt>
      <trkpt lat="43.60981" lon="6.37056">
        <ele>591.3</ele>
        <time>2021-12-15T16:08:15.000Z</time>
      </trkpt>
      <trkpt lat="43.60981" lon="6.37057">
        <ele>591.7</ele>
        <time>2021-12-15T16:08:16.000Z</time>
      </trkpt>
      <trkpt lat="43.60974" lon="6.37065">
        <ele>594</ele>
        <time>2021-12-15T16:08:31.000Z</time>
      </trkpt>
      <trkpt lat="43.60968" lon="6.37074">
        <ele>595.9</ele>
        <time>2021-12-15T16:08:49.000Z</time>
      </trkpt>
      <trkpt lat="43.6096" lon="6.37081">
        <ele>598.2</ele>
        <time>2021-12-15T16:09:02.000Z</time>
      </trkpt>
      <trkpt lat="43.60954" lon="6.37091">
        <ele>600.2</ele>
        <time>2021-12-15T16:09:20.000Z</time>
      </trkpt>
      <trkpt lat="43.60947" lon="6.37099">
        <ele>603.1</ele>
        <time>2021-12-15T16:09:40.000Z</time>
      </trkpt>
      <trkpt lat="43.6094" lon="6.37107">
        <ele>605.9</ele>
        <time>2021-12-15T16:09:57.000Z</time>
      </trkpt>
      <trkpt lat="43.60937" lon="6.37108">
        <ele>606.5</ele>
        <time>2021-12-15T16:10:04.000Z</time>
      </trkpt>
      <trkpt lat="43.60937" lon="6.37108">
        <ele>606.5</ele>
        <time>2021-12-15T16:10:05.000Z</time>
      </trkpt>
      <trkpt lat="43.60937" lon="6.37108">
        <ele>606.8</ele>
        <time>2021-12-15T16:10:06.000Z</time>
      </trkpt>
      <trkpt lat="43.60937" lon="6.37107">
        <ele>606.7</ele>
        <time>2021-12-15T16:10:07.000Z</time>
      </trkpt>
      <trkpt lat="43.60935" lon="6.37108">
        <ele>607.5</ele>
        <time>2021-12-15T16:10:16.000Z</time>
      </trkpt>
      <trkpt lat="43.60935" lon="6.37108">
        <ele>607.6</ele>
        <time>2021-12-15T16:10:27.000Z</time>
      </trkpt>
      <trkpt lat="43.60935" lon="6.37108">
        <ele>607.7</ele>
        <time>2021-12-15T16:10:28.000Z</time>
      </trkpt>
      <trkpt lat="43.60936" lon="6.37108">
        <ele>607.6</ele>
        <time>2021-12-15T16:10:45.000Z</time>
      </trkpt>
      <trkpt lat="43.60936" lon="6.37108">
        <ele>607.4</ele>
        <time>2021-12-15T16:10:47.000Z</time>
      </trkpt>
      <trkpt lat="43.60936" lon="6.37109">
        <ele>607.3</ele>
        <time>2021-12-15T16:10:48.000Z</time>
      </trkpt>
      <trkpt lat="43.60936" lon="6.37109">
        <ele>607.3</ele>
        <time>2021-12-15T16:10:49.000Z</time>
      </trkpt>
      <trkpt lat="43.60936" lon="6.37108">
        <ele>607.6</ele>
        <time>2021-12-15T16:11:59.000Z</time>
      </trkpt>
      <trkpt lat="43.60935" lon="6.37109">
        <ele>607.7</ele>
        <time>2021-12-15T16:12:06.000Z</time>
      </trkpt>
      <trkpt lat="43.60935" lon="6.37109">
        <ele>607.9</ele>
        <time>2021-12-15T16:12:28.000Z</time>
      </trkpt>
      <trkpt lat="43.60935" lon="6.37109">
        <ele>607.9</ele>
        <time>2021-12-15T16:12:29.000Z</time>
      </trkpt>
      <trkpt lat="43.60934" lon="6.37109">
        <ele>608.4</ele>
        <time>2021-12-15T16:12:30.000Z</time>
      </trkpt>
      <trkpt lat="43.60926" lon="6.37116">
        <ele>609.6</ele>
        <time>2021-12-15T16:12:45.000Z</time>
      </trkpt>
      <trkpt lat="43.6092" lon="6.37126">
        <ele>612.1</ele>
        <time>2021-12-15T16:12:56.000Z</time>
      </trkpt>
      <trkpt lat="43.6092" lon="6.37126">
        <ele>612.1</ele>
        <time>2021-12-15T16:12:58.000Z</time>
      </trkpt>
      <trkpt lat="43.60919" lon="6.37127">
        <ele>612</ele>
        <time>2021-12-15T16:13:01.000Z</time>
      </trkpt>
      <trkpt lat="43.60913" lon="6.37137">
        <ele>612.8</ele>
        <time>2021-12-15T16:13:11.000Z</time>
      </trkpt>
      <trkpt lat="43.60906" lon="6.37145">
        <ele>614.7</ele>
        <time>2021-12-15T16:13:23.000Z</time>
      </trkpt>
      <trkpt lat="43.60897" lon="6.3715">
        <ele>616.1</ele>
        <time>2021-12-15T16:13:34.000Z</time>
      </trkpt>
      <trkpt lat="43.60887" lon="6.37152">
        <ele>616.9</ele>
        <time>2021-12-15T16:13:44.000Z</time>
      </trkpt>
      <trkpt lat="43.6088" lon="6.37161">
        <ele>618</ele>
        <time>2021-12-15T16:13:54.000Z</time>
      </trkpt>
      <trkpt lat="43.60872" lon="6.37166">
        <ele>618.5</ele>
        <time>2021-12-15T16:14:03.000Z</time>
      </trkpt>
      <trkpt lat="43.60865" lon="6.37177">
        <ele>619.6</ele>
        <time>2021-12-15T16:14:11.000Z</time>
      </trkpt>
      <trkpt lat="43.60859" lon="6.37186">
        <ele>620.1</ele>
        <time>2021-12-15T16:14:20.000Z</time>
      </trkpt>
      <trkpt lat="43.60851" lon="6.37195">
        <ele>620.6</ele>
        <time>2021-12-15T16:14:29.000Z</time>
      </trkpt>
      <trkpt lat="43.60844" lon="6.37204">
        <ele>621</ele>
        <time>2021-12-15T16:14:38.000Z</time>
      </trkpt>
      <trkpt lat="43.60837" lon="6.37214">
        <ele>621.8</ele>
        <time>2021-12-15T16:14:47.000Z</time>
      </trkpt>
      <trkpt lat="43.6083" lon="6.37221">
        <ele>622.1</ele>
        <time>2021-12-15T16:14:55.000Z</time>
      </trkpt>
      <trkpt lat="43.60823" lon="6.37231">
        <ele>622.1</ele>
        <time>2021-12-15T16:15:02.000Z</time>
      </trkpt>
      <trkpt lat="43.60817" lon="6.37241">
        <ele>622.4</ele>
        <time>2021-12-15T16:15:11.000Z</time>
      </trkpt>
      <trkpt lat="43.6081" lon="6.3725">
        <ele>623.1</ele>
        <time>2021-12-15T16:15:20.000Z</time>
      </trkpt>
      <trkpt lat="43.60805" lon="6.3726">
        <ele>623.2</ele>
        <time>2021-12-15T16:15:29.000Z</time>
      </trkpt>
      <trkpt lat="43.60802" lon="6.37272">
        <ele>623.3</ele>
        <time>2021-12-15T16:15:37.000Z</time>
      </trkpt>
      <trkpt lat="43.60796" lon="6.37284">
        <ele>623.4</ele>
        <time>2021-12-15T16:15:46.000Z</time>
      </trkpt>
      <trkpt lat="43.6079" lon="6.37294">
        <ele>622.8</ele>
        <time>2021-12-15T16:15:55.000Z</time>
      </trkpt>
      <trkpt lat="43.60783" lon="6.37303">
        <ele>622.8</ele>
        <time>2021-12-15T16:16:05.000Z</time>
      </trkpt>
      <trkpt lat="43.60777" lon="6.37315">
        <ele>622.5</ele>
        <time>2021-12-15T16:16:14.000Z</time>
      </trkpt>
      <trkpt lat="43.60771" lon="6.37326">
        <ele>622.4</ele>
        <time>2021-12-15T16:16:22.000Z</time>
      </trkpt>
      <trkpt lat="43.60765" lon="6.37337">
        <ele>622.4</ele>
        <time>2021-12-15T16:16:33.000Z</time>
      </trkpt>
      <trkpt lat="43.60756" lon="6.37344">
        <ele>622.2</ele>
        <time>2021-12-15T16:16:42.000Z</time>
      </trkpt>
      <trkpt lat="43.60749" lon="6.37353">
        <ele>622.4</ele>
        <time>2021-12-15T16:16:50.000Z</time>
      </trkpt>
      <trkpt lat="43.60741" lon="6.37359">
        <ele>622.7</ele>
        <time>2021-12-15T16:16:58.000Z</time>
      </trkpt>
      <trkpt lat="43.60733" lon="6.37367">
        <ele>622.5</ele>
        <time>2021-12-15T16:17:06.000Z</time>
      </trkpt>
      <trkpt lat="43.60726" lon="6.37377">
        <ele>621.7</ele>
        <time>2021-12-15T16:17:14.000Z</time>
      </trkpt>
      <trkpt lat="43.60722" lon="6.37389">
        <ele>621.4</ele>
        <time>2021-12-15T16:17:22.000Z</time>
      </trkpt>
      <trkpt lat="43.60716" lon="6.374">
        <ele>620.9</ele>
        <time>2021-12-15T16:17:31.000Z</time>
      </trkpt>
      <trkpt lat="43.60712" lon="6.37411">
        <ele>620.3</ele>
        <time>2021-12-15T16:17:38.000Z</time>
      </trkpt>
      <trkpt lat="43.60708" lon="6.37423">
        <ele>620.7</ele>
        <time>2021-12-15T16:17:47.000Z</time>
      </trkpt>
      <trkpt lat="43.60704" lon="6.37434">
        <ele>621.2</ele>
        <time>2021-12-15T16:17:56.000Z</time>
      </trkpt>
      <trkpt lat="43.60701" lon="6.37447">
        <ele>621.3</ele>
        <time>2021-12-15T16:18:05.000Z</time>
      </trkpt>
      <trkpt lat="43.60698" lon="6.37459">
        <ele>621.5</ele>
        <time>2021-12-15T16:18:13.000Z</time>
      </trkpt>
      <trkpt lat="43.60697" lon="6.37473">
        <ele>622.3</ele>
        <time>2021-12-15T16:18:23.000Z</time>
      </trkpt>
      <trkpt lat="43.60694" lon="6.37485">
        <ele>622.4</ele>
        <time>2021-12-15T16:18:31.000Z</time>
      </trkpt>
      <trkpt lat="43.60692" lon="6.37499">
        <ele>623</ele>
        <time>2021-12-15T16:18:40.000Z</time>
      </trkpt>
      <trkpt lat="43.60692" lon="6.37512">
        <ele>623.3</ele>
        <time>2021-12-15T16:18:53.000Z</time>
      </trkpt>
      <trkpt lat="43.60692" lon="6.37515">
        <ele>623.3</ele>
        <time>2021-12-15T16:19:02.000Z</time>
      </trkpt>
      <trkpt lat="43.60692" lon="6.37515">
        <ele>623.2</ele>
        <time>2021-12-15T16:19:04.000Z</time>
      </trkpt>
      <trkpt lat="43.60692" lon="6.37515">
        <ele>623.2</ele>
        <time>2021-12-15T16:19:05.000Z</time>
      </trkpt>
      <trkpt lat="43.60693" lon="6.37515">
        <ele>623.7</ele>
        <time>2021-12-15T16:19:26.000Z</time>
      </trkpt>
      <trkpt lat="43.60693" lon="6.37515">
        <ele>623.7</ele>
        <time>2021-12-15T16:19:27.000Z</time>
      </trkpt>
      <trkpt lat="43.60693" lon="6.37516">
        <ele>623.7</ele>
        <time>2021-12-15T16:19:28.000Z</time>
      </trkpt>
      <trkpt lat="43.60693" lon="6.37516">
        <ele>623.8</ele>
        <time>2021-12-15T16:19:29.000Z</time>
      </trkpt>
      <trkpt lat="43.60693" lon="6.37515">
        <ele>623.7</ele>
        <time>2021-12-15T16:19:34.000Z</time>
      </trkpt>
      <trkpt lat="43.60694" lon="6.37515">
        <ele>623.5</ele>
        <time>2021-12-15T16:19:36.000Z</time>
      </trkpt>
      <trkpt lat="43.60694" lon="6.37514">
        <ele>623.9</ele>
        <time>2021-12-15T16:19:44.000Z</time>
      </trkpt>
      <trkpt lat="43.60694" lon="6.37514">
        <ele>624</ele>
        <time>2021-12-15T16:19:46.000Z</time>
      </trkpt>
      <trkpt lat="43.60694" lon="6.37514">
        <ele>624.1</ele>
        <time>2021-12-15T16:19:47.000Z</time>
      </trkpt>
      <trkpt lat="43.60694" lon="6.37514">
        <ele>624.1</ele>
        <time>2021-12-15T16:19:49.000Z</time>
      </trkpt>
      <trkpt lat="43.60694" lon="6.37513">
        <ele>624.3</ele>
        <time>2021-12-15T16:20:04.000Z</time>
      </trkpt>
      <trkpt lat="43.60694" lon="6.37513">
        <ele>624.4</ele>
        <time>2021-12-15T16:20:05.000Z</time>
      </trkpt>
      <trkpt lat="43.60695" lon="6.37513">
        <ele>623.9</ele>
        <time>2021-12-15T16:20:10.000Z</time>
      </trkpt>
      <trkpt lat="43.60694" lon="6.37527">
        <ele>624.1</ele>
        <time>2021-12-15T16:20:21.000Z</time>
      </trkpt>
      <trkpt lat="43.60692" lon="6.3754">
        <ele>624.1</ele>
        <time>2021-12-15T16:20:32.000Z</time>
      </trkpt>
      <trkpt lat="43.60695" lon="6.37553">
        <ele>624</ele>
        <time>2021-12-15T16:20:42.000Z</time>
      </trkpt>
      <trkpt lat="43.60696" lon="6.37567">
        <ele>623.7</ele>
        <time>2021-12-15T16:20:50.000Z</time>
      </trkpt>
      <trkpt lat="43.60695" lon="6.37581">
        <ele>623.8</ele>
        <time>2021-12-15T16:20:57.000Z</time>
      </trkpt>
      <trkpt lat="43.60696" lon="6.37594">
        <ele>623.3</ele>
        <time>2021-12-15T16:21:05.000Z</time>
      </trkpt>
      <trkpt lat="43.60698" lon="6.37608">
        <ele>622.7</ele>
        <time>2021-12-15T16:21:14.000Z</time>
      </trkpt>
      <trkpt lat="43.60699" lon="6.37622">
        <ele>622.2</ele>
        <time>2021-12-15T16:21:21.000Z</time>
      </trkpt>
      <trkpt lat="43.60699" lon="6.37635">
        <ele>622.3</ele>
        <time>2021-12-15T16:21:28.000Z</time>
      </trkpt>
      <trkpt lat="43.607" lon="6.37649">
        <ele>621.4</ele>
        <time>2021-12-15T16:21:35.000Z</time>
      </trkpt>
      <trkpt lat="43.60701" lon="6.37662">
        <ele>621.2</ele>
        <time>2021-12-15T16:21:42.000Z</time>
      </trkpt>
      <trkpt lat="43.60702" lon="6.37675">
        <ele>621.1</ele>
        <time>2021-12-15T16:21:49.000Z</time>
      </trkpt>
      <trkpt lat="43.60703" lon="6.37688">
        <ele>620.7</ele>
        <time>2021-12-15T16:21:57.000Z</time>
      </trkpt>
      <trkpt lat="43.60706" lon="6.377">
        <ele>620.2</ele>
        <time>2021-12-15T16:22:05.000Z</time>
      </trkpt>
      <trkpt lat="43.60709" lon="6.37712">
        <ele>619.8</ele>
        <time>2021-12-15T16:22:12.000Z</time>
      </trkpt>
      <trkpt lat="43.60712" lon="6.37725">
        <ele>619.8</ele>
        <time>2021-12-15T16:22:21.000Z</time>
      </trkpt>
      <trkpt lat="43.60713" lon="6.37738">
        <ele>619.8</ele>
        <time>2021-12-15T16:22:29.000Z</time>
      </trkpt>
      <trkpt lat="43.60715" lon="6.37752">
        <ele>620.2</ele>
        <time>2021-12-15T16:22:37.000Z</time>
      </trkpt>
      <trkpt lat="43.60717" lon="6.37764">
        <ele>620.8</ele>
        <time>2021-12-15T16:22:45.000Z</time>
      </trkpt>
      <trkpt lat="43.60718" lon="6.37777">
        <ele>621</ele>
        <time>2021-12-15T16:22:53.000Z</time>
      </trkpt>
      <trkpt lat="43.6072" lon="6.37791">
        <ele>621.4</ele>
        <time>2021-12-15T16:23:02.000Z</time>
      </trkpt>
      <trkpt lat="43.60721" lon="6.37804">
        <ele>621.5</ele>
        <time>2021-12-15T16:23:09.000Z</time>
      </trkpt>
      <trkpt lat="43.60723" lon="6.37817">
        <ele>622</ele>
        <time>2021-12-15T16:23:17.000Z</time>
      </trkpt>
      <trkpt lat="43.60725" lon="6.3783">
        <ele>622.5</ele>
        <time>2021-12-15T16:23:25.000Z</time>
      </trkpt>
      <trkpt lat="43.60727" lon="6.37844">
        <ele>622.9</ele>
        <time>2021-12-15T16:23:33.000Z</time>
      </trkpt>
      <trkpt lat="43.60729" lon="6.37857">
        <ele>623.4</ele>
        <time>2021-12-15T16:23:41.000Z</time>
      </trkpt>
      <trkpt lat="43.60731" lon="6.37871">
        <ele>623.8</ele>
        <time>2021-12-15T16:23:49.000Z</time>
      </trkpt>
      <trkpt lat="43.60728" lon="6.37884">
        <ele>624.1</ele>
        <time>2021-12-15T16:23:59.000Z</time>
      </trkpt>
      <trkpt lat="43.60727" lon="6.37897">
        <ele>624.2</ele>
        <time>2021-12-15T16:24:06.000Z</time>
      </trkpt>
      <trkpt lat="43.60728" lon="6.3791">
        <ele>624.8</ele>
        <time>2021-12-15T16:24:14.000Z</time>
      </trkpt>
      <trkpt lat="43.60729" lon="6.37923">
        <ele>624.7</ele>
        <time>2021-12-15T16:24:22.000Z</time>
      </trkpt>
      <trkpt lat="43.6073" lon="6.37937">
        <ele>624.6</ele>
        <time>2021-12-15T16:24:30.000Z</time>
      </trkpt>
      <trkpt lat="43.60731" lon="6.37951">
        <ele>624.1</ele>
        <time>2021-12-15T16:24:38.000Z</time>
      </trkpt>
      <trkpt lat="43.60733" lon="6.37965">
        <ele>623.5</ele>
        <time>2021-12-15T16:24:46.000Z</time>
      </trkpt>
      <trkpt lat="43.60735" lon="6.37978">
        <ele>623</ele>
        <time>2021-12-15T16:24:54.000Z</time>
      </trkpt>
      <trkpt lat="43.60738" lon="6.37992">
        <ele>622.4</ele>
        <time>2021-12-15T16:25:02.000Z</time>
      </trkpt>
      <trkpt lat="43.60741" lon="6.38004">
        <ele>622.1</ele>
        <time>2021-12-15T16:25:10.000Z</time>
      </trkpt>
      <trkpt lat="43.60745" lon="6.38016">
        <ele>621.8</ele>
        <time>2021-12-15T16:25:18.000Z</time>
      </trkpt>
      <trkpt lat="43.60748" lon="6.38029">
        <ele>621.5</ele>
        <time>2021-12-15T16:25:26.000Z</time>
      </trkpt>
      <trkpt lat="43.60744" lon="6.38041">
        <ele>621.3</ele>
        <time>2021-12-15T16:25:36.000Z</time>
      </trkpt>
      <trkpt lat="43.60735" lon="6.38045">
        <ele>621.3</ele>
        <time>2021-12-15T16:25:44.000Z</time>
      </trkpt>
      <trkpt lat="43.60726" lon="6.38048">
        <ele>621.9</ele>
        <time>2021-12-15T16:25:53.000Z</time>
      </trkpt>
      <trkpt lat="43.60718" lon="6.38055">
        <ele>619.4</ele>
        <time>2021-12-15T16:26:11.000Z</time>
      </trkpt>
      <trkpt lat="43.60713" lon="6.38066">
        <ele>618.5</ele>
        <time>2021-12-15T16:26:20.000Z</time>
      </trkpt>
      <trkpt lat="43.60709" lon="6.38078">
        <ele>618</ele>
        <time>2021-12-15T16:26:28.000Z</time>
      </trkpt>
      <trkpt lat="43.60707" lon="6.38091">
        <ele>617</ele>
        <time>2021-12-15T16:26:37.000Z</time>
      </trkpt>
      <trkpt lat="43.60705" lon="6.38104">
        <ele>614.6</ele>
        <time>2021-12-15T16:26:46.000Z</time>
      </trkpt>
      <trkpt lat="43.60699" lon="6.38115">
        <ele>614.1</ele>
        <time>2021-12-15T16:26:55.000Z</time>
      </trkpt>
      <trkpt lat="43.60698" lon="6.38128">
        <ele>613.6</ele>
        <time>2021-12-15T16:27:04.000Z</time>
      </trkpt>
      <trkpt lat="43.60704" lon="6.38139">
        <ele>613.2</ele>
        <time>2021-12-15T16:27:13.000Z</time>
      </trkpt>
      <trkpt lat="43.60711" lon="6.38147">
        <ele>613.1</ele>
        <time>2021-12-15T16:27:21.000Z</time>
      </trkpt>
      <trkpt lat="43.6072" lon="6.38154">
        <ele>612.7</ele>
        <time>2021-12-15T16:27:30.000Z</time>
      </trkpt>
      <trkpt lat="43.60728" lon="6.3816">
        <ele>612.4</ele>
        <time>2021-12-15T16:27:39.000Z</time>
      </trkpt>
      <trkpt lat="43.60737" lon="6.38166">
        <ele>612.4</ele>
        <time>2021-12-15T16:27:49.000Z</time>
      </trkpt>
      <trkpt lat="43.60738" lon="6.38179">
        <ele>610.3</ele>
        <time>2021-12-15T16:28:07.000Z</time>
      </trkpt>
      <trkpt lat="43.60738" lon="6.38191">
        <ele>609.1</ele>
        <time>2021-12-15T16:28:18.000Z</time>
      </trkpt>
      <trkpt lat="43.60741" lon="6.38199">
        <ele>609.3</ele>
        <time>2021-12-15T16:28:26.000Z</time>
      </trkpt>
      <trkpt lat="43.60741" lon="6.38198">
        <ele>609</ele>
        <time>2021-12-15T16:28:34.000Z</time>
      </trkpt>
      <trkpt lat="43.60741" lon="6.38198">
        <ele>608.8</ele>
        <time>2021-12-15T16:28:36.000Z</time>
      </trkpt>
      <trkpt lat="43.60742" lon="6.38197">
        <ele>608.5</ele>
        <time>2021-12-15T16:28:46.000Z</time>
      </trkpt>
      <trkpt lat="43.60748" lon="6.38195">
        <ele>608.7</ele>
        <time>2021-12-15T16:28:58.000Z</time>
      </trkpt>
      <trkpt lat="43.60748" lon="6.38194">
        <ele>608.8</ele>
        <time>2021-12-15T16:29:01.000Z</time>
      </trkpt>
      <trkpt lat="43.60747" lon="6.38194">
        <ele>608.9</ele>
        <time>2021-12-15T16:29:04.000Z</time>
      </trkpt>
      <trkpt lat="43.60747" lon="6.38194">
        <ele>609</ele>
        <time>2021-12-15T16:29:05.000Z</time>
      </trkpt>
      <trkpt lat="43.60745" lon="6.3819">
        <ele>609.1</ele>
        <time>2021-12-15T16:29:14.000Z</time>
      </trkpt>
      <trkpt lat="43.60746" lon="6.3819">
        <ele>608.9</ele>
        <time>2021-12-15T16:29:32.000Z</time>
      </trkpt>
      <trkpt lat="43.60746" lon="6.38188">
        <ele>608.8</ele>
        <time>2021-12-15T16:29:37.000Z</time>
      </trkpt>
      <trkpt lat="43.60746" lon="6.38189">
        <ele>608.9</ele>
        <time>2021-12-15T16:29:38.000Z</time>
      </trkpt>
      <trkpt lat="43.60746" lon="6.38189">
        <ele>609</ele>
        <time>2021-12-15T16:29:44.000Z</time>
      </trkpt>
      <trkpt lat="43.60746" lon="6.38189">
        <ele>608.9</ele>
        <time>2021-12-15T16:30:01.000Z</time>
      </trkpt>
      <trkpt lat="43.60746" lon="6.38189">
        <ele>608.9</ele>
        <time>2021-12-15T16:30:02.000Z</time>
      </trkpt>
      <trkpt lat="43.60747" lon="6.38189">
        <ele>608.8</ele>
        <time>2021-12-15T16:30:05.000Z</time>
      </trkpt>
      <trkpt lat="43.60747" lon="6.38188">
        <ele>608.8</ele>
        <time>2021-12-15T16:30:09.000Z</time>
      </trkpt>
      <trkpt lat="43.60748" lon="6.38188">
        <ele>609</ele>
        <time>2021-12-15T16:30:12.000Z</time>
      </trkpt>
      <trkpt lat="43.60748" lon="6.38188">
        <ele>609</ele>
        <time>2021-12-15T16:30:13.000Z</time>
      </trkpt>
      <trkpt lat="43.60748" lon="6.38188">
        <ele>608.9</ele>
        <time>2021-12-15T16:30:18.000Z</time>
      </trkpt>
      <trkpt lat="43.60747" lon="6.38187">
        <ele>608.8</ele>
        <time>2021-12-15T16:30:21.000Z</time>
      </trkpt>
      <trkpt lat="43.60747" lon="6.38188">
        <ele>608.7</ele>
        <time>2021-12-15T16:30:22.000Z</time>
      </trkpt>
      <trkpt lat="43.60747" lon="6.38188">
        <ele>608.9</ele>
        <time>2021-12-15T16:30:24.000Z</time>
      </trkpt>
      <trkpt lat="43.60746" lon="6.38188">
        <ele>608.8</ele>
        <time>2021-12-15T16:30:28.000Z</time>
      </trkpt>
      <trkpt lat="43.60746" lon="6.38189">
        <ele>608.7</ele>
        <time>2021-12-15T16:30:34.000Z</time>
      </trkpt>
      <trkpt lat="43.60746" lon="6.38189">
        <ele>608.7</ele>
        <time>2021-12-15T16:30:35.000Z</time>
      </trkpt>
      <trkpt lat="43.60746" lon="6.38189">
        <ele>608.8</ele>
        <time>2021-12-15T16:30:38.000Z</time>
      </trkpt>
      <trkpt lat="43.60746" lon="6.38189">
        <ele>608.8</ele>
        <time>2021-12-15T16:30:39.000Z</time>
      </trkpt>
      <trkpt lat="43.60745" lon="6.38189">
        <ele>608.8</ele>
        <time>2021-12-15T16:30:42.000Z</time>
      </trkpt>
      <trkpt lat="43.60745" lon="6.38189">
        <ele>608.7</ele>
        <time>2021-12-15T16:30:56.000Z</time>
      </trkpt>
      <trkpt lat="43.60745" lon="6.3819">
        <ele>608.7</ele>
        <time>2021-12-15T16:30:59.000Z</time>
      </trkpt>
      <trkpt lat="43.60744" lon="6.3819">
        <ele>608.8</ele>
        <time>2021-12-15T16:31:09.000Z</time>
      </trkpt>
      <trkpt lat="43.60745" lon="6.38203">
        <ele>608.3</ele>
        <time>2021-12-15T16:31:22.000Z</time>
      </trkpt>
      <trkpt lat="43.60745" lon="6.38203">
        <ele>608.3</ele>
        <time>2021-12-15T16:31:24.000Z</time>
      </trkpt>
      <trkpt lat="43.60745" lon="6.38204">
        <ele>608.6</ele>
        <time>2021-12-15T16:31:27.000Z</time>
      </trkpt>
      <trkpt lat="43.6074" lon="6.38216">
        <ele>606.5</ele>
        <time>2021-12-15T16:31:41.000Z</time>
      </trkpt>
      <trkpt lat="43.60734" lon="6.38225">
        <ele>604.9</ele>
        <time>2021-12-15T16:31:55.000Z</time>
      </trkpt>
      <trkpt lat="43.60731" lon="6.38227">
        <ele>604.1</ele>
        <time>2021-12-15T16:32:06.000Z</time>
      </trkpt>
      <trkpt lat="43.60731" lon="6.38227">
        <ele>603.8</ele>
        <time>2021-12-15T16:32:07.000Z</time>
      </trkpt>
      <trkpt lat="43.60726" lon="6.38239">
        <ele>600.8</ele>
        <time>2021-12-15T16:32:26.000Z</time>
      </trkpt>
      <trkpt lat="43.60724" lon="6.38251">
        <ele>597.2</ele>
        <time>2021-12-15T16:32:52.000Z</time>
      </trkpt>
      <trkpt lat="43.60714" lon="6.38251">
        <ele>596.9</ele>
        <time>2021-12-15T16:33:03.000Z</time>
      </trkpt>
      <trkpt lat="43.60712" lon="6.38249">
        <ele>596.4</ele>
        <time>2021-12-15T16:33:08.000Z</time>
      </trkpt>
      <trkpt lat="43.60712" lon="6.38249">
        <ele>596.4</ele>
        <time>2021-12-15T16:33:09.000Z</time>
      </trkpt>
      <trkpt lat="43.60714" lon="6.38247">
        <ele>596.6</ele>
        <time>2021-12-15T16:33:20.000Z</time>
      </trkpt>
      <trkpt lat="43.60714" lon="6.38246">
        <ele>596.6</ele>
        <time>2021-12-15T16:33:21.000Z</time>
      </trkpt>
      <trkpt lat="43.60715" lon="6.38247">
        <ele>596.8</ele>
        <time>2021-12-15T16:33:26.000Z</time>
      </trkpt>
      <trkpt lat="43.60715" lon="6.38247">
        <ele>596.6</ele>
        <time>2021-12-15T16:33:28.000Z</time>
      </trkpt>
      <trkpt lat="43.6071" lon="6.38237">
        <ele>595.3</ele>
        <time>2021-12-15T16:34:01.000Z</time>
      </trkpt>
      <trkpt lat="43.60709" lon="6.38235">
        <ele>595.4</ele>
        <time>2021-12-15T16:34:29.000Z</time>
      </trkpt>
      <trkpt lat="43.60709" lon="6.38236">
        <ele>595.4</ele>
        <time>2021-12-15T16:34:30.000Z</time>
      </trkpt>
      <trkpt lat="43.60706" lon="6.3824">
        <ele>594.2</ele>
        <time>2021-12-15T16:34:39.000Z</time>
      </trkpt>
      <trkpt lat="43.60706" lon="6.3824">
        <ele>594.3</ele>
        <time>2021-12-15T16:34:42.000Z</time>
      </trkpt>
      <trkpt lat="43.60706" lon="6.38243">
        <ele>593.5</ele>
        <time>2021-12-15T16:34:49.000Z</time>
      </trkpt>
      <trkpt lat="43.60706" lon="6.38243">
        <ele>593.5</ele>
        <time>2021-12-15T16:34:50.000Z</time>
      </trkpt>
      <trkpt lat="43.60706" lon="6.38242">
        <ele>593.3</ele>
        <time>2021-12-15T16:34:52.000Z</time>
      </trkpt>
      <trkpt lat="43.60706" lon="6.38243">
        <ele>593.4</ele>
        <time>2021-12-15T16:34:55.000Z</time>
      </trkpt>
      <trkpt lat="43.60705" lon="6.38247">
        <ele>592.5</ele>
        <time>2021-12-15T16:35:05.000Z</time>
      </trkpt>
      <trkpt lat="43.60705" lon="6.38247">
        <ele>592.4</ele>
        <time>2021-12-15T16:35:06.000Z</time>
      </trkpt>
      <trkpt lat="43.60704" lon="6.38255">
        <ele>591.2</ele>
        <time>2021-12-15T16:35:19.000Z</time>
      </trkpt>
      <trkpt lat="43.60703" lon="6.38255">
        <ele>591</ele>
        <time>2021-12-15T16:35:20.000Z</time>
      </trkpt>
      <trkpt lat="43.60703" lon="6.38255">
        <ele>591.1</ele>
        <time>2021-12-15T16:35:21.000Z</time>
      </trkpt>
      <trkpt lat="43.60703" lon="6.38255">
        <ele>590.7</ele>
        <time>2021-12-15T16:35:24.000Z</time>
      </trkpt>
      <trkpt lat="43.60704" lon="6.38263">
        <ele>590.3</ele>
        <time>2021-12-15T16:35:43.000Z</time>
      </trkpt>
      <trkpt lat="43.60704" lon="6.38263">
        <ele>590.5</ele>
        <time>2021-12-15T16:35:47.000Z</time>
      </trkpt>
      <trkpt lat="43.60707" lon="6.38265">
        <ele>590.5</ele>
        <time>2021-12-15T16:35:54.000Z</time>
      </trkpt>
      <trkpt lat="43.60706" lon="6.38264">
        <ele>590.3</ele>
        <time>2021-12-15T16:35:55.000Z</time>
      </trkpt>
      <trkpt lat="43.60706" lon="6.38264">
        <ele>590.3</ele>
        <time>2021-12-15T16:35:56.000Z</time>
      </trkpt>
      <trkpt lat="43.60706" lon="6.38264">
        <ele>590.1</ele>
        <time>2021-12-15T16:35:58.000Z</time>
      </trkpt>
      <trkpt lat="43.60712" lon="6.38275">
        <ele>589</ele>
        <time>2021-12-15T16:36:07.000Z</time>
      </trkpt>
      <trkpt lat="43.60707" lon="6.38286">
        <ele>587.7</ele>
        <time>2021-12-15T16:36:18.000Z</time>
      </trkpt>
      <trkpt lat="43.60708" lon="6.38286">
        <ele>587.6</ele>
        <time>2021-12-15T16:36:19.000Z</time>
      </trkpt>
      <trkpt lat="43.60709" lon="6.38287">
        <ele>587</ele>
        <time>2021-12-15T16:36:23.000Z</time>
      </trkpt>
      <trkpt lat="43.60709" lon="6.38287">
        <ele>586.9</ele>
        <time>2021-12-15T16:36:24.000Z</time>
      </trkpt>
      <trkpt lat="43.60701" lon="6.38292">
        <ele>585.6</ele>
        <time>2021-12-15T16:36:38.000Z</time>
      </trkpt>
      <trkpt lat="43.607" lon="6.38293">
        <ele>585.7</ele>
        <time>2021-12-15T16:36:40.000Z</time>
      </trkpt>
      <trkpt lat="43.607" lon="6.38293">
        <ele>585.7</ele>
        <time>2021-12-15T16:36:41.000Z</time>
      </trkpt>
      <trkpt lat="43.607" lon="6.38293">
        <ele>585.6</ele>
        <time>2021-12-15T16:36:42.000Z</time>
      </trkpt>
      <trkpt lat="43.60699" lon="6.38294">
        <ele>585.9</ele>
        <time>2021-12-15T16:36:45.000Z</time>
      </trkpt>
      <trkpt lat="43.60696" lon="6.38295">
        <ele>585.6</ele>
        <time>2021-12-15T16:36:50.000Z</time>
      </trkpt>
      <trkpt lat="43.60696" lon="6.38295">
        <ele>585.5</ele>
        <time>2021-12-15T16:36:53.000Z</time>
      </trkpt>
      <trkpt lat="43.60692" lon="6.38297">
        <ele>585.6</ele>
        <time>2021-12-15T16:37:08.000Z</time>
      </trkpt>
      <trkpt lat="43.60692" lon="6.38297">
        <ele>585.5</ele>
        <time>2021-12-15T16:37:09.000Z</time>
      </trkpt>
      <trkpt lat="43.60692" lon="6.38297">
        <ele>585.4</ele>
        <time>2021-12-15T16:37:10.000Z</time>
      </trkpt>
      <trkpt lat="43.60692" lon="6.38297">
        <ele>585.4</ele>
        <time>2021-12-15T16:37:19.000Z</time>
      </trkpt>
      <trkpt lat="43.60694" lon="6.38299">
        <ele>585.2</ele>
        <time>2021-12-15T16:37:28.000Z</time>
      </trkpt>
      <trkpt lat="43.60694" lon="6.38299">
        <ele>585.2</ele>
        <time>2021-12-15T16:37:32.000Z</time>
      </trkpt>
      <trkpt lat="43.60694" lon="6.38299">
        <ele>585.2</ele>
        <time>2021-12-15T16:37:38.000Z</time>
      </trkpt>
      <trkpt lat="43.60694" lon="6.38299">
        <ele>585.2</ele>
        <time>2021-12-15T16:37:40.000Z</time>
      </trkpt>
      <trkpt lat="43.60694" lon="6.38299">
        <ele>585.2</ele>
        <time>2021-12-15T16:37:41.000Z</time>
      </trkpt>
      <trkpt lat="43.60694" lon="6.38299">
        <ele>585.2</ele>
        <time>2021-12-15T16:37:42.000Z</time>
      </trkpt>
      <trkpt lat="43.60694" lon="6.38299">
        <ele>585.2</ele>
        <time>2021-12-15T16:37:43.000Z</time>
      </trkpt>
      <trkpt lat="43.60694" lon="6.38299">
        <ele>585.2</ele>
        <time>2021-12-15T16:37:46.000Z</time>
      </trkpt>
      <trkpt lat="43.60697" lon="6.383">
        <ele>585.2</ele>
        <time>2021-12-15T16:37:51.000Z</time>
      </trkpt>
      <trkpt lat="43.60697" lon="6.383">
        <ele>585.1</ele>
        <time>2021-12-15T16:37:52.000Z</time>
      </trkpt>
      <trkpt lat="43.60698" lon="6.383">
        <ele>585.1</ele>
        <time>2021-12-15T16:37:55.000Z</time>
      </trkpt>
      <trkpt lat="43.60699" lon="6.383">
        <ele>585.1</ele>
        <time>2021-12-15T16:38:05.000Z</time>
      </trkpt>
      <trkpt lat="43.60699" lon="6.38299">
        <ele>584.7</ele>
        <time>2021-12-15T16:38:07.000Z</time>
      </trkpt>
      <trkpt lat="43.60698" lon="6.38299">
        <ele>584.7</ele>
        <time>2021-12-15T16:38:08.000Z</time>
      </trkpt>
      <trkpt lat="43.60699" lon="6.38305">
        <ele>584.7</ele>
        <time>2021-12-15T16:38:17.000Z</time>
      </trkpt>
      <trkpt lat="43.60699" lon="6.38305">
        <ele>584.8</ele>
        <time>2021-12-15T16:38:22.000Z</time>
      </trkpt>
      <trkpt lat="43.60699" lon="6.38305">
        <ele>584.9</ele>
        <time>2021-12-15T16:38:23.000Z</time>
      </trkpt>
      <trkpt lat="43.60699" lon="6.38305">
        <ele>584.7</ele>
        <time>2021-12-15T16:38:41.000Z</time>
      </trkpt>
      <trkpt lat="43.607" lon="6.38307">
        <ele>584.7</ele>
        <time>2021-12-15T16:38:46.000Z</time>
      </trkpt>
      <trkpt lat="43.607" lon="6.38307">
        <ele>584.6</ele>
        <time>2021-12-15T16:38:48.000Z</time>
      </trkpt>
      <trkpt lat="43.60691" lon="6.38303">
        <ele>583.7</ele>
        <time>2021-12-15T16:38:59.000Z</time>
      </trkpt>
      <trkpt lat="43.60684" lon="6.38294">
        <ele>582.9</ele>
        <time>2021-12-15T16:39:09.000Z</time>
      </trkpt>
      <trkpt lat="43.6068" lon="6.38282">
        <ele>582.3</ele>
        <time>2021-12-15T16:39:16.000Z</time>
      </trkpt>
      <trkpt lat="43.60674" lon="6.38274">
        <ele>581.2</ele>
        <time>2021-12-15T16:39:27.000Z</time>
      </trkpt>
      <trkpt lat="43.60666" lon="6.38266">
        <ele>580.6</ele>
        <time>2021-12-15T16:39:41.000Z</time>
      </trkpt>
      <trkpt lat="43.60657" lon="6.38262">
        <ele>580.1</ele>
        <time>2021-12-15T16:39:50.000Z</time>
      </trkpt>
      <trkpt lat="43.6065" lon="6.38253">
        <ele>579.1</ele>
        <time>2021-12-15T16:40:00.000Z</time>
      </trkpt>
      <trkpt lat="43.60642" lon="6.38247">
        <ele>577.8</ele>
        <time>2021-12-15T16:40:09.000Z</time>
      </trkpt>
      <trkpt lat="43.60639" lon="6.38236">
        <ele>577.3</ele>
        <time>2021-12-15T16:40:18.000Z</time>
      </trkpt>
      <trkpt lat="43.6063" lon="6.38228">
        <ele>576.6</ele>
        <time>2021-12-15T16:40:26.000Z</time>
      </trkpt>
      <trkpt lat="43.60621" lon="6.38229">
        <ele>576.1</ele>
        <time>2021-12-15T16:40:32.000Z</time>
      </trkpt>
      <trkpt lat="43.60612" lon="6.38237">
        <ele>574.4</ele>
        <time>2021-12-15T16:40:43.000Z</time>
      </trkpt>
      <trkpt lat="43.60605" lon="6.38245">
        <ele>574.3</ele>
        <time>2021-12-15T16:40:51.000Z</time>
      </trkpt>
      <trkpt lat="43.60604" lon="6.38258">
        <ele>573.6</ele>
        <time>2021-12-15T16:41:07.000Z</time>
      </trkpt>
      <trkpt lat="43.60599" lon="6.38265">
        <ele>573.5</ele>
        <time>2021-12-15T16:41:26.000Z</time>
      </trkpt>
      <trkpt lat="43.60599" lon="6.38265">
        <ele>573.6</ele>
        <time>2021-12-15T16:41:30.000Z</time>
      </trkpt>
      <trkpt lat="43.60598" lon="6.38277">
        <ele>573.3</ele>
        <time>2021-12-15T16:41:37.000Z</time>
      </trkpt>
      <trkpt lat="43.60597" lon="6.3828">
        <ele>573.3</ele>
        <time>2021-12-15T16:41:44.000Z</time>
      </trkpt>
      <trkpt lat="43.60596" lon="6.3828">
        <ele>573.2</ele>
        <time>2021-12-15T16:41:47.000Z</time>
      </trkpt>
      <trkpt lat="43.60597" lon="6.38268">
        <ele>570.9</ele>
        <time>2021-12-15T16:42:08.000Z</time>
      </trkpt>
      <trkpt lat="43.60596" lon="6.38267">
        <ele>570.9</ele>
        <time>2021-12-15T16:42:11.000Z</time>
      </trkpt>
      <trkpt lat="43.60597" lon="6.38267">
        <ele>570.9</ele>
        <time>2021-12-15T16:42:12.000Z</time>
      </trkpt>
      <trkpt lat="43.60597" lon="6.38266">
        <ele>570.9</ele>
        <time>2021-12-15T16:42:14.000Z</time>
      </trkpt>
      <trkpt lat="43.60597" lon="6.38266">
        <ele>570.8</ele>
        <time>2021-12-15T16:42:24.000Z</time>
      </trkpt>
      <trkpt lat="43.60597" lon="6.38266">
        <ele>570.7</ele>
        <time>2021-12-15T16:42:25.000Z</time>
      </trkpt>
      <trkpt lat="43.60597" lon="6.38266">
        <ele>570.8</ele>
        <time>2021-12-15T16:42:35.000Z</time>
      </trkpt>
      <trkpt lat="43.60599" lon="6.38262">
        <ele>571.6</ele>
        <time>2021-12-15T16:42:44.000Z</time>
      </trkpt>
      <trkpt lat="43.60598" lon="6.38262">
        <ele>571.4</ele>
        <time>2021-12-15T16:42:45.000Z</time>
      </trkpt>
      <trkpt lat="43.60598" lon="6.38262">
        <ele>571.3</ele>
        <time>2021-12-15T16:42:46.000Z</time>
      </trkpt>
      <trkpt lat="43.60598" lon="6.38262">
        <ele>571.6</ele>
        <time>2021-12-15T16:42:51.000Z</time>
      </trkpt>
      <trkpt lat="43.60598" lon="6.38262">
        <ele>571.6</ele>
        <time>2021-12-15T16:42:52.000Z</time>
      </trkpt>
      <trkpt lat="43.60598" lon="6.38262">
        <ele>571.5</ele>
        <time>2021-12-15T16:42:53.000Z</time>
      </trkpt>
      <trkpt lat="43.60589" lon="6.38267">
        <ele>571.1</ele>
        <time>2021-12-15T16:42:59.000Z</time>
      </trkpt>
      <trkpt lat="43.60589" lon="6.38269">
        <ele>571</ele>
        <time>2021-12-15T16:43:14.000Z</time>
      </trkpt>
      <trkpt lat="43.60589" lon="6.38269">
        <ele>571.1</ele>
        <time>2021-12-15T16:43:16.000Z</time>
      </trkpt>
      <trkpt lat="43.60589" lon="6.38269">
        <ele>571</ele>
        <time>2021-12-15T16:43:17.000Z</time>
      </trkpt>
      <trkpt lat="43.60589" lon="6.38269">
        <ele>570.8</ele>
        <time>2021-12-15T16:43:26.000Z</time>
      </trkpt>
      <trkpt lat="43.60589" lon="6.38269">
        <ele>570.8</ele>
        <time>2021-12-15T16:43:27.000Z</time>
      </trkpt>
      <trkpt lat="43.60589" lon="6.38269">
        <ele>570.8</ele>
        <time>2021-12-15T16:43:28.000Z</time>
      </trkpt>
      <trkpt lat="43.60589" lon="6.38269">
        <ele>570.8</ele>
        <time>2021-12-15T16:43:28.000Z</time>
      </trkpt>
    </trkseg>
  </trk>
</gpx>